<?xml version="1.0" encoding="UTF-8" standalone="no" ?>
<gpx xmlns="http://www.topografix.com/GPX/1/1" xmlns:xsi="http://www.w3.org/2001/XMLSchema-instance" xsi:schemaLocation="http://www.topografix.com/GPX/1/1 http://www.topografix.com/GPX/1/1/gpx.xsd" version="1.1" creator="VisuGPX - https://www.visugpx.com">
  <metadata>
    <name>RANDO LANDOS JONCHERES 26 KM</name>
    <desc><![CDATA[RANDO LANDOS JONCHERETTE 26 KM.DEPART ARRIVEE LANDOS.JAGONAS.ARQUEJOLS.JONCHERETTE.JONCHERES.FREYCENET.RAURET.RIBAINS]]></desc>
  </metadata>
  <trk>
    <name><![CDATA[RANDO_1]]></name>
    <desc><![CDATA[]]></desc>
    <extensions>
      <line xmlns="http://www.topografix.com/GPX/gpx_style/0/2">
        <color>0000FF</color>
        <width>4</width>
      </line>
    </extensions>
    <trkseg>
      <trkpt lat="44.84344" lon="3.83052">
        <ele>1102.29</ele>
        <time>2025-12-14T08:18:51Z</time>
      </trkpt>
      <trkpt lat="44.84354" lon="3.83052">
        <ele>1102.29</ele>
        <time>2025-12-14T08:19:04Z</time>
      </trkpt>
      <trkpt lat="44.84373" lon="3.83061">
        <ele>1100.85</ele>
        <time>2025-12-14T08:19:22Z</time>
      </trkpt>
      <trkpt lat="44.84374" lon="3.83063">
        <ele>1100.37</ele>
        <time>2025-12-14T08:19:24Z</time>
      </trkpt>
      <trkpt lat="44.84381" lon="3.83089">
        <ele>1095.08</ele>
        <time>2025-12-14T08:19:42Z</time>
      </trkpt>
      <trkpt lat="44.8439" lon="3.8311">
        <ele>1089.31</ele>
        <time>2025-12-14T08:20:00Z</time>
      </trkpt>
      <trkpt lat="44.84394" lon="3.83111">
        <ele>1088.83</ele>
        <time>2025-12-14T08:20:04Z</time>
      </trkpt>
      <trkpt lat="44.84413" lon="3.83109">
        <ele>1099.4</ele>
        <time>2025-12-14T08:20:22Z</time>
      </trkpt>
      <trkpt lat="44.84423" lon="3.8311">
        <ele>1101.33</ele>
        <time>2025-12-14T08:20:35Z</time>
      </trkpt>
      <trkpt lat="44.84429" lon="3.83109">
        <ele>1101.33</ele>
        <time>2025-12-14T08:20:51Z</time>
      </trkpt>
      <trkpt lat="44.84436" lon="3.83119">
        <ele>1102.29</ele>
        <time>2025-12-14T08:21:01Z</time>
      </trkpt>
      <trkpt lat="44.84437" lon="3.83127">
        <ele>1102.77</ele>
        <time>2025-12-14T08:21:07Z</time>
      </trkpt>
      <trkpt lat="44.84438" lon="3.8316">
        <ele>1105.17</ele>
        <time>2025-12-14T08:21:28Z</time>
      </trkpt>
      <trkpt lat="44.84438" lon="3.83165">
        <ele>1105.17</ele>
        <time>2025-12-14T08:21:31Z</time>
      </trkpt>
      <trkpt lat="44.84442" lon="3.83192">
        <ele>1117.67</ele>
        <time>2025-12-14T08:21:48Z</time>
      </trkpt>
      <trkpt lat="44.84443" lon="3.83195">
        <ele>1117.67</ele>
        <time>2025-12-14T08:22:04Z</time>
      </trkpt>
      <trkpt lat="44.84442" lon="3.83194">
        <ele>1117.67</ele>
        <time>2025-12-14T08:22:07Z</time>
      </trkpt>
      <trkpt lat="44.8444" lon="3.8319">
        <ele>1117.19</ele>
        <time>2025-12-14T08:22:12Z</time>
      </trkpt>
      <trkpt lat="44.84432" lon="3.83181">
        <ele>1115.75</ele>
        <time>2025-12-14T08:22:26Z</time>
      </trkpt>
      <trkpt lat="44.84431" lon="3.83184">
        <ele>1115.27</ele>
        <time>2025-12-14T08:22:28Z</time>
      </trkpt>
      <trkpt lat="44.84422" lon="3.83211">
        <ele>1115.27</ele>
        <time>2025-12-14T08:22:47Z</time>
      </trkpt>
      <trkpt lat="44.84419" lon="3.83241">
        <ele>1114.79</ele>
        <time>2025-12-14T08:23:05Z</time>
      </trkpt>
      <trkpt lat="44.84415" lon="3.83261">
        <ele>1111.42</ele>
        <time>2025-12-14T08:23:18Z</time>
      </trkpt>
      <trkpt lat="44.84414" lon="3.83288">
        <ele>1109.5</ele>
        <time>2025-12-14T08:23:33Z</time>
      </trkpt>
      <trkpt lat="44.84419" lon="3.83324">
        <ele>1106.13</ele>
        <time>2025-12-14T08:23:53Z</time>
      </trkpt>
      <trkpt lat="44.84423" lon="3.83364">
        <ele>1106.13</ele>
        <time>2025-12-14T08:24:14Z</time>
      </trkpt>
      <trkpt lat="44.84433" lon="3.83388">
        <ele>1109.98</ele>
        <time>2025-12-14T08:24:29Z</time>
      </trkpt>
      <trkpt lat="44.84453" lon="3.83404">
        <ele>1111.42</ele>
        <time>2025-12-14T08:24:46Z</time>
      </trkpt>
      <trkpt lat="44.84471" lon="3.83419">
        <ele>1112.86</ele>
        <time>2025-12-14T08:25:01Z</time>
      </trkpt>
      <trkpt lat="44.84476" lon="3.83431">
        <ele>1113.82</ele>
        <time>2025-12-14T08:25:10Z</time>
      </trkpt>
      <trkpt lat="44.8448" lon="3.83467">
        <ele>1116.23</ele>
        <time>2025-12-14T08:25:30Z</time>
      </trkpt>
      <trkpt lat="44.84481" lon="3.83482">
        <ele>1117.67</ele>
        <time>2025-12-14T08:25:38Z</time>
      </trkpt>
      <trkpt lat="44.84487" lon="3.8351">
        <ele>1117.19</ele>
        <time>2025-12-14T08:25:58Z</time>
      </trkpt>
      <trkpt lat="44.84487" lon="3.83514">
        <ele>1116.71</ele>
        <time>2025-12-14T08:26:04Z</time>
      </trkpt>
      <trkpt lat="44.84489" lon="3.83537">
        <ele>1116.71</ele>
        <time>2025-12-14T08:26:21Z</time>
      </trkpt>
      <trkpt lat="44.84487" lon="3.83553">
        <ele>1118.63</ele>
        <time>2025-12-14T08:26:36Z</time>
      </trkpt>
      <trkpt lat="44.84489" lon="3.83567">
        <ele>1120.07</ele>
        <time>2025-12-14T08:26:45Z</time>
      </trkpt>
      <trkpt lat="44.84491" lon="3.83571">
        <ele>1122</ele>
        <time>2025-12-14T08:26:48Z</time>
      </trkpt>
      <trkpt lat="44.84501" lon="3.83582">
        <ele>1124.4</ele>
        <time>2025-12-14T08:27:00Z</time>
      </trkpt>
      <trkpt lat="44.84497" lon="3.83592">
        <ele>1125.36</ele>
        <time>2025-12-14T08:27:13Z</time>
      </trkpt>
      <trkpt lat="44.84475" lon="3.83576">
        <ele>1125.36</ele>
        <time>2025-12-14T08:27:32Z</time>
      </trkpt>
      <trkpt lat="44.84451" lon="3.83561">
        <ele>1125.36</ele>
        <time>2025-12-14T08:27:51Z</time>
      </trkpt>
      <trkpt lat="44.84426" lon="3.83546">
        <ele>1126.32</ele>
        <time>2025-12-14T08:28:10Z</time>
      </trkpt>
      <trkpt lat="44.84401" lon="3.83533">
        <ele>1126.32</ele>
        <time>2025-12-14T08:28:29Z</time>
      </trkpt>
      <trkpt lat="44.84373" lon="3.8352">
        <ele>1126.32</ele>
        <time>2025-12-14T08:28:49Z</time>
      </trkpt>
      <trkpt lat="44.84342" lon="3.83508">
        <ele>1124.88</ele>
        <time>2025-12-14T08:29:11Z</time>
      </trkpt>
      <trkpt lat="44.84319" lon="3.835">
        <ele>1124.88</ele>
        <time>2025-12-14T08:29:29Z</time>
      </trkpt>
      <trkpt lat="44.84299" lon="3.83494">
        <ele>1125.36</ele>
        <time>2025-12-14T08:29:44Z</time>
      </trkpt>
      <trkpt lat="44.84282" lon="3.83489">
        <ele>1124.88</ele>
        <time>2025-12-14T08:29:59Z</time>
      </trkpt>
      <trkpt lat="44.84269" lon="3.83486">
        <ele>1125.36</ele>
        <time>2025-12-14T08:30:13Z</time>
      </trkpt>
      <trkpt lat="44.84257" lon="3.83489">
        <ele>1123.44</ele>
        <time>2025-12-14T08:30:29Z</time>
      </trkpt>
      <trkpt lat="44.84247" lon="3.83485">
        <ele>1122</ele>
        <time>2025-12-14T08:30:46Z</time>
      </trkpt>
      <trkpt lat="44.84244" lon="3.83486">
        <ele>1121.03</ele>
        <time>2025-12-14T08:31:22Z</time>
      </trkpt>
      <trkpt lat="44.84224" lon="3.83486">
        <ele>1121.03</ele>
        <time>2025-12-14T08:31:39Z</time>
      </trkpt>
      <trkpt lat="44.84208" lon="3.83487">
        <ele>1121.52</ele>
        <time>2025-12-14T08:31:55Z</time>
      </trkpt>
      <trkpt lat="44.84183" lon="3.83487">
        <ele>1120.55</ele>
        <time>2025-12-14T08:32:14Z</time>
      </trkpt>
      <trkpt lat="44.84162" lon="3.83487">
        <ele>1121.03</ele>
        <time>2025-12-14T08:32:31Z</time>
      </trkpt>
      <trkpt lat="44.84144" lon="3.83483">
        <ele>1121.03</ele>
        <time>2025-12-14T08:32:46Z</time>
      </trkpt>
      <trkpt lat="44.84117" lon="3.8348">
        <ele>1119.11</ele>
        <time>2025-12-14T08:33:06Z</time>
      </trkpt>
      <trkpt lat="44.84099" lon="3.83482">
        <ele>1117.19</ele>
        <time>2025-12-14T08:33:21Z</time>
      </trkpt>
      <trkpt lat="44.84075" lon="3.83485">
        <ele>1110.94</ele>
        <time>2025-12-14T08:33:41Z</time>
      </trkpt>
      <trkpt lat="44.84052" lon="3.83482">
        <ele>1101.81</ele>
        <time>2025-12-14T08:34:03Z</time>
      </trkpt>
      <trkpt lat="44.84029" lon="3.83485">
        <ele>1097</ele>
        <time>2025-12-14T08:34:21Z</time>
      </trkpt>
      <trkpt lat="44.84006" lon="3.83485">
        <ele>1103.73</ele>
        <time>2025-12-14T08:34:36Z</time>
      </trkpt>
      <trkpt lat="44.83984" lon="3.83486">
        <ele>1107.1</ele>
        <time>2025-12-14T08:34:52Z</time>
      </trkpt>
      <trkpt lat="44.83965" lon="3.83486">
        <ele>1108.54</ele>
        <time>2025-12-14T08:35:08Z</time>
      </trkpt>
      <trkpt lat="44.83943" lon="3.83486">
        <ele>1109.5</ele>
        <time>2025-12-14T08:35:24Z</time>
      </trkpt>
      <trkpt lat="44.83917" lon="3.83487">
        <ele>1110.46</ele>
        <time>2025-12-14T08:35:43Z</time>
      </trkpt>
      <trkpt lat="44.83894" lon="3.83486">
        <ele>1111.42</ele>
        <time>2025-12-14T08:36:00Z</time>
      </trkpt>
      <trkpt lat="44.83867" lon="3.83486">
        <ele>1112.38</ele>
        <time>2025-12-14T08:36:19Z</time>
      </trkpt>
      <trkpt lat="44.8384" lon="3.83486">
        <ele>1111.42</ele>
        <time>2025-12-14T08:36:39Z</time>
      </trkpt>
      <trkpt lat="44.8381" lon="3.83483">
        <ele>1111.42</ele>
        <time>2025-12-14T08:37:00Z</time>
      </trkpt>
      <trkpt lat="44.83775" lon="3.83478">
        <ele>1111.42</ele>
        <time>2025-12-14T08:37:25Z</time>
      </trkpt>
      <trkpt lat="44.83747" lon="3.83473">
        <ele>1112.38</ele>
        <time>2025-12-14T08:37:45Z</time>
      </trkpt>
      <trkpt lat="44.83722" lon="3.83466">
        <ele>1113.34</ele>
        <time>2025-12-14T08:38:03Z</time>
      </trkpt>
      <trkpt lat="44.837" lon="3.83452">
        <ele>1112.38</ele>
        <time>2025-12-14T08:38:23Z</time>
      </trkpt>
      <trkpt lat="44.83677" lon="3.83443">
        <ele>1111.9</ele>
        <time>2025-12-14T08:38:41Z</time>
      </trkpt>
      <trkpt lat="44.83654" lon="3.83433">
        <ele>1113.34</ele>
        <time>2025-12-14T08:38:58Z</time>
      </trkpt>
      <trkpt lat="44.83632" lon="3.8342">
        <ele>1114.31</ele>
        <time>2025-12-14T08:39:15Z</time>
      </trkpt>
      <trkpt lat="44.8361" lon="3.83405">
        <ele>1114.79</ele>
        <time>2025-12-14T08:39:32Z</time>
      </trkpt>
      <trkpt lat="44.83591" lon="3.83393">
        <ele>1114.79</ele>
        <time>2025-12-14T08:39:48Z</time>
      </trkpt>
      <trkpt lat="44.8359" lon="3.83392">
        <ele>1114.79</ele>
        <time>2025-12-14T08:39:49Z</time>
      </trkpt>
      <trkpt lat="44.83588" lon="3.83389">
        <ele>1114.31</ele>
        <time>2025-12-14T08:40:05Z</time>
      </trkpt>
      <trkpt lat="44.83564" lon="3.83375">
        <ele>1113.82</ele>
        <time>2025-12-14T08:40:22Z</time>
      </trkpt>
      <trkpt lat="44.83538" lon="3.83356">
        <ele>1113.82</ele>
        <time>2025-12-14T08:40:40Z</time>
      </trkpt>
      <trkpt lat="44.83515" lon="3.83341">
        <ele>1111.42</ele>
        <time>2025-12-14T08:40:57Z</time>
      </trkpt>
      <trkpt lat="44.83501" lon="3.83331">
        <ele>1111.42</ele>
        <time>2025-12-14T08:41:09Z</time>
      </trkpt>
      <trkpt lat="44.83496" lon="3.83329">
        <ele>1111.42</ele>
        <time>2025-12-14T08:41:20Z</time>
      </trkpt>
      <trkpt lat="44.83483" lon="3.83305">
        <ele>1109.5</ele>
        <time>2025-12-14T08:41:35Z</time>
      </trkpt>
      <trkpt lat="44.83466" lon="3.83282">
        <ele>1106.61</ele>
        <time>2025-12-14T08:41:50Z</time>
      </trkpt>
      <trkpt lat="44.83449" lon="3.8326">
        <ele>1106.13</ele>
        <time>2025-12-14T08:42:05Z</time>
      </trkpt>
      <trkpt lat="44.83421" lon="3.83224">
        <ele>1106.13</ele>
        <time>2025-12-14T08:42:29Z</time>
      </trkpt>
      <trkpt lat="44.83391" lon="3.83191">
        <ele>1107.58</ele>
        <time>2025-12-14T08:42:54Z</time>
      </trkpt>
      <trkpt lat="44.83367" lon="3.83168">
        <ele>1113.34</ele>
        <time>2025-12-14T08:43:12Z</time>
      </trkpt>
      <trkpt lat="44.83349" lon="3.83149">
        <ele>1113.82</ele>
        <time>2025-12-14T08:43:30Z</time>
      </trkpt>
      <trkpt lat="44.8333" lon="3.83129">
        <ele>1114.79</ele>
        <time>2025-12-14T08:43:47Z</time>
      </trkpt>
      <trkpt lat="44.83312" lon="3.83109">
        <ele>1117.67</ele>
        <time>2025-12-14T08:44:03Z</time>
      </trkpt>
      <trkpt lat="44.83305" lon="3.83102">
        <ele>1119.59</ele>
        <time>2025-12-14T08:44:10Z</time>
      </trkpt>
      <trkpt lat="44.833" lon="3.83098">
        <ele>1120.55</ele>
        <time>2025-12-14T08:44:14Z</time>
      </trkpt>
      <trkpt lat="44.83282" lon="3.83082">
        <ele>1120.07</ele>
        <time>2025-12-14T08:44:29Z</time>
      </trkpt>
      <trkpt lat="44.83274" lon="3.83076">
        <ele>1119.59</ele>
        <time>2025-12-14T08:44:35Z</time>
      </trkpt>
      <trkpt lat="44.8325" lon="3.83058">
        <ele>1122.96</ele>
        <time>2025-12-14T08:44:54Z</time>
      </trkpt>
      <trkpt lat="44.83232" lon="3.8304">
        <ele>1123.44</ele>
        <time>2025-12-14T08:45:09Z</time>
      </trkpt>
      <trkpt lat="44.83216" lon="3.83022">
        <ele>1123.44</ele>
        <time>2025-12-14T08:45:24Z</time>
      </trkpt>
      <trkpt lat="44.83198" lon="3.83005">
        <ele>1122</ele>
        <time>2025-12-14T08:45:40Z</time>
      </trkpt>
      <trkpt lat="44.83181" lon="3.8298">
        <ele>1121.03</ele>
        <time>2025-12-14T08:45:57Z</time>
      </trkpt>
      <trkpt lat="44.83153" lon="3.82948">
        <ele>1118.63</ele>
        <time>2025-12-14T08:46:22Z</time>
      </trkpt>
      <trkpt lat="44.83133" lon="3.82915">
        <ele>1118.15</ele>
        <time>2025-12-14T08:46:44Z</time>
      </trkpt>
      <trkpt lat="44.83133" lon="3.82915">
        <ele>1118.15</ele>
        <time>2025-12-14T08:46:48Z</time>
      </trkpt>
      <trkpt lat="44.83116" lon="3.82882">
        <ele>1118.15</ele>
        <time>2025-12-14T08:47:05Z</time>
      </trkpt>
      <trkpt lat="44.83102" lon="3.82846">
        <ele>1116.71</ele>
        <time>2025-12-14T08:47:23Z</time>
      </trkpt>
      <trkpt lat="44.83091" lon="3.82816">
        <ele>1115.27</ele>
        <time>2025-12-14T08:47:39Z</time>
      </trkpt>
      <trkpt lat="44.83081" lon="3.82787">
        <ele>1115.27</ele>
        <time>2025-12-14T08:47:55Z</time>
      </trkpt>
      <trkpt lat="44.8307" lon="3.82756">
        <ele>1112.86</ele>
        <time>2025-12-14T08:48:12Z</time>
      </trkpt>
      <trkpt lat="44.83055" lon="3.82754">
        <ele>1112.86</ele>
        <time>2025-12-14T08:48:26Z</time>
      </trkpt>
      <trkpt lat="44.83046" lon="3.82757">
        <ele>1113.34</ele>
        <time>2025-12-14T08:48:34Z</time>
      </trkpt>
      <trkpt lat="44.83041" lon="3.82752">
        <ele>1112.86</ele>
        <time>2025-12-14T08:48:39Z</time>
      </trkpt>
      <trkpt lat="44.8304" lon="3.82745">
        <ele>1112.38</ele>
        <time>2025-12-14T08:48:43Z</time>
      </trkpt>
      <trkpt lat="44.83038" lon="3.82725">
        <ele>1113.34</ele>
        <time>2025-12-14T08:48:56Z</time>
      </trkpt>
      <trkpt lat="44.83036" lon="3.82703">
        <ele>1116.71</ele>
        <time>2025-12-14T08:49:10Z</time>
      </trkpt>
      <trkpt lat="44.83034" lon="3.82679">
        <ele>1118.15</ele>
        <time>2025-12-14T08:49:25Z</time>
      </trkpt>
      <trkpt lat="44.83033" lon="3.82649">
        <ele>1117.67</ele>
        <time>2025-12-14T08:49:41Z</time>
      </trkpt>
      <trkpt lat="44.8303" lon="3.8262">
        <ele>1118.15</ele>
        <time>2025-12-14T08:49:57Z</time>
      </trkpt>
      <trkpt lat="44.83023" lon="3.82586">
        <ele>1117.19</ele>
        <time>2025-12-14T08:50:14Z</time>
      </trkpt>
      <trkpt lat="44.83016" lon="3.82558">
        <ele>1117.19</ele>
        <time>2025-12-14T08:50:29Z</time>
      </trkpt>
      <trkpt lat="44.83011" lon="3.82539">
        <ele>1117.67</ele>
        <time>2025-12-14T08:50:39Z</time>
      </trkpt>
      <trkpt lat="44.83009" lon="3.82532">
        <ele>1117.67</ele>
        <time>2025-12-14T08:50:43Z</time>
      </trkpt>
      <trkpt lat="44.82997" lon="3.82501">
        <ele>1118.15</ele>
        <time>2025-12-14T08:51:02Z</time>
      </trkpt>
      <trkpt lat="44.82983" lon="3.82476">
        <ele>1117.19</ele>
        <time>2025-12-14T08:51:18Z</time>
      </trkpt>
      <trkpt lat="44.82969" lon="3.82455">
        <ele>1117.19</ele>
        <time>2025-12-14T08:51:34Z</time>
      </trkpt>
      <trkpt lat="44.82956" lon="3.82433">
        <ele>1117.67</ele>
        <time>2025-12-14T08:51:52Z</time>
      </trkpt>
      <trkpt lat="44.82936" lon="3.82403">
        <ele>1116.71</ele>
        <time>2025-12-14T08:52:16Z</time>
      </trkpt>
      <trkpt lat="44.82914" lon="3.82376">
        <ele>1114.31</ele>
        <time>2025-12-14T08:52:38Z</time>
      </trkpt>
      <trkpt lat="44.82884" lon="3.82353">
        <ele>1113.34</ele>
        <time>2025-12-14T08:53:00Z</time>
      </trkpt>
      <trkpt lat="44.82855" lon="3.8234">
        <ele>1115.27</ele>
        <time>2025-12-14T08:53:20Z</time>
      </trkpt>
      <trkpt lat="44.82842" lon="3.82334">
        <ele>1116.71</ele>
        <time>2025-12-14T08:53:31Z</time>
      </trkpt>
      <trkpt lat="44.82839" lon="3.82333">
        <ele>1117.19</ele>
        <time>2025-12-14T08:53:34Z</time>
      </trkpt>
      <trkpt lat="44.82824" lon="3.82328">
        <ele>1118.63</ele>
        <time>2025-12-14T08:53:45Z</time>
      </trkpt>
      <trkpt lat="44.82816" lon="3.82326">
        <ele>1118.15</ele>
        <time>2025-12-14T08:53:51Z</time>
      </trkpt>
      <trkpt lat="44.82815" lon="3.82326">
        <ele>1118.15</ele>
        <time>2025-12-14T08:53:52Z</time>
      </trkpt>
      <trkpt lat="44.82813" lon="3.82325">
        <ele>1118.63</ele>
        <time>2025-12-14T08:53:53Z</time>
      </trkpt>
      <trkpt lat="44.82811" lon="3.82324">
        <ele>1118.63</ele>
        <time>2025-12-14T08:53:54Z</time>
      </trkpt>
      <trkpt lat="44.82801" lon="3.82316">
        <ele>1117.67</ele>
        <time>2025-12-14T08:54:04Z</time>
      </trkpt>
      <trkpt lat="44.8279" lon="3.82309">
        <ele>1119.11</ele>
        <time>2025-12-14T08:54:12Z</time>
      </trkpt>
      <trkpt lat="44.82788" lon="3.82307">
        <ele>1119.11</ele>
        <time>2025-12-14T08:54:13Z</time>
      </trkpt>
      <trkpt lat="44.82787" lon="3.82306">
        <ele>1119.11</ele>
        <time>2025-12-14T08:54:14Z</time>
      </trkpt>
      <trkpt lat="44.82786" lon="3.82305">
        <ele>1119.11</ele>
        <time>2025-12-14T08:54:15Z</time>
      </trkpt>
      <trkpt lat="44.82784" lon="3.82305">
        <ele>1119.11</ele>
        <time>2025-12-14T08:54:16Z</time>
      </trkpt>
      <trkpt lat="44.82782" lon="3.82304">
        <ele>1119.11</ele>
        <time>2025-12-14T08:54:17Z</time>
      </trkpt>
      <trkpt lat="44.82781" lon="3.82303">
        <ele>1118.63</ele>
        <time>2025-12-14T08:54:18Z</time>
      </trkpt>
      <trkpt lat="44.82779" lon="3.82302">
        <ele>1118.63</ele>
        <time>2025-12-14T08:54:19Z</time>
      </trkpt>
      <trkpt lat="44.82777" lon="3.82302">
        <ele>1118.63</ele>
        <time>2025-12-14T08:54:20Z</time>
      </trkpt>
      <trkpt lat="44.82776" lon="3.82302">
        <ele>1118.63</ele>
        <time>2025-12-14T08:54:21Z</time>
      </trkpt>
      <trkpt lat="44.82774" lon="3.82301">
        <ele>1118.63</ele>
        <time>2025-12-14T08:54:22Z</time>
      </trkpt>
      <trkpt lat="44.82773" lon="3.82299">
        <ele>1118.15</ele>
        <time>2025-12-14T08:54:23Z</time>
      </trkpt>
      <trkpt lat="44.82768" lon="3.82291">
        <ele>1116.23</ele>
        <time>2025-12-14T08:54:31Z</time>
      </trkpt>
      <trkpt lat="44.82766" lon="3.8229">
        <ele>1116.23</ele>
        <time>2025-12-14T08:54:32Z</time>
      </trkpt>
      <trkpt lat="44.82765" lon="3.82288">
        <ele>1116.23</ele>
        <time>2025-12-14T08:54:33Z</time>
      </trkpt>
      <trkpt lat="44.82763" lon="3.82287">
        <ele>1116.23</ele>
        <time>2025-12-14T08:54:34Z</time>
      </trkpt>
      <trkpt lat="44.82762" lon="3.82286">
        <ele>1116.23</ele>
        <time>2025-12-14T08:54:35Z</time>
      </trkpt>
      <trkpt lat="44.8275" lon="3.82273">
        <ele>1114.79</ele>
        <time>2025-12-14T08:54:46Z</time>
      </trkpt>
      <trkpt lat="44.82732" lon="3.82254">
        <ele>1113.82</ele>
        <time>2025-12-14T08:54:59Z</time>
      </trkpt>
      <trkpt lat="44.82713" lon="3.82234">
        <ele>1112.86</ele>
        <time>2025-12-14T08:55:15Z</time>
      </trkpt>
      <trkpt lat="44.82701" lon="3.82215">
        <ele>1111.42</ele>
        <time>2025-12-14T08:55:26Z</time>
      </trkpt>
      <trkpt lat="44.82701" lon="3.82211">
        <ele>1110.94</ele>
        <time>2025-12-14T08:55:31Z</time>
      </trkpt>
      <trkpt lat="44.827" lon="3.8221">
        <ele>1110.94</ele>
        <time>2025-12-14T08:55:32Z</time>
      </trkpt>
      <trkpt lat="44.82699" lon="3.82208">
        <ele>1110.94</ele>
        <time>2025-12-14T08:55:33Z</time>
      </trkpt>
      <trkpt lat="44.82698" lon="3.82205">
        <ele>1110.94</ele>
        <time>2025-12-14T08:55:34Z</time>
      </trkpt>
      <trkpt lat="44.82696" lon="3.82203">
        <ele>1110.94</ele>
        <time>2025-12-14T08:55:35Z</time>
      </trkpt>
      <trkpt lat="44.82695" lon="3.82201">
        <ele>1110.94</ele>
        <time>2025-12-14T08:55:36Z</time>
      </trkpt>
      <trkpt lat="44.82694" lon="3.82198">
        <ele>1110.94</ele>
        <time>2025-12-14T08:55:37Z</time>
      </trkpt>
      <trkpt lat="44.82686" lon="3.82183">
        <ele>1111.42</ele>
        <time>2025-12-14T08:55:48Z</time>
      </trkpt>
      <trkpt lat="44.82668" lon="3.82158">
        <ele>1109.5</ele>
        <time>2025-12-14T08:56:01Z</time>
      </trkpt>
      <trkpt lat="44.82644" lon="3.82128">
        <ele>1107.1</ele>
        <time>2025-12-14T08:56:17Z</time>
      </trkpt>
      <trkpt lat="44.82634" lon="3.82113">
        <ele>1105.65</ele>
        <time>2025-12-14T08:56:32Z</time>
      </trkpt>
      <trkpt lat="44.82612" lon="3.82083">
        <ele>1103.25</ele>
        <time>2025-12-14T08:56:48Z</time>
      </trkpt>
      <trkpt lat="44.82605" lon="3.82068">
        <ele>1102.29</ele>
        <time>2025-12-14T08:57:01Z</time>
      </trkpt>
      <trkpt lat="44.82587" lon="3.8204">
        <ele>1101.33</ele>
        <time>2025-12-14T08:57:15Z</time>
      </trkpt>
      <trkpt lat="44.8258" lon="3.8203">
        <ele>1100.37</ele>
        <time>2025-12-14T08:57:25Z</time>
      </trkpt>
      <trkpt lat="44.82579" lon="3.82029">
        <ele>1100.37</ele>
        <time>2025-12-14T08:57:26Z</time>
      </trkpt>
      <trkpt lat="44.82578" lon="3.82028">
        <ele>1099.89</ele>
        <time>2025-12-14T08:57:27Z</time>
      </trkpt>
      <trkpt lat="44.82556" lon="3.82004">
        <ele>1099.4</ele>
        <time>2025-12-14T08:57:41Z</time>
      </trkpt>
      <trkpt lat="44.82543" lon="3.81993">
        <ele>1097.96</ele>
        <time>2025-12-14T08:57:54Z</time>
      </trkpt>
      <trkpt lat="44.82527" lon="3.81978">
        <ele>1097.48</ele>
        <time>2025-12-14T08:58:07Z</time>
      </trkpt>
      <trkpt lat="44.82505" lon="3.81961">
        <ele>1094.6</ele>
        <time>2025-12-14T08:58:22Z</time>
      </trkpt>
      <trkpt lat="44.8249" lon="3.81946">
        <ele>1092.2</ele>
        <time>2025-12-14T08:58:36Z</time>
      </trkpt>
      <trkpt lat="44.82466" lon="3.81931">
        <ele>1091.23</ele>
        <time>2025-12-14T08:58:50Z</time>
      </trkpt>
      <trkpt lat="44.8245" lon="3.81916">
        <ele>1088.83</ele>
        <time>2025-12-14T08:59:04Z</time>
      </trkpt>
      <trkpt lat="44.82435" lon="3.819">
        <ele>1086.43</ele>
        <time>2025-12-14T08:59:19Z</time>
      </trkpt>
      <trkpt lat="44.82422" lon="3.81888">
        <ele>1084.99</ele>
        <time>2025-12-14T08:59:28Z</time>
      </trkpt>
      <trkpt lat="44.82421" lon="3.81887">
        <ele>1084.99</ele>
        <time>2025-12-14T08:59:29Z</time>
      </trkpt>
      <trkpt lat="44.8242" lon="3.81886">
        <ele>1084.99</ele>
        <time>2025-12-14T08:59:30Z</time>
      </trkpt>
      <trkpt lat="44.82419" lon="3.81885">
        <ele>1084.99</ele>
        <time>2025-12-14T08:59:31Z</time>
      </trkpt>
      <trkpt lat="44.82414" lon="3.81879">
        <ele>1084.5</ele>
        <time>2025-12-14T08:59:37Z</time>
      </trkpt>
      <trkpt lat="44.82413" lon="3.81878">
        <ele>1084.5</ele>
        <time>2025-12-14T08:59:38Z</time>
      </trkpt>
      <trkpt lat="44.82412" lon="3.81876">
        <ele>1084.5</ele>
        <time>2025-12-14T08:59:39Z</time>
      </trkpt>
      <trkpt lat="44.82411" lon="3.81875">
        <ele>1084.02</ele>
        <time>2025-12-14T08:59:40Z</time>
      </trkpt>
      <trkpt lat="44.8241" lon="3.81874">
        <ele>1084.5</ele>
        <time>2025-12-14T08:59:41Z</time>
      </trkpt>
      <trkpt lat="44.82409" lon="3.81872">
        <ele>1084.5</ele>
        <time>2025-12-14T08:59:42Z</time>
      </trkpt>
      <trkpt lat="44.82392" lon="3.81857">
        <ele>1084.02</ele>
        <time>2025-12-14T08:59:53Z</time>
      </trkpt>
      <trkpt lat="44.82383" lon="3.81848">
        <ele>1083.06</ele>
        <time>2025-12-14T09:00:02Z</time>
      </trkpt>
      <trkpt lat="44.82362" lon="3.8183">
        <ele>1083.54</ele>
        <time>2025-12-14T09:00:18Z</time>
      </trkpt>
      <trkpt lat="44.82338" lon="3.81806">
        <ele>1081.62</ele>
        <time>2025-12-14T09:00:33Z</time>
      </trkpt>
      <trkpt lat="44.82329" lon="3.81793">
        <ele>1079.7</ele>
        <time>2025-12-14T09:00:46Z</time>
      </trkpt>
      <trkpt lat="44.82313" lon="3.81769">
        <ele>1077.78</ele>
        <time>2025-12-14T09:00:58Z</time>
      </trkpt>
      <trkpt lat="44.82307" lon="3.81754">
        <ele>1075.85</ele>
        <time>2025-12-14T09:01:11Z</time>
      </trkpt>
      <trkpt lat="44.82299" lon="3.81739">
        <ele>1076.33</ele>
        <time>2025-12-14T09:01:21Z</time>
      </trkpt>
      <trkpt lat="44.82296" lon="3.81735">
        <ele>1075.37</ele>
        <time>2025-12-14T09:01:25Z</time>
      </trkpt>
      <trkpt lat="44.82287" lon="3.81719">
        <ele>1073.93</ele>
        <time>2025-12-14T09:01:32Z</time>
      </trkpt>
      <trkpt lat="44.82278" lon="3.817">
        <ele>1074.41</ele>
        <time>2025-12-14T09:01:44Z</time>
      </trkpt>
      <trkpt lat="44.82263" lon="3.81672">
        <ele>1074.41</ele>
        <time>2025-12-14T09:01:57Z</time>
      </trkpt>
      <trkpt lat="44.82256" lon="3.81656">
        <ele>1074.41</ele>
        <time>2025-12-14T09:02:08Z</time>
      </trkpt>
      <trkpt lat="44.82248" lon="3.81641">
        <ele>1073.45</ele>
        <time>2025-12-14T09:02:16Z</time>
      </trkpt>
      <trkpt lat="44.82244" lon="3.81626">
        <ele>1072.49</ele>
        <time>2025-12-14T09:02:26Z</time>
      </trkpt>
      <trkpt lat="44.82233" lon="3.81598">
        <ele>1070.08</ele>
        <time>2025-12-14T09:02:37Z</time>
      </trkpt>
      <trkpt lat="44.82228" lon="3.81583">
        <ele>1070.57</ele>
        <time>2025-12-14T09:02:48Z</time>
      </trkpt>
      <trkpt lat="44.82221" lon="3.81562">
        <ele>1069.12</ele>
        <time>2025-12-14T09:03:00Z</time>
      </trkpt>
      <trkpt lat="44.82216" lon="3.81547">
        <ele>1067.68</ele>
        <time>2025-12-14T09:03:16Z</time>
      </trkpt>
      <trkpt lat="44.82213" lon="3.81539">
        <ele>1067.2</ele>
        <time>2025-12-14T09:03:31Z</time>
      </trkpt>
      <trkpt lat="44.82209" lon="3.81511">
        <ele>1065.28</ele>
        <time>2025-12-14T09:03:48Z</time>
      </trkpt>
      <trkpt lat="44.82199" lon="3.81474">
        <ele>1063.84</ele>
        <time>2025-12-14T09:04:07Z</time>
      </trkpt>
      <trkpt lat="44.82192" lon="3.81442">
        <ele>1061.43</ele>
        <time>2025-12-14T09:04:28Z</time>
      </trkpt>
      <trkpt lat="44.82186" lon="3.81411">
        <ele>1059.03</ele>
        <time>2025-12-14T09:04:49Z</time>
      </trkpt>
      <trkpt lat="44.82176" lon="3.81378">
        <ele>1056.63</ele>
        <time>2025-12-14T09:05:10Z</time>
      </trkpt>
      <trkpt lat="44.82161" lon="3.81354">
        <ele>1056.15</ele>
        <time>2025-12-14T09:05:27Z</time>
      </trkpt>
      <trkpt lat="44.82151" lon="3.81329">
        <ele>1057.59</ele>
        <time>2025-12-14T09:05:46Z</time>
      </trkpt>
      <trkpt lat="44.82147" lon="3.813">
        <ele>1056.63</ele>
        <time>2025-12-14T09:06:08Z</time>
      </trkpt>
      <trkpt lat="44.82148" lon="3.81287">
        <ele>1055.18</ele>
        <time>2025-12-14T09:06:18Z</time>
      </trkpt>
      <trkpt lat="44.82151" lon="3.81281">
        <ele>1052.78</ele>
        <time>2025-12-14T09:06:35Z</time>
      </trkpt>
      <trkpt lat="44.8215" lon="3.81282">
        <ele>1055.18</ele>
        <time>2025-12-14T09:07:00Z</time>
      </trkpt>
      <trkpt lat="44.82144" lon="3.81274">
        <ele>1054.7</ele>
        <time>2025-12-14T09:07:24Z</time>
      </trkpt>
      <trkpt lat="44.82143" lon="3.81272">
        <ele>1054.22</ele>
        <time>2025-12-14T09:07:25Z</time>
      </trkpt>
      <trkpt lat="44.82143" lon="3.81271">
        <ele>1054.22</ele>
        <time>2025-12-14T09:07:26Z</time>
      </trkpt>
      <trkpt lat="44.82126" lon="3.81228">
        <ele>1053.26</ele>
        <time>2025-12-14T09:07:51Z</time>
      </trkpt>
      <trkpt lat="44.82125" lon="3.81223">
        <ele>1052.78</ele>
        <time>2025-12-14T09:08:10Z</time>
      </trkpt>
      <trkpt lat="44.82124" lon="3.81222">
        <ele>1052.78</ele>
        <time>2025-12-14T09:08:40Z</time>
      </trkpt>
      <trkpt lat="44.82123" lon="3.81217">
        <ele>1051.82</ele>
        <time>2025-12-14T09:09:07Z</time>
      </trkpt>
      <trkpt lat="44.82116" lon="3.81198">
        <ele>1050.38</ele>
        <time>2025-12-14T09:09:24Z</time>
      </trkpt>
      <trkpt lat="44.8211" lon="3.81192">
        <ele>1046.05</ele>
        <time>2025-12-14T09:09:44Z</time>
      </trkpt>
      <trkpt lat="44.82104" lon="3.81196">
        <ele>1045.57</ele>
        <time>2025-12-14T09:09:50Z</time>
      </trkpt>
      <trkpt lat="44.82086" lon="3.81204">
        <ele>1044.13</ele>
        <time>2025-12-14T09:10:08Z</time>
      </trkpt>
      <trkpt lat="44.82065" lon="3.81206">
        <ele>1048.94</ele>
        <time>2025-12-14T09:10:24Z</time>
      </trkpt>
      <trkpt lat="44.82043" lon="3.81206">
        <ele>1049.42</ele>
        <time>2025-12-14T09:10:44Z</time>
      </trkpt>
      <trkpt lat="44.82018" lon="3.81194">
        <ele>1047.97</ele>
        <time>2025-12-14T09:11:03Z</time>
      </trkpt>
      <trkpt lat="44.81998" lon="3.81177">
        <ele>1047.49</ele>
        <time>2025-12-14T09:11:21Z</time>
      </trkpt>
      <trkpt lat="44.81975" lon="3.81155">
        <ele>1046.05</ele>
        <time>2025-12-14T09:11:41Z</time>
      </trkpt>
      <trkpt lat="44.81952" lon="3.81134">
        <ele>1045.57</ele>
        <time>2025-12-14T09:12:02Z</time>
      </trkpt>
      <trkpt lat="44.81926" lon="3.81129">
        <ele>1043.65</ele>
        <time>2025-12-14T09:12:20Z</time>
      </trkpt>
      <trkpt lat="44.81898" lon="3.81143">
        <ele>1044.61</ele>
        <time>2025-12-14T09:12:42Z</time>
      </trkpt>
      <trkpt lat="44.81877" lon="3.8116">
        <ele>1043.17</ele>
        <time>2025-12-14T09:13:01Z</time>
      </trkpt>
      <trkpt lat="44.81851" lon="3.81177">
        <ele>1041.73</ele>
        <time>2025-12-14T09:13:22Z</time>
      </trkpt>
      <trkpt lat="44.81825" lon="3.81198">
        <ele>1041.73</ele>
        <time>2025-12-14T09:13:43Z</time>
      </trkpt>
      <trkpt lat="44.81825" lon="3.81202">
        <ele>1042.21</ele>
        <time>2025-12-14T09:13:45Z</time>
      </trkpt>
      <trkpt lat="44.81825" lon="3.81204">
        <ele>1042.21</ele>
        <time>2025-12-14T09:13:46Z</time>
      </trkpt>
      <trkpt lat="44.81825" lon="3.81206">
        <ele>1042.21</ele>
        <time>2025-12-14T09:13:47Z</time>
      </trkpt>
      <trkpt lat="44.81826" lon="3.81207">
        <ele>1042.21</ele>
        <time>2025-12-14T09:13:48Z</time>
      </trkpt>
      <trkpt lat="44.81827" lon="3.81209">
        <ele>1042.21</ele>
        <time>2025-12-14T09:13:49Z</time>
      </trkpt>
      <trkpt lat="44.81827" lon="3.8121">
        <ele>1042.21</ele>
        <time>2025-12-14T09:13:50Z</time>
      </trkpt>
      <trkpt lat="44.81842" lon="3.81237">
        <ele>1040.28</ele>
        <time>2025-12-14T09:14:09Z</time>
      </trkpt>
      <trkpt lat="44.81857" lon="3.81266">
        <ele>1034.52</ele>
        <time>2025-12-14T09:14:30Z</time>
      </trkpt>
      <trkpt lat="44.81869" lon="3.81297">
        <ele>1031.15</ele>
        <time>2025-12-14T09:14:48Z</time>
      </trkpt>
      <trkpt lat="44.81881" lon="3.81335">
        <ele>1032.59</ele>
        <time>2025-12-14T09:15:06Z</time>
      </trkpt>
      <trkpt lat="44.81894" lon="3.81378">
        <ele>1028.75</ele>
        <time>2025-12-14T09:15:31Z</time>
      </trkpt>
      <trkpt lat="44.819" lon="3.81415">
        <ele>1027.31</ele>
        <time>2025-12-14T09:15:50Z</time>
      </trkpt>
      <trkpt lat="44.81896" lon="3.81456">
        <ele>1024.9</ele>
        <time>2025-12-14T09:16:11Z</time>
      </trkpt>
      <trkpt lat="44.81877" lon="3.81483">
        <ele>1025.38</ele>
        <time>2025-12-14T09:16:29Z</time>
      </trkpt>
      <trkpt lat="44.8186" lon="3.81512">
        <ele>1022.98</ele>
        <time>2025-12-14T09:16:48Z</time>
      </trkpt>
      <trkpt lat="44.81846" lon="3.81542">
        <ele>1019.13</ele>
        <time>2025-12-14T09:17:08Z</time>
      </trkpt>
      <trkpt lat="44.81833" lon="3.81563">
        <ele>1018.65</ele>
        <time>2025-12-14T09:17:22Z</time>
      </trkpt>
      <trkpt lat="44.81832" lon="3.81566">
        <ele>1019.13</ele>
        <time>2025-12-14T09:17:23Z</time>
      </trkpt>
      <trkpt lat="44.8183" lon="3.81568">
        <ele>1019.62</ele>
        <time>2025-12-14T09:17:24Z</time>
      </trkpt>
      <trkpt lat="44.81828" lon="3.81569">
        <ele>1019.62</ele>
        <time>2025-12-14T09:17:25Z</time>
      </trkpt>
      <trkpt lat="44.8182" lon="3.81571">
        <ele>1020.58</ele>
        <time>2025-12-14T09:17:31Z</time>
      </trkpt>
      <trkpt lat="44.81819" lon="3.81571">
        <ele>1020.58</ele>
        <time>2025-12-14T09:17:32Z</time>
      </trkpt>
      <trkpt lat="44.81817" lon="3.81572">
        <ele>1021.06</ele>
        <time>2025-12-14T09:17:33Z</time>
      </trkpt>
      <trkpt lat="44.81816" lon="3.81572">
        <ele>1022.02</ele>
        <time>2025-12-14T09:17:34Z</time>
      </trkpt>
      <trkpt lat="44.81802" lon="3.81567">
        <ele>1025.38</ele>
        <time>2025-12-14T09:17:46Z</time>
      </trkpt>
      <trkpt lat="44.81789" lon="3.81556">
        <ele>1026.34</ele>
        <time>2025-12-14T09:17:58Z</time>
      </trkpt>
      <trkpt lat="44.81775" lon="3.81541">
        <ele>1028.75</ele>
        <time>2025-12-14T09:18:10Z</time>
      </trkpt>
      <trkpt lat="44.81761" lon="3.81527">
        <ele>1030.67</ele>
        <time>2025-12-14T09:18:23Z</time>
      </trkpt>
      <trkpt lat="44.81747" lon="3.81519">
        <ele>1032.59</ele>
        <time>2025-12-14T09:18:36Z</time>
      </trkpt>
      <trkpt lat="44.81735" lon="3.81509">
        <ele>1034.52</ele>
        <time>2025-12-14T09:18:47Z</time>
      </trkpt>
      <trkpt lat="44.81724" lon="3.81496">
        <ele>1035.96</ele>
        <time>2025-12-14T09:18:59Z</time>
      </trkpt>
      <trkpt lat="44.81713" lon="3.81484">
        <ele>1037.4</ele>
        <time>2025-12-14T09:19:11Z</time>
      </trkpt>
      <trkpt lat="44.81699" lon="3.81474">
        <ele>1038.84</ele>
        <time>2025-12-14T09:19:23Z</time>
      </trkpt>
      <trkpt lat="44.81697" lon="3.81473">
        <ele>1038.84</ele>
        <time>2025-12-14T09:19:25Z</time>
      </trkpt>
      <trkpt lat="44.81695" lon="3.81473">
        <ele>1038.84</ele>
        <time>2025-12-14T09:19:26Z</time>
      </trkpt>
      <trkpt lat="44.81694" lon="3.81472">
        <ele>1038.84</ele>
        <time>2025-12-14T09:19:27Z</time>
      </trkpt>
      <trkpt lat="44.81681" lon="3.81467">
        <ele>1040.28</ele>
        <time>2025-12-14T09:19:37Z</time>
      </trkpt>
      <trkpt lat="44.81673" lon="3.81465">
        <ele>1041.25</ele>
        <time>2025-12-14T09:19:45Z</time>
      </trkpt>
      <trkpt lat="44.81659" lon="3.81448">
        <ele>1041.73</ele>
        <time>2025-12-14T09:20:03Z</time>
      </trkpt>
      <trkpt lat="44.81638" lon="3.81438">
        <ele>1041.73</ele>
        <time>2025-12-14T09:20:22Z</time>
      </trkpt>
      <trkpt lat="44.81625" lon="3.81438">
        <ele>1043.17</ele>
        <time>2025-12-14T09:20:33Z</time>
      </trkpt>
      <trkpt lat="44.81599" lon="3.81441">
        <ele>1044.13</ele>
        <time>2025-12-14T09:20:51Z</time>
      </trkpt>
      <trkpt lat="44.81577" lon="3.81442">
        <ele>1046.53</ele>
        <time>2025-12-14T09:21:07Z</time>
      </trkpt>
      <trkpt lat="44.81555" lon="3.81443">
        <ele>1046.05</ele>
        <time>2025-12-14T09:21:23Z</time>
      </trkpt>
      <trkpt lat="44.81527" lon="3.81439">
        <ele>1046.53</ele>
        <time>2025-12-14T09:21:42Z</time>
      </trkpt>
      <trkpt lat="44.81498" lon="3.81447">
        <ele>1044.13</ele>
        <time>2025-12-14T09:22:02Z</time>
      </trkpt>
      <trkpt lat="44.81476" lon="3.81457">
        <ele>1042.21</ele>
        <time>2025-12-14T09:22:19Z</time>
      </trkpt>
      <trkpt lat="44.81473" lon="3.81458">
        <ele>1042.21</ele>
        <time>2025-12-14T09:22:21Z</time>
      </trkpt>
      <trkpt lat="44.81471" lon="3.81458">
        <ele>1042.21</ele>
        <time>2025-12-14T09:22:22Z</time>
      </trkpt>
      <trkpt lat="44.81442" lon="3.8147">
        <ele>1041.73</ele>
        <time>2025-12-14T09:22:42Z</time>
      </trkpt>
      <trkpt lat="44.81415" lon="3.81476">
        <ele>1040.76</ele>
        <time>2025-12-14T09:23:00Z</time>
      </trkpt>
      <trkpt lat="44.81405" lon="3.81493">
        <ele>1040.76</ele>
        <time>2025-12-14T09:23:12Z</time>
      </trkpt>
      <trkpt lat="44.814" lon="3.815">
        <ele>1041.25</ele>
        <time>2025-12-14T09:23:17Z</time>
      </trkpt>
      <trkpt lat="44.81388" lon="3.81518">
        <ele>1040.76</ele>
        <time>2025-12-14T09:23:30Z</time>
      </trkpt>
      <trkpt lat="44.81376" lon="3.81533">
        <ele>1041.25</ele>
        <time>2025-12-14T09:23:41Z</time>
      </trkpt>
      <trkpt lat="44.81361" lon="3.81551">
        <ele>1041.25</ele>
        <time>2025-12-14T09:23:54Z</time>
      </trkpt>
      <trkpt lat="44.81351" lon="3.81565">
        <ele>1041.73</ele>
        <time>2025-12-14T09:24:04Z</time>
      </trkpt>
      <trkpt lat="44.81342" lon="3.81583">
        <ele>1041.25</ele>
        <time>2025-12-14T09:24:13Z</time>
      </trkpt>
      <trkpt lat="44.81337" lon="3.8159">
        <ele>1042.21</ele>
        <time>2025-12-14T09:24:19Z</time>
      </trkpt>
      <trkpt lat="44.81337" lon="3.81593">
        <ele>1042.69</ele>
        <time>2025-12-14T09:24:20Z</time>
      </trkpt>
      <trkpt lat="44.81324" lon="3.81613">
        <ele>1043.65</ele>
        <time>2025-12-14T09:24:34Z</time>
      </trkpt>
      <trkpt lat="44.81309" lon="3.81628">
        <ele>1043.17</ele>
        <time>2025-12-14T09:24:46Z</time>
      </trkpt>
      <trkpt lat="44.81303" lon="3.81632">
        <ele>1043.17</ele>
        <time>2025-12-14T09:24:52Z</time>
      </trkpt>
      <trkpt lat="44.81301" lon="3.81633">
        <ele>1043.17</ele>
        <time>2025-12-14T09:24:53Z</time>
      </trkpt>
      <trkpt lat="44.81287" lon="3.81641">
        <ele>1041.73</ele>
        <time>2025-12-14T09:25:04Z</time>
      </trkpt>
      <trkpt lat="44.81271" lon="3.81644">
        <ele>1042.21</ele>
        <time>2025-12-14T09:25:15Z</time>
      </trkpt>
      <trkpt lat="44.81252" lon="3.81653">
        <ele>1042.21</ele>
        <time>2025-12-14T09:25:28Z</time>
      </trkpt>
      <trkpt lat="44.8125" lon="3.81655">
        <ele>1042.21</ele>
        <time>2025-12-14T09:25:30Z</time>
      </trkpt>
      <trkpt lat="44.81249" lon="3.81656">
        <ele>1042.21</ele>
        <time>2025-12-14T09:25:31Z</time>
      </trkpt>
      <trkpt lat="44.81235" lon="3.81677">
        <ele>1041.25</ele>
        <time>2025-12-14T09:25:44Z</time>
      </trkpt>
      <trkpt lat="44.81223" lon="3.817">
        <ele>1040.76</ele>
        <time>2025-12-14T09:25:57Z</time>
      </trkpt>
      <trkpt lat="44.81222" lon="3.81701">
        <ele>1040.76</ele>
        <time>2025-12-14T09:25:58Z</time>
      </trkpt>
      <trkpt lat="44.81221" lon="3.81702">
        <ele>1040.76</ele>
        <time>2025-12-14T09:25:59Z</time>
      </trkpt>
      <trkpt lat="44.81208" lon="3.81723">
        <ele>1040.76</ele>
        <time>2025-12-14T09:26:11Z</time>
      </trkpt>
      <trkpt lat="44.81195" lon="3.81746">
        <ele>1040.76</ele>
        <time>2025-12-14T09:26:26Z</time>
      </trkpt>
      <trkpt lat="44.81192" lon="3.8175">
        <ele>1040.28</ele>
        <time>2025-12-14T09:26:30Z</time>
      </trkpt>
      <trkpt lat="44.81191" lon="3.81751">
        <ele>1040.28</ele>
        <time>2025-12-14T09:26:31Z</time>
      </trkpt>
      <trkpt lat="44.81189" lon="3.81752">
        <ele>1040.28</ele>
        <time>2025-12-14T09:26:32Z</time>
      </trkpt>
      <trkpt lat="44.81188" lon="3.81753">
        <ele>1040.28</ele>
        <time>2025-12-14T09:26:33Z</time>
      </trkpt>
      <trkpt lat="44.81186" lon="3.81754">
        <ele>1040.28</ele>
        <time>2025-12-14T09:26:34Z</time>
      </trkpt>
      <trkpt lat="44.81177" lon="3.81754">
        <ele>1039.8</ele>
        <time>2025-12-14T09:26:41Z</time>
      </trkpt>
      <trkpt lat="44.81176" lon="3.81753">
        <ele>1039.32</ele>
        <time>2025-12-14T09:26:42Z</time>
      </trkpt>
      <trkpt lat="44.81175" lon="3.81752">
        <ele>1039.32</ele>
        <time>2025-12-14T09:26:43Z</time>
      </trkpt>
      <trkpt lat="44.81174" lon="3.8175">
        <ele>1039.32</ele>
        <time>2025-12-14T09:26:44Z</time>
      </trkpt>
      <trkpt lat="44.81172" lon="3.81749">
        <ele>1039.32</ele>
        <time>2025-12-14T09:26:45Z</time>
      </trkpt>
      <trkpt lat="44.81154" lon="3.81726">
        <ele>1039.32</ele>
        <time>2025-12-14T09:27:01Z</time>
      </trkpt>
      <trkpt lat="44.81144" lon="3.81729">
        <ele>1039.8</ele>
        <time>2025-12-14T09:27:10Z</time>
      </trkpt>
      <trkpt lat="44.81142" lon="3.8173">
        <ele>1039.8</ele>
        <time>2025-12-14T09:27:11Z</time>
      </trkpt>
      <trkpt lat="44.81141" lon="3.81733">
        <ele>1039.32</ele>
        <time>2025-12-14T09:27:12Z</time>
      </trkpt>
      <trkpt lat="44.8114" lon="3.81735">
        <ele>1039.32</ele>
        <time>2025-12-14T09:27:13Z</time>
      </trkpt>
      <trkpt lat="44.81139" lon="3.81738">
        <ele>1039.32</ele>
        <time>2025-12-14T09:27:14Z</time>
      </trkpt>
      <trkpt lat="44.81138" lon="3.81741">
        <ele>1039.8</ele>
        <time>2025-12-14T09:27:15Z</time>
      </trkpt>
      <trkpt lat="44.81129" lon="3.8176">
        <ele>1039.8</ele>
        <time>2025-12-14T09:27:27Z</time>
      </trkpt>
      <trkpt lat="44.81115" lon="3.81785">
        <ele>1039.32</ele>
        <time>2025-12-14T09:27:43Z</time>
      </trkpt>
      <trkpt lat="44.81096" lon="3.81823">
        <ele>1039.8</ele>
        <time>2025-12-14T09:28:05Z</time>
      </trkpt>
      <trkpt lat="44.81081" lon="3.81854">
        <ele>1038.84</ele>
        <time>2025-12-14T09:28:24Z</time>
      </trkpt>
      <trkpt lat="44.8107" lon="3.81875">
        <ele>1038.36</ele>
        <time>2025-12-14T09:28:36Z</time>
      </trkpt>
      <trkpt lat="44.8106" lon="3.81898">
        <ele>1037.4</ele>
        <time>2025-12-14T09:28:49Z</time>
      </trkpt>
      <trkpt lat="44.81053" lon="3.81916">
        <ele>1036.44</ele>
        <time>2025-12-14T09:29:00Z</time>
      </trkpt>
      <trkpt lat="44.81047" lon="3.81932">
        <ele>1035.48</ele>
        <time>2025-12-14T09:29:11Z</time>
      </trkpt>
      <trkpt lat="44.81039" lon="3.81953">
        <ele>1034.04</ele>
        <time>2025-12-14T09:29:23Z</time>
      </trkpt>
      <trkpt lat="44.8103" lon="3.8197">
        <ele>1033.07</ele>
        <time>2025-12-14T09:29:34Z</time>
      </trkpt>
      <trkpt lat="44.81019" lon="3.81987">
        <ele>1031.15</ele>
        <time>2025-12-14T09:29:46Z</time>
      </trkpt>
      <trkpt lat="44.81008" lon="3.82009">
        <ele>1029.71</ele>
        <time>2025-12-14T09:29:58Z</time>
      </trkpt>
      <trkpt lat="44.80999" lon="3.82028">
        <ele>1029.71</ele>
        <time>2025-12-14T09:30:09Z</time>
      </trkpt>
      <trkpt lat="44.80994" lon="3.82046">
        <ele>1030.19</ele>
        <time>2025-12-14T09:30:19Z</time>
      </trkpt>
      <trkpt lat="44.80983" lon="3.82069">
        <ele>1029.23</ele>
        <time>2025-12-14T09:30:33Z</time>
      </trkpt>
      <trkpt lat="44.80975" lon="3.82084">
        <ele>1028.75</ele>
        <time>2025-12-14T09:30:44Z</time>
      </trkpt>
      <trkpt lat="44.80966" lon="3.82108">
        <ele>1029.71</ele>
        <time>2025-12-14T09:30:55Z</time>
      </trkpt>
      <trkpt lat="44.80954" lon="3.82133">
        <ele>1028.75</ele>
        <time>2025-12-14T09:31:08Z</time>
      </trkpt>
      <trkpt lat="44.80944" lon="3.82159">
        <ele>1027.79</ele>
        <time>2025-12-14T09:31:24Z</time>
      </trkpt>
      <trkpt lat="44.80939" lon="3.82173">
        <ele>1026.34</ele>
        <time>2025-12-14T09:31:34Z</time>
      </trkpt>
      <trkpt lat="44.80928" lon="3.82199">
        <ele>1026.34</ele>
        <time>2025-12-14T09:31:47Z</time>
      </trkpt>
      <trkpt lat="44.80917" lon="3.82221">
        <ele>1025.38</ele>
        <time>2025-12-14T09:32:00Z</time>
      </trkpt>
      <trkpt lat="44.80907" lon="3.82237">
        <ele>1022.98</ele>
        <time>2025-12-14T09:32:12Z</time>
      </trkpt>
      <trkpt lat="44.809" lon="3.82261">
        <ele>1020.1</ele>
        <time>2025-12-14T09:32:26Z</time>
      </trkpt>
      <trkpt lat="44.80901" lon="3.82279">
        <ele>1019.13</ele>
        <time>2025-12-14T09:32:35Z</time>
      </trkpt>
      <trkpt lat="44.80901" lon="3.82281">
        <ele>1019.13</ele>
        <time>2025-12-14T09:32:36Z</time>
      </trkpt>
      <trkpt lat="44.80901" lon="3.82283">
        <ele>1019.13</ele>
        <time>2025-12-14T09:32:37Z</time>
      </trkpt>
      <trkpt lat="44.80902" lon="3.82287">
        <ele>1019.13</ele>
        <time>2025-12-14T09:32:38Z</time>
      </trkpt>
      <trkpt lat="44.80901" lon="3.8229">
        <ele>1019.13</ele>
        <time>2025-12-14T09:32:39Z</time>
      </trkpt>
      <trkpt lat="44.80901" lon="3.82292">
        <ele>1019.13</ele>
        <time>2025-12-14T09:32:40Z</time>
      </trkpt>
      <trkpt lat="44.80899" lon="3.82315">
        <ele>1020.1</ele>
        <time>2025-12-14T09:32:52Z</time>
      </trkpt>
      <trkpt lat="44.80898" lon="3.8232">
        <ele>1020.58</ele>
        <time>2025-12-14T09:32:55Z</time>
      </trkpt>
      <trkpt lat="44.80897" lon="3.82321">
        <ele>1020.58</ele>
        <time>2025-12-14T09:32:56Z</time>
      </trkpt>
      <trkpt lat="44.80896" lon="3.82322">
        <ele>1020.58</ele>
        <time>2025-12-14T09:32:57Z</time>
      </trkpt>
      <trkpt lat="44.80895" lon="3.82324">
        <ele>1020.58</ele>
        <time>2025-12-14T09:32:58Z</time>
      </trkpt>
      <trkpt lat="44.80894" lon="3.82326">
        <ele>1020.58</ele>
        <time>2025-12-14T09:32:59Z</time>
      </trkpt>
      <trkpt lat="44.80892" lon="3.82329">
        <ele>1021.06</ele>
        <time>2025-12-14T09:33:00Z</time>
      </trkpt>
      <trkpt lat="44.80877" lon="3.82336">
        <ele>1021.54</ele>
        <time>2025-12-14T09:33:12Z</time>
      </trkpt>
      <trkpt lat="44.8086" lon="3.82337">
        <ele>1020.58</ele>
        <time>2025-12-14T09:33:25Z</time>
      </trkpt>
      <trkpt lat="44.80848" lon="3.8234">
        <ele>1020.58</ele>
        <time>2025-12-14T09:33:34Z</time>
      </trkpt>
      <trkpt lat="44.80846" lon="3.8234">
        <ele>1020.58</ele>
        <time>2025-12-14T09:33:35Z</time>
      </trkpt>
      <trkpt lat="44.80827" lon="3.82343">
        <ele>1019.13</ele>
        <time>2025-12-14T09:33:50Z</time>
      </trkpt>
      <trkpt lat="44.80797" lon="3.82345">
        <ele>1017.69</ele>
        <time>2025-12-14T09:34:11Z</time>
      </trkpt>
      <trkpt lat="44.80771" lon="3.82342">
        <ele>1016.25</ele>
        <time>2025-12-14T09:34:30Z</time>
      </trkpt>
      <trkpt lat="44.80747" lon="3.8234">
        <ele>1014.81</ele>
        <time>2025-12-14T09:34:49Z</time>
      </trkpt>
      <trkpt lat="44.80728" lon="3.82351">
        <ele>1013.37</ele>
        <time>2025-12-14T09:35:05Z</time>
      </trkpt>
      <trkpt lat="44.80702" lon="3.82369">
        <ele>1012.41</ele>
        <time>2025-12-14T09:35:24Z</time>
      </trkpt>
      <trkpt lat="44.80692" lon="3.82374">
        <ele>1012.41</ele>
        <time>2025-12-14T09:35:33Z</time>
      </trkpt>
      <trkpt lat="44.80689" lon="3.82396">
        <ele>1010.48</ele>
        <time>2025-12-14T09:35:48Z</time>
      </trkpt>
      <trkpt lat="44.80688" lon="3.82427">
        <ele>1007.6</ele>
        <time>2025-12-14T09:36:04Z</time>
      </trkpt>
      <trkpt lat="44.80686" lon="3.82468">
        <ele>1004.72</ele>
        <time>2025-12-14T09:36:26Z</time>
      </trkpt>
      <trkpt lat="44.80683" lon="3.82504">
        <ele>1003.75</ele>
        <time>2025-12-14T09:36:45Z</time>
      </trkpt>
      <trkpt lat="44.80676" lon="3.82542">
        <ele>1002.31</ele>
        <time>2025-12-14T09:37:04Z</time>
      </trkpt>
      <trkpt lat="44.80677" lon="3.82581">
        <ele>999.43</ele>
        <time>2025-12-14T09:37:24Z</time>
      </trkpt>
      <trkpt lat="44.80681" lon="3.82601">
        <ele>998.47</ele>
        <time>2025-12-14T09:37:41Z</time>
      </trkpt>
      <trkpt lat="44.80682" lon="3.82603">
        <ele>998.95</ele>
        <time>2025-12-14T09:37:52Z</time>
      </trkpt>
      <trkpt lat="44.80697" lon="3.82624">
        <ele>998.95</ele>
        <time>2025-12-14T09:38:11Z</time>
      </trkpt>
      <trkpt lat="44.80708" lon="3.82634">
        <ele>997.02</ele>
        <time>2025-12-14T09:38:29Z</time>
      </trkpt>
      <trkpt lat="44.80723" lon="3.8265">
        <ele>994.62</ele>
        <time>2025-12-14T09:38:46Z</time>
      </trkpt>
      <trkpt lat="44.80736" lon="3.82674">
        <ele>990.3</ele>
        <time>2025-12-14T09:39:05Z</time>
      </trkpt>
      <trkpt lat="44.80741" lon="3.82694">
        <ele>988.37</ele>
        <time>2025-12-14T09:39:16Z</time>
      </trkpt>
      <trkpt lat="44.80745" lon="3.82727">
        <ele>984.05</ele>
        <time>2025-12-14T09:39:34Z</time>
      </trkpt>
      <trkpt lat="44.80751" lon="3.8276">
        <ele>978.76</ele>
        <time>2025-12-14T09:39:53Z</time>
      </trkpt>
      <trkpt lat="44.80745" lon="3.82784">
        <ele>976.36</ele>
        <time>2025-12-14T09:40:05Z</time>
      </trkpt>
      <trkpt lat="44.80732" lon="3.82797">
        <ele>973.95</ele>
        <time>2025-12-14T09:40:16Z</time>
      </trkpt>
      <trkpt lat="44.8073" lon="3.82797">
        <ele>973.95</ele>
        <time>2025-12-14T09:40:17Z</time>
      </trkpt>
      <trkpt lat="44.80706" lon="3.82786">
        <ele>972.99</ele>
        <time>2025-12-14T09:40:35Z</time>
      </trkpt>
      <trkpt lat="44.80697" lon="3.82784">
        <ele>973.95</ele>
        <time>2025-12-14T09:40:49Z</time>
      </trkpt>
      <trkpt lat="44.80675" lon="3.8277">
        <ele>972.99</ele>
        <time>2025-12-14T09:41:07Z</time>
      </trkpt>
      <trkpt lat="44.80647" lon="3.8275">
        <ele>974.43</ele>
        <time>2025-12-14T09:41:27Z</time>
      </trkpt>
      <trkpt lat="44.80634" lon="3.82747">
        <ele>975.39</ele>
        <time>2025-12-14T09:41:37Z</time>
      </trkpt>
      <trkpt lat="44.80599" lon="3.82747">
        <ele>981.16</ele>
        <time>2025-12-14T09:42:01Z</time>
      </trkpt>
      <trkpt lat="44.80573" lon="3.82754">
        <ele>985.97</ele>
        <time>2025-12-14T09:42:22Z</time>
      </trkpt>
      <trkpt lat="44.80543" lon="3.82764">
        <ele>990.3</ele>
        <time>2025-12-14T09:42:43Z</time>
      </trkpt>
      <trkpt lat="44.8052" lon="3.8277">
        <ele>994.14</ele>
        <time>2025-12-14T09:43:05Z</time>
      </trkpt>
      <trkpt lat="44.80502" lon="3.82774">
        <ele>998.47</ele>
        <time>2025-12-14T09:43:24Z</time>
      </trkpt>
      <trkpt lat="44.80476" lon="3.82787">
        <ele>1003.75</ele>
        <time>2025-12-14T09:43:46Z</time>
      </trkpt>
      <trkpt lat="44.80457" lon="3.82803">
        <ele>1005.2</ele>
        <time>2025-12-14T09:44:04Z</time>
      </trkpt>
      <trkpt lat="44.80438" lon="3.82821">
        <ele>1005.2</ele>
        <time>2025-12-14T09:44:22Z</time>
      </trkpt>
      <trkpt lat="44.80426" lon="3.82829">
        <ele>1006.64</ele>
        <time>2025-12-14T09:44:37Z</time>
      </trkpt>
      <trkpt lat="44.80421" lon="3.82822">
        <ele>1006.64</ele>
        <time>2025-12-14T09:44:54Z</time>
      </trkpt>
      <trkpt lat="44.80423" lon="3.82832">
        <ele>1005.68</ele>
        <time>2025-12-14T09:45:12Z</time>
      </trkpt>
      <trkpt lat="44.80431" lon="3.82835">
        <ele>1010.48</ele>
        <time>2025-12-14T09:45:46Z</time>
      </trkpt>
      <trkpt lat="44.80426" lon="3.82834">
        <ele>1014.81</ele>
        <time>2025-12-14T09:46:22Z</time>
      </trkpt>
      <trkpt lat="44.80426" lon="3.82835">
        <ele>1015.77</ele>
        <time>2025-12-14T09:46:52Z</time>
      </trkpt>
      <trkpt lat="44.80425" lon="3.82833">
        <ele>1015.77</ele>
        <time>2025-12-14T09:47:24Z</time>
      </trkpt>
      <trkpt lat="44.80425" lon="3.82833">
        <ele>1014.33</ele>
        <time>2025-12-14T09:47:58Z</time>
      </trkpt>
      <trkpt lat="44.80423" lon="3.82832">
        <ele>1014.33</ele>
        <time>2025-12-14T09:48:25Z</time>
      </trkpt>
      <trkpt lat="44.80413" lon="3.8283">
        <ele>1013.85</ele>
        <time>2025-12-14T09:48:45Z</time>
      </trkpt>
      <trkpt lat="44.80388" lon="3.82824">
        <ele>1013.37</ele>
        <time>2025-12-14T09:49:07Z</time>
      </trkpt>
      <trkpt lat="44.80383" lon="3.82823">
        <ele>1011.93</ele>
        <time>2025-12-14T09:49:09Z</time>
      </trkpt>
      <trkpt lat="44.8038" lon="3.82823">
        <ele>1011.44</ele>
        <time>2025-12-14T09:49:10Z</time>
      </trkpt>
      <trkpt lat="44.8036" lon="3.82815">
        <ele>1009.52</ele>
        <time>2025-12-14T09:49:24Z</time>
      </trkpt>
      <trkpt lat="44.8034" lon="3.82811">
        <ele>1008.56</ele>
        <time>2025-12-14T09:49:38Z</time>
      </trkpt>
      <trkpt lat="44.80325" lon="3.82804">
        <ele>1007.6</ele>
        <time>2025-12-14T09:49:50Z</time>
      </trkpt>
      <trkpt lat="44.80306" lon="3.82797">
        <ele>1007.12</ele>
        <time>2025-12-14T09:50:03Z</time>
      </trkpt>
      <trkpt lat="44.80294" lon="3.82791">
        <ele>1007.12</ele>
        <time>2025-12-14T09:50:15Z</time>
      </trkpt>
      <trkpt lat="44.80282" lon="3.82784">
        <ele>1007.12</ele>
        <time>2025-12-14T09:50:25Z</time>
      </trkpt>
      <trkpt lat="44.80268" lon="3.82774">
        <ele>1007.6</ele>
        <time>2025-12-14T09:50:36Z</time>
      </trkpt>
      <trkpt lat="44.80258" lon="3.82764">
        <ele>1008.56</ele>
        <time>2025-12-14T09:50:46Z</time>
      </trkpt>
      <trkpt lat="44.80251" lon="3.82759">
        <ele>1009.04</ele>
        <time>2025-12-14T09:50:58Z</time>
      </trkpt>
      <trkpt lat="44.80236" lon="3.82747">
        <ele>1010</ele>
        <time>2025-12-14T09:51:12Z</time>
      </trkpt>
      <trkpt lat="44.80212" lon="3.82727">
        <ele>1011.93</ele>
        <time>2025-12-14T09:51:34Z</time>
      </trkpt>
      <trkpt lat="44.80186" lon="3.82714">
        <ele>1013.85</ele>
        <time>2025-12-14T09:51:57Z</time>
      </trkpt>
      <trkpt lat="44.80159" lon="3.82701">
        <ele>1014.81</ele>
        <time>2025-12-14T09:52:21Z</time>
      </trkpt>
      <trkpt lat="44.80135" lon="3.82694">
        <ele>1012.41</ele>
        <time>2025-12-14T09:52:43Z</time>
      </trkpt>
      <trkpt lat="44.80105" lon="3.82685">
        <ele>1008.08</ele>
        <time>2025-12-14T09:53:05Z</time>
      </trkpt>
      <trkpt lat="44.80066" lon="3.82676">
        <ele>1009.04</ele>
        <time>2025-12-14T09:53:29Z</time>
      </trkpt>
      <trkpt lat="44.8005" lon="3.82679">
        <ele>1009.04</ele>
        <time>2025-12-14T09:53:40Z</time>
      </trkpt>
      <trkpt lat="44.80037" lon="3.82673">
        <ele>1010</ele>
        <time>2025-12-14T09:53:52Z</time>
      </trkpt>
      <trkpt lat="44.80023" lon="3.8266">
        <ele>1008.56</ele>
        <time>2025-12-14T09:54:05Z</time>
      </trkpt>
      <trkpt lat="44.8001" lon="3.82646">
        <ele>1005.68</ele>
        <time>2025-12-14T09:54:20Z</time>
      </trkpt>
      <trkpt lat="44.79997" lon="3.82631">
        <ele>1004.23</ele>
        <time>2025-12-14T09:54:32Z</time>
      </trkpt>
      <trkpt lat="44.79985" lon="3.82617">
        <ele>1003.27</ele>
        <time>2025-12-14T09:54:44Z</time>
      </trkpt>
      <trkpt lat="44.79973" lon="3.82604">
        <ele>1002.31</ele>
        <time>2025-12-14T09:54:57Z</time>
      </trkpt>
      <trkpt lat="44.79957" lon="3.82586">
        <ele>1000.87</ele>
        <time>2025-12-14T09:55:11Z</time>
      </trkpt>
      <trkpt lat="44.79943" lon="3.82574">
        <ele>999.43</ele>
        <time>2025-12-14T09:55:24Z</time>
      </trkpt>
      <trkpt lat="44.7993" lon="3.82558">
        <ele>999.43</ele>
        <time>2025-12-14T09:55:36Z</time>
      </trkpt>
      <trkpt lat="44.79918" lon="3.82544">
        <ele>998.47</ele>
        <time>2025-12-14T09:55:47Z</time>
      </trkpt>
      <trkpt lat="44.79902" lon="3.82528">
        <ele>997.99</ele>
        <time>2025-12-14T09:56:01Z</time>
      </trkpt>
      <trkpt lat="44.79888" lon="3.82511">
        <ele>997.02</ele>
        <time>2025-12-14T09:56:13Z</time>
      </trkpt>
      <trkpt lat="44.79874" lon="3.82497">
        <ele>996.06</ele>
        <time>2025-12-14T09:56:25Z</time>
      </trkpt>
      <trkpt lat="44.79863" lon="3.82481">
        <ele>994.14</ele>
        <time>2025-12-14T09:56:37Z</time>
      </trkpt>
      <trkpt lat="44.79847" lon="3.8247">
        <ele>993.66</ele>
        <time>2025-12-14T09:56:50Z</time>
      </trkpt>
      <trkpt lat="44.79833" lon="3.82481">
        <ele>994.14</ele>
        <time>2025-12-14T09:57:02Z</time>
      </trkpt>
      <trkpt lat="44.7982" lon="3.82491">
        <ele>994.62</ele>
        <time>2025-12-14T09:57:13Z</time>
      </trkpt>
      <trkpt lat="44.79804" lon="3.82499">
        <ele>994.62</ele>
        <time>2025-12-14T09:57:25Z</time>
      </trkpt>
      <trkpt lat="44.79794" lon="3.82503">
        <ele>994.14</ele>
        <time>2025-12-14T09:57:33Z</time>
      </trkpt>
      <trkpt lat="44.79793" lon="3.82505">
        <ele>994.14</ele>
        <time>2025-12-14T09:57:34Z</time>
      </trkpt>
      <trkpt lat="44.79774" lon="3.82516">
        <ele>993.66</ele>
        <time>2025-12-14T09:57:48Z</time>
      </trkpt>
      <trkpt lat="44.79759" lon="3.82523">
        <ele>993.18</ele>
        <time>2025-12-14T09:58:00Z</time>
      </trkpt>
      <trkpt lat="44.79739" lon="3.82528">
        <ele>992.22</ele>
        <time>2025-12-14T09:58:13Z</time>
      </trkpt>
      <trkpt lat="44.79722" lon="3.82533">
        <ele>991.74</ele>
        <time>2025-12-14T09:58:26Z</time>
      </trkpt>
      <trkpt lat="44.79718" lon="3.82536">
        <ele>991.74</ele>
        <time>2025-12-14T09:58:30Z</time>
      </trkpt>
      <trkpt lat="44.79716" lon="3.82538">
        <ele>991.74</ele>
        <time>2025-12-14T09:58:32Z</time>
      </trkpt>
      <trkpt lat="44.79713" lon="3.82541">
        <ele>991.26</ele>
        <time>2025-12-14T09:58:35Z</time>
      </trkpt>
      <trkpt lat="44.79713" lon="3.82543">
        <ele>991.26</ele>
        <time>2025-12-14T09:58:36Z</time>
      </trkpt>
      <trkpt lat="44.79704" lon="3.82574">
        <ele>991.74</ele>
        <time>2025-12-14T09:58:50Z</time>
      </trkpt>
      <trkpt lat="44.79702" lon="3.82575">
        <ele>991.26</ele>
        <time>2025-12-14T09:58:53Z</time>
      </trkpt>
      <trkpt lat="44.79701" lon="3.82575">
        <ele>991.26</ele>
        <time>2025-12-14T09:58:54Z</time>
      </trkpt>
      <trkpt lat="44.797" lon="3.82575">
        <ele>990.78</ele>
        <time>2025-12-14T09:58:55Z</time>
      </trkpt>
      <trkpt lat="44.79698" lon="3.82574">
        <ele>990.78</ele>
        <time>2025-12-14T09:58:56Z</time>
      </trkpt>
      <trkpt lat="44.79697" lon="3.82573">
        <ele>990.78</ele>
        <time>2025-12-14T09:58:57Z</time>
      </trkpt>
      <trkpt lat="44.79696" lon="3.82572">
        <ele>990.3</ele>
        <time>2025-12-14T09:58:58Z</time>
      </trkpt>
      <trkpt lat="44.79695" lon="3.8257">
        <ele>990.3</ele>
        <time>2025-12-14T09:58:59Z</time>
      </trkpt>
      <trkpt lat="44.7969" lon="3.82551">
        <ele>987.41</ele>
        <time>2025-12-14T09:59:10Z</time>
      </trkpt>
      <trkpt lat="44.79683" lon="3.82529">
        <ele>983.57</ele>
        <time>2025-12-14T09:59:25Z</time>
      </trkpt>
      <trkpt lat="44.7968" lon="3.82527">
        <ele>983.57</ele>
        <time>2025-12-14T09:59:28Z</time>
      </trkpt>
      <trkpt lat="44.79677" lon="3.82526">
        <ele>983.57</ele>
        <time>2025-12-14T09:59:30Z</time>
      </trkpt>
      <trkpt lat="44.79676" lon="3.82525">
        <ele>983.57</ele>
        <time>2025-12-14T09:59:31Z</time>
      </trkpt>
      <trkpt lat="44.79674" lon="3.82524">
        <ele>983.57</ele>
        <time>2025-12-14T09:59:33Z</time>
      </trkpt>
      <trkpt lat="44.79673" lon="3.82525">
        <ele>983.57</ele>
        <time>2025-12-14T09:59:34Z</time>
      </trkpt>
      <trkpt lat="44.79672" lon="3.82525">
        <ele>983.57</ele>
        <time>2025-12-14T09:59:35Z</time>
      </trkpt>
      <trkpt lat="44.7967" lon="3.82526">
        <ele>983.57</ele>
        <time>2025-12-14T09:59:36Z</time>
      </trkpt>
      <trkpt lat="44.79669" lon="3.82527">
        <ele>984.05</ele>
        <time>2025-12-14T09:59:37Z</time>
      </trkpt>
      <trkpt lat="44.79656" lon="3.8254">
        <ele>985.49</ele>
        <time>2025-12-14T09:59:50Z</time>
      </trkpt>
      <trkpt lat="44.79643" lon="3.82556">
        <ele>986.93</ele>
        <time>2025-12-14T10:00:03Z</time>
      </trkpt>
      <trkpt lat="44.79627" lon="3.82575">
        <ele>986.93</ele>
        <time>2025-12-14T10:00:14Z</time>
      </trkpt>
      <trkpt lat="44.79612" lon="3.82591">
        <ele>986.93</ele>
        <time>2025-12-14T10:00:27Z</time>
      </trkpt>
      <trkpt lat="44.79603" lon="3.82605">
        <ele>986.93</ele>
        <time>2025-12-14T10:00:40Z</time>
      </trkpt>
      <trkpt lat="44.79594" lon="3.82632">
        <ele>985.01</ele>
        <time>2025-12-14T10:00:53Z</time>
      </trkpt>
      <trkpt lat="44.79586" lon="3.82663">
        <ele>985.97</ele>
        <time>2025-12-14T10:01:06Z</time>
      </trkpt>
      <trkpt lat="44.79581" lon="3.8269">
        <ele>987.89</ele>
        <time>2025-12-14T10:01:20Z</time>
      </trkpt>
      <trkpt lat="44.79575" lon="3.8271">
        <ele>986.93</ele>
        <time>2025-12-14T10:01:33Z</time>
      </trkpt>
      <trkpt lat="44.79569" lon="3.82736">
        <ele>987.41</ele>
        <time>2025-12-14T10:01:44Z</time>
      </trkpt>
      <trkpt lat="44.79567" lon="3.82744">
        <ele>987.41</ele>
        <time>2025-12-14T10:01:48Z</time>
      </trkpt>
      <trkpt lat="44.79567" lon="3.82746">
        <ele>987.41</ele>
        <time>2025-12-14T10:01:49Z</time>
      </trkpt>
      <trkpt lat="44.79566" lon="3.82748">
        <ele>987.41</ele>
        <time>2025-12-14T10:01:50Z</time>
      </trkpt>
      <trkpt lat="44.79566" lon="3.82751">
        <ele>987.41</ele>
        <time>2025-12-14T10:01:51Z</time>
      </trkpt>
      <trkpt lat="44.79565" lon="3.82753">
        <ele>987.41</ele>
        <time>2025-12-14T10:01:52Z</time>
      </trkpt>
      <trkpt lat="44.79561" lon="3.8277">
        <ele>987.41</ele>
        <time>2025-12-14T10:02:03Z</time>
      </trkpt>
      <trkpt lat="44.79558" lon="3.828">
        <ele>987.89</ele>
        <time>2025-12-14T10:02:15Z</time>
      </trkpt>
      <trkpt lat="44.79561" lon="3.82818">
        <ele>988.85</ele>
        <time>2025-12-14T10:02:25Z</time>
      </trkpt>
      <trkpt lat="44.79573" lon="3.82838">
        <ele>989.81</ele>
        <time>2025-12-14T10:02:38Z</time>
      </trkpt>
      <trkpt lat="44.79584" lon="3.82844">
        <ele>990.3</ele>
        <time>2025-12-14T10:02:45Z</time>
      </trkpt>
      <trkpt lat="44.79586" lon="3.82845">
        <ele>990.3</ele>
        <time>2025-12-14T10:02:46Z</time>
      </trkpt>
      <trkpt lat="44.79587" lon="3.82846">
        <ele>989.81</ele>
        <time>2025-12-14T10:02:47Z</time>
      </trkpt>
      <trkpt lat="44.79606" lon="3.82859">
        <ele>987.89</ele>
        <time>2025-12-14T10:03:02Z</time>
      </trkpt>
      <trkpt lat="44.79622" lon="3.8287">
        <ele>986.93</ele>
        <time>2025-12-14T10:03:15Z</time>
      </trkpt>
      <trkpt lat="44.79634" lon="3.82881">
        <ele>985.49</ele>
        <time>2025-12-14T10:03:27Z</time>
      </trkpt>
      <trkpt lat="44.79652" lon="3.82898">
        <ele>982.6</ele>
        <time>2025-12-14T10:03:41Z</time>
      </trkpt>
      <trkpt lat="44.79665" lon="3.82919">
        <ele>980.68</ele>
        <time>2025-12-14T10:03:53Z</time>
      </trkpt>
      <trkpt lat="44.79676" lon="3.82943">
        <ele>979.72</ele>
        <time>2025-12-14T10:04:07Z</time>
      </trkpt>
      <trkpt lat="44.79684" lon="3.82964">
        <ele>980.68</ele>
        <time>2025-12-14T10:04:19Z</time>
      </trkpt>
      <trkpt lat="44.79684" lon="3.82965">
        <ele>981.16</ele>
        <time>2025-12-14T10:04:20Z</time>
      </trkpt>
      <trkpt lat="44.79691" lon="3.82989">
        <ele>982.12</ele>
        <time>2025-12-14T10:04:33Z</time>
      </trkpt>
      <trkpt lat="44.79691" lon="3.82994">
        <ele>981.64</ele>
        <time>2025-12-14T10:04:36Z</time>
      </trkpt>
      <trkpt lat="44.79683" lon="3.83013">
        <ele>979.72</ele>
        <time>2025-12-14T10:04:48Z</time>
      </trkpt>
      <trkpt lat="44.79681" lon="3.83015">
        <ele>978.76</ele>
        <time>2025-12-14T10:04:50Z</time>
      </trkpt>
      <trkpt lat="44.79679" lon="3.83016">
        <ele>978.76</ele>
        <time>2025-12-14T10:04:51Z</time>
      </trkpt>
      <trkpt lat="44.79661" lon="3.83015">
        <ele>976.84</ele>
        <time>2025-12-14T10:05:05Z</time>
      </trkpt>
      <trkpt lat="44.79642" lon="3.8301">
        <ele>976.36</ele>
        <time>2025-12-14T10:05:16Z</time>
      </trkpt>
      <trkpt lat="44.79622" lon="3.83006">
        <ele>978.76</ele>
        <time>2025-12-14T10:05:27Z</time>
      </trkpt>
      <trkpt lat="44.79606" lon="3.82996">
        <ele>980.68</ele>
        <time>2025-12-14T10:05:40Z</time>
      </trkpt>
      <trkpt lat="44.7959" lon="3.82985">
        <ele>982.6</ele>
        <time>2025-12-14T10:05:53Z</time>
      </trkpt>
      <trkpt lat="44.79575" lon="3.82978">
        <ele>984.05</ele>
        <time>2025-12-14T10:06:03Z</time>
      </trkpt>
      <trkpt lat="44.79564" lon="3.8298">
        <ele>984.05</ele>
        <time>2025-12-14T10:06:10Z</time>
      </trkpt>
      <trkpt lat="44.79557" lon="3.82983">
        <ele>984.05</ele>
        <time>2025-12-14T10:06:15Z</time>
      </trkpt>
      <trkpt lat="44.79556" lon="3.82984">
        <ele>984.05</ele>
        <time>2025-12-14T10:06:16Z</time>
      </trkpt>
      <trkpt lat="44.79537" lon="3.83003">
        <ele>985.01</ele>
        <time>2025-12-14T10:06:34Z</time>
      </trkpt>
      <trkpt lat="44.79535" lon="3.83002">
        <ele>985.01</ele>
        <time>2025-12-14T10:06:37Z</time>
      </trkpt>
      <trkpt lat="44.79533" lon="3.83002">
        <ele>984.53</ele>
        <time>2025-12-14T10:06:38Z</time>
      </trkpt>
      <trkpt lat="44.79532" lon="3.83002">
        <ele>984.53</ele>
        <time>2025-12-14T10:06:39Z</time>
      </trkpt>
      <trkpt lat="44.7953" lon="3.83002">
        <ele>984.53</ele>
        <time>2025-12-14T10:06:40Z</time>
      </trkpt>
      <trkpt lat="44.79528" lon="3.83002">
        <ele>984.05</ele>
        <time>2025-12-14T10:06:41Z</time>
      </trkpt>
      <trkpt lat="44.79523" lon="3.83004">
        <ele>983.09</ele>
        <time>2025-12-14T10:06:46Z</time>
      </trkpt>
      <trkpt lat="44.79522" lon="3.83005">
        <ele>983.09</ele>
        <time>2025-12-14T10:06:47Z</time>
      </trkpt>
      <trkpt lat="44.7952" lon="3.83005">
        <ele>983.09</ele>
        <time>2025-12-14T10:06:48Z</time>
      </trkpt>
      <trkpt lat="44.79519" lon="3.83006">
        <ele>983.09</ele>
        <time>2025-12-14T10:06:49Z</time>
      </trkpt>
      <trkpt lat="44.79517" lon="3.83007">
        <ele>983.09</ele>
        <time>2025-12-14T10:06:50Z</time>
      </trkpt>
      <trkpt lat="44.79516" lon="3.83008">
        <ele>982.6</ele>
        <time>2025-12-14T10:06:51Z</time>
      </trkpt>
      <trkpt lat="44.79509" lon="3.8301">
        <ele>982.12</ele>
        <time>2025-12-14T10:06:57Z</time>
      </trkpt>
      <trkpt lat="44.79508" lon="3.83011">
        <ele>982.12</ele>
        <time>2025-12-14T10:06:58Z</time>
      </trkpt>
      <trkpt lat="44.79489" lon="3.83012">
        <ele>980.2</ele>
        <time>2025-12-14T10:07:12Z</time>
      </trkpt>
      <trkpt lat="44.79485" lon="3.8301">
        <ele>979.72</ele>
        <time>2025-12-14T10:07:14Z</time>
      </trkpt>
      <trkpt lat="44.79483" lon="3.83007">
        <ele>978.76</ele>
        <time>2025-12-14T10:07:18Z</time>
      </trkpt>
      <trkpt lat="44.79472" lon="3.82993">
        <ele>976.36</ele>
        <time>2025-12-14T10:07:31Z</time>
      </trkpt>
      <trkpt lat="44.79465" lon="3.82976">
        <ele>974.43</ele>
        <time>2025-12-14T10:07:41Z</time>
      </trkpt>
      <trkpt lat="44.79461" lon="3.82971">
        <ele>973.47</ele>
        <time>2025-12-14T10:07:45Z</time>
      </trkpt>
      <trkpt lat="44.79458" lon="3.82966">
        <ele>972.03</ele>
        <time>2025-12-14T10:07:50Z</time>
      </trkpt>
      <trkpt lat="44.79436" lon="3.82958">
        <ele>969.63</ele>
        <time>2025-12-14T10:08:05Z</time>
      </trkpt>
      <trkpt lat="44.79423" lon="3.82965">
        <ele>970.11</ele>
        <time>2025-12-14T10:08:15Z</time>
      </trkpt>
      <trkpt lat="44.79419" lon="3.82972">
        <ele>970.59</ele>
        <time>2025-12-14T10:08:20Z</time>
      </trkpt>
      <trkpt lat="44.79411" lon="3.82985">
        <ele>970.59</ele>
        <time>2025-12-14T10:08:31Z</time>
      </trkpt>
      <trkpt lat="44.79397" lon="3.82994">
        <ele>970.59</ele>
        <time>2025-12-14T10:08:42Z</time>
      </trkpt>
      <trkpt lat="44.79389" lon="3.82995">
        <ele>970.59</ele>
        <time>2025-12-14T10:08:48Z</time>
      </trkpt>
      <trkpt lat="44.79372" lon="3.82987">
        <ele>969.63</ele>
        <time>2025-12-14T10:09:01Z</time>
      </trkpt>
      <trkpt lat="44.79368" lon="3.82983">
        <ele>968.67</ele>
        <time>2025-12-14T10:09:18Z</time>
      </trkpt>
      <trkpt lat="44.79368" lon="3.82983">
        <ele>967.7</ele>
        <time>2025-12-14T10:09:43Z</time>
      </trkpt>
      <trkpt lat="44.79369" lon="3.82981">
        <ele>967.22</ele>
        <time>2025-12-14T10:10:01Z</time>
      </trkpt>
      <trkpt lat="44.7937" lon="3.82987">
        <ele>963.86</ele>
        <time>2025-12-14T10:10:18Z</time>
      </trkpt>
      <trkpt lat="44.7937" lon="3.82986">
        <ele>962.42</ele>
        <time>2025-12-14T10:10:41Z</time>
      </trkpt>
      <trkpt lat="44.7937" lon="3.82985">
        <ele>960.98</ele>
        <time>2025-12-14T10:11:05Z</time>
      </trkpt>
      <trkpt lat="44.79373" lon="3.82984">
        <ele>961.46</ele>
        <time>2025-12-14T10:11:20Z</time>
      </trkpt>
      <trkpt lat="44.79371" lon="3.82985">
        <ele>960.98</ele>
        <time>2025-12-14T10:11:33Z</time>
      </trkpt>
      <trkpt lat="44.7937" lon="3.82979">
        <ele>958.09</ele>
        <time>2025-12-14T10:12:12Z</time>
      </trkpt>
      <trkpt lat="44.79371" lon="3.82982">
        <ele>959.53</ele>
        <time>2025-12-14T10:12:42Z</time>
      </trkpt>
      <trkpt lat="44.79371" lon="3.82983">
        <ele>961.46</ele>
        <time>2025-12-14T10:13:17Z</time>
      </trkpt>
      <trkpt lat="44.7937" lon="3.82982">
        <ele>962.9</ele>
        <time>2025-12-14T10:13:47Z</time>
      </trkpt>
      <trkpt lat="44.79368" lon="3.82979">
        <ele>963.86</ele>
        <time>2025-12-14T10:14:16Z</time>
      </trkpt>
      <trkpt lat="44.7937" lon="3.82979">
        <ele>962.9</ele>
        <time>2025-12-14T10:14:46Z</time>
      </trkpt>
      <trkpt lat="44.79369" lon="3.82978">
        <ele>962.9</ele>
        <time>2025-12-14T10:14:54Z</time>
      </trkpt>
      <trkpt lat="44.7936" lon="3.82977">
        <ele>963.38</ele>
        <time>2025-12-14T10:14:59Z</time>
      </trkpt>
      <trkpt lat="44.79349" lon="3.82964">
        <ele>962.42</ele>
        <time>2025-12-14T10:15:13Z</time>
      </trkpt>
      <trkpt lat="44.79322" lon="3.82957">
        <ele>959.05</ele>
        <time>2025-12-14T10:15:34Z</time>
      </trkpt>
      <trkpt lat="44.79321" lon="3.82956">
        <ele>958.57</ele>
        <time>2025-12-14T10:15:35Z</time>
      </trkpt>
      <trkpt lat="44.79307" lon="3.8295">
        <ele>957.13</ele>
        <time>2025-12-14T10:15:44Z</time>
      </trkpt>
      <trkpt lat="44.79298" lon="3.82949">
        <ele>956.65</ele>
        <time>2025-12-14T10:15:49Z</time>
      </trkpt>
      <trkpt lat="44.79276" lon="3.82943">
        <ele>956.17</ele>
        <time>2025-12-14T10:16:05Z</time>
      </trkpt>
      <trkpt lat="44.79267" lon="3.8294">
        <ele>955.69</ele>
        <time>2025-12-14T10:16:23Z</time>
      </trkpt>
      <trkpt lat="44.79253" lon="3.82929">
        <ele>955.69</ele>
        <time>2025-12-14T10:16:42Z</time>
      </trkpt>
      <trkpt lat="44.79228" lon="3.82911">
        <ele>953.77</ele>
        <time>2025-12-14T10:17:04Z</time>
      </trkpt>
      <trkpt lat="44.792" lon="3.8289">
        <ele>951.84</ele>
        <time>2025-12-14T10:17:27Z</time>
      </trkpt>
      <trkpt lat="44.79173" lon="3.82868">
        <ele>950.88</ele>
        <time>2025-12-14T10:17:50Z</time>
      </trkpt>
      <trkpt lat="44.7915" lon="3.82851">
        <ele>951.36</ele>
        <time>2025-12-14T10:18:11Z</time>
      </trkpt>
      <trkpt lat="44.7913" lon="3.82835">
        <ele>946.56</ele>
        <time>2025-12-14T10:18:27Z</time>
      </trkpt>
      <trkpt lat="44.79112" lon="3.82821">
        <ele>943.67</ele>
        <time>2025-12-14T10:18:41Z</time>
      </trkpt>
      <trkpt lat="44.79095" lon="3.82809">
        <ele>942.23</ele>
        <time>2025-12-14T10:18:53Z</time>
      </trkpt>
      <trkpt lat="44.79089" lon="3.82804">
        <ele>941.75</ele>
        <time>2025-12-14T10:19:00Z</time>
      </trkpt>
      <trkpt lat="44.79082" lon="3.82797">
        <ele>942.23</ele>
        <time>2025-12-14T10:19:06Z</time>
      </trkpt>
      <trkpt lat="44.79078" lon="3.82792">
        <ele>941.27</ele>
        <time>2025-12-14T10:19:12Z</time>
      </trkpt>
      <trkpt lat="44.79059" lon="3.82771">
        <ele>939.35</ele>
        <time>2025-12-14T10:19:30Z</time>
      </trkpt>
      <trkpt lat="44.7904" lon="3.8275">
        <ele>937.9</ele>
        <time>2025-12-14T10:19:47Z</time>
      </trkpt>
      <trkpt lat="44.79019" lon="3.82728">
        <ele>936.46</ele>
        <time>2025-12-14T10:20:08Z</time>
      </trkpt>
      <trkpt lat="44.79003" lon="3.82712">
        <ele>935.5</ele>
        <time>2025-12-14T10:20:24Z</time>
      </trkpt>
      <trkpt lat="44.7899" lon="3.82694">
        <ele>934.06</ele>
        <time>2025-12-14T10:20:41Z</time>
      </trkpt>
      <trkpt lat="44.78981" lon="3.82685">
        <ele>933.58</ele>
        <time>2025-12-14T10:20:56Z</time>
      </trkpt>
      <trkpt lat="44.78971" lon="3.82697">
        <ele>933.58</ele>
        <time>2025-12-14T10:21:13Z</time>
      </trkpt>
      <trkpt lat="44.78969" lon="3.82713">
        <ele>935.02</ele>
        <time>2025-12-14T10:21:30Z</time>
      </trkpt>
      <trkpt lat="44.78963" lon="3.82707">
        <ele>934.54</ele>
        <time>2025-12-14T10:21:45Z</time>
      </trkpt>
      <trkpt lat="44.78956" lon="3.82721">
        <ele>934.06</ele>
        <time>2025-12-14T10:22:04Z</time>
      </trkpt>
      <trkpt lat="44.78948" lon="3.82733">
        <ele>934.54</ele>
        <time>2025-12-14T10:22:15Z</time>
      </trkpt>
      <trkpt lat="44.78932" lon="3.82757">
        <ele>935.98</ele>
        <time>2025-12-14T10:22:36Z</time>
      </trkpt>
      <trkpt lat="44.78926" lon="3.82768">
        <ele>936.94</ele>
        <time>2025-12-14T10:22:55Z</time>
      </trkpt>
      <trkpt lat="44.78926" lon="3.82771">
        <ele>938.38</ele>
        <time>2025-12-14T10:23:19Z</time>
      </trkpt>
      <trkpt lat="44.78916" lon="3.82792">
        <ele>938.86</ele>
        <time>2025-12-14T10:23:36Z</time>
      </trkpt>
      <trkpt lat="44.78906" lon="3.82812">
        <ele>939.83</ele>
        <time>2025-12-14T10:23:55Z</time>
      </trkpt>
      <trkpt lat="44.78898" lon="3.82814">
        <ele>936.46</ele>
        <time>2025-12-14T10:24:02Z</time>
      </trkpt>
      <trkpt lat="44.78894" lon="3.82821">
        <ele>936.46</ele>
        <time>2025-12-14T10:24:06Z</time>
      </trkpt>
      <trkpt lat="44.78894" lon="3.82823">
        <ele>936.46</ele>
        <time>2025-12-14T10:24:07Z</time>
      </trkpt>
      <trkpt lat="44.78893" lon="3.82824">
        <ele>936.94</ele>
        <time>2025-12-14T10:24:08Z</time>
      </trkpt>
      <trkpt lat="44.78887" lon="3.82842">
        <ele>937.42</ele>
        <time>2025-12-14T10:24:19Z</time>
      </trkpt>
      <trkpt lat="44.7888" lon="3.82857">
        <ele>937.42</ele>
        <time>2025-12-14T10:24:30Z</time>
      </trkpt>
      <trkpt lat="44.78873" lon="3.82867">
        <ele>937.9</ele>
        <time>2025-12-14T10:24:37Z</time>
      </trkpt>
      <trkpt lat="44.78872" lon="3.82868">
        <ele>937.9</ele>
        <time>2025-12-14T10:24:39Z</time>
      </trkpt>
      <trkpt lat="44.78861" lon="3.82882">
        <ele>937.9</ele>
        <time>2025-12-14T10:24:49Z</time>
      </trkpt>
      <trkpt lat="44.78853" lon="3.82894">
        <ele>939.83</ele>
        <time>2025-12-14T10:24:59Z</time>
      </trkpt>
      <trkpt lat="44.78844" lon="3.82907">
        <ele>941.27</ele>
        <time>2025-12-14T10:25:09Z</time>
      </trkpt>
      <trkpt lat="44.78832" lon="3.82918">
        <ele>943.19</ele>
        <time>2025-12-14T10:25:19Z</time>
      </trkpt>
      <trkpt lat="44.78824" lon="3.82924">
        <ele>945.11</ele>
        <time>2025-12-14T10:25:27Z</time>
      </trkpt>
      <trkpt lat="44.78813" lon="3.82931">
        <ele>947.04</ele>
        <time>2025-12-14T10:25:37Z</time>
      </trkpt>
      <trkpt lat="44.78795" lon="3.82942">
        <ele>947.04</ele>
        <time>2025-12-14T10:25:49Z</time>
      </trkpt>
      <trkpt lat="44.78776" lon="3.82957">
        <ele>946.07</ele>
        <time>2025-12-14T10:26:02Z</time>
      </trkpt>
      <trkpt lat="44.78763" lon="3.82963">
        <ele>946.07</ele>
        <time>2025-12-14T10:26:13Z</time>
      </trkpt>
      <trkpt lat="44.78749" lon="3.82971">
        <ele>945.59</ele>
        <time>2025-12-14T10:26:24Z</time>
      </trkpt>
      <trkpt lat="44.78739" lon="3.82978">
        <ele>945.59</ele>
        <time>2025-12-14T10:26:33Z</time>
      </trkpt>
      <trkpt lat="44.78726" lon="3.82985">
        <ele>945.59</ele>
        <time>2025-12-14T10:26:43Z</time>
      </trkpt>
      <trkpt lat="44.78711" lon="3.82995">
        <ele>946.56</ele>
        <time>2025-12-14T10:26:54Z</time>
      </trkpt>
      <trkpt lat="44.78698" lon="3.83008">
        <ele>948</ele>
        <time>2025-12-14T10:27:07Z</time>
      </trkpt>
      <trkpt lat="44.78686" lon="3.83017">
        <ele>947.04</ele>
        <time>2025-12-14T10:27:17Z</time>
      </trkpt>
      <trkpt lat="44.78673" lon="3.83026">
        <ele>948</ele>
        <time>2025-12-14T10:27:28Z</time>
      </trkpt>
      <trkpt lat="44.7867" lon="3.8303">
        <ele>948.96</ele>
        <time>2025-12-14T10:27:31Z</time>
      </trkpt>
      <trkpt lat="44.78669" lon="3.83031">
        <ele>948.96</ele>
        <time>2025-12-14T10:27:32Z</time>
      </trkpt>
      <trkpt lat="44.78669" lon="3.83032">
        <ele>948.96</ele>
        <time>2025-12-14T10:27:33Z</time>
      </trkpt>
      <trkpt lat="44.78658" lon="3.83041">
        <ele>948</ele>
        <time>2025-12-14T10:27:44Z</time>
      </trkpt>
      <trkpt lat="44.78641" lon="3.83053">
        <ele>949.44</ele>
        <time>2025-12-14T10:27:56Z</time>
      </trkpt>
      <trkpt lat="44.78629" lon="3.83062">
        <ele>950.88</ele>
        <time>2025-12-14T10:28:07Z</time>
      </trkpt>
      <trkpt lat="44.78617" lon="3.8307">
        <ele>953.28</ele>
        <time>2025-12-14T10:28:17Z</time>
      </trkpt>
      <trkpt lat="44.78605" lon="3.83077">
        <ele>955.69</ele>
        <time>2025-12-14T10:28:28Z</time>
      </trkpt>
      <trkpt lat="44.78595" lon="3.83087">
        <ele>958.57</ele>
        <time>2025-12-14T10:28:37Z</time>
      </trkpt>
      <trkpt lat="44.78583" lon="3.83095">
        <ele>957.13</ele>
        <time>2025-12-14T10:28:47Z</time>
      </trkpt>
      <trkpt lat="44.78579" lon="3.831">
        <ele>956.65</ele>
        <time>2025-12-14T10:28:50Z</time>
      </trkpt>
      <trkpt lat="44.78577" lon="3.831">
        <ele>956.65</ele>
        <time>2025-12-14T10:28:51Z</time>
      </trkpt>
      <trkpt lat="44.78576" lon="3.83101">
        <ele>956.65</ele>
        <time>2025-12-14T10:28:52Z</time>
      </trkpt>
      <trkpt lat="44.78575" lon="3.83102">
        <ele>956.65</ele>
        <time>2025-12-14T10:28:53Z</time>
      </trkpt>
      <trkpt lat="44.78573" lon="3.83103">
        <ele>956.65</ele>
        <time>2025-12-14T10:28:54Z</time>
      </trkpt>
      <trkpt lat="44.78551" lon="3.83114">
        <ele>957.13</ele>
        <time>2025-12-14T10:29:12Z</time>
      </trkpt>
      <trkpt lat="44.78525" lon="3.83121">
        <ele>958.09</ele>
        <time>2025-12-14T10:29:30Z</time>
      </trkpt>
      <trkpt lat="44.78507" lon="3.83124">
        <ele>959.05</ele>
        <time>2025-12-14T10:29:44Z</time>
      </trkpt>
      <trkpt lat="44.78493" lon="3.83125">
        <ele>960.01</ele>
        <time>2025-12-14T10:29:54Z</time>
      </trkpt>
      <trkpt lat="44.78476" lon="3.8313">
        <ele>961.46</ele>
        <time>2025-12-14T10:30:07Z</time>
      </trkpt>
      <trkpt lat="44.78457" lon="3.83135">
        <ele>961.46</ele>
        <time>2025-12-14T10:30:21Z</time>
      </trkpt>
      <trkpt lat="44.78439" lon="3.83137">
        <ele>961.46</ele>
        <time>2025-12-14T10:30:35Z</time>
      </trkpt>
      <trkpt lat="44.78423" lon="3.83141">
        <ele>960.98</ele>
        <time>2025-12-14T10:30:46Z</time>
      </trkpt>
      <trkpt lat="44.78414" lon="3.83142">
        <ele>961.94</ele>
        <time>2025-12-14T10:31:00Z</time>
      </trkpt>
      <trkpt lat="44.78414" lon="3.83142">
        <ele>962.42</ele>
        <time>2025-12-14T10:31:04Z</time>
      </trkpt>
      <trkpt lat="44.78414" lon="3.83142">
        <ele>962.9</ele>
        <time>2025-12-14T10:31:13Z</time>
      </trkpt>
      <trkpt lat="44.78414" lon="3.83144">
        <ele>963.38</ele>
        <time>2025-12-14T10:31:37Z</time>
      </trkpt>
      <trkpt lat="44.78415" lon="3.83144">
        <ele>962.9</ele>
        <time>2025-12-14T10:32:02Z</time>
      </trkpt>
      <trkpt lat="44.78413" lon="3.8314">
        <ele>962.9</ele>
        <time>2025-12-14T10:32:27Z</time>
      </trkpt>
      <trkpt lat="44.78411" lon="3.83132">
        <ele>963.38</ele>
        <time>2025-12-14T10:32:33Z</time>
      </trkpt>
      <trkpt lat="44.78411" lon="3.83115">
        <ele>963.38</ele>
        <time>2025-12-14T10:32:46Z</time>
      </trkpt>
      <trkpt lat="44.78412" lon="3.83086">
        <ele>961.94</ele>
        <time>2025-12-14T10:33:01Z</time>
      </trkpt>
      <trkpt lat="44.78414" lon="3.83059">
        <ele>960.01</ele>
        <time>2025-12-14T10:33:16Z</time>
      </trkpt>
      <trkpt lat="44.78414" lon="3.83025">
        <ele>958.57</ele>
        <time>2025-12-14T10:33:33Z</time>
      </trkpt>
      <trkpt lat="44.78414" lon="3.82998">
        <ele>958.57</ele>
        <time>2025-12-14T10:33:47Z</time>
      </trkpt>
      <trkpt lat="44.78416" lon="3.82969">
        <ele>959.05</ele>
        <time>2025-12-14T10:34:02Z</time>
      </trkpt>
      <trkpt lat="44.78417" lon="3.82947">
        <ele>958.57</ele>
        <time>2025-12-14T10:34:13Z</time>
      </trkpt>
      <trkpt lat="44.78417" lon="3.82934">
        <ele>958.09</ele>
        <time>2025-12-14T10:34:21Z</time>
      </trkpt>
      <trkpt lat="44.78418" lon="3.82917">
        <ele>956.65</ele>
        <time>2025-12-14T10:34:35Z</time>
      </trkpt>
      <trkpt lat="44.78418" lon="3.829">
        <ele>955.69</ele>
        <time>2025-12-14T10:34:47Z</time>
      </trkpt>
      <trkpt lat="44.78418" lon="3.82898">
        <ele>955.69</ele>
        <time>2025-12-14T10:34:48Z</time>
      </trkpt>
      <trkpt lat="44.78418" lon="3.82897">
        <ele>955.69</ele>
        <time>2025-12-14T10:34:49Z</time>
      </trkpt>
      <trkpt lat="44.78419" lon="3.82865">
        <ele>954.73</ele>
        <time>2025-12-14T10:35:07Z</time>
      </trkpt>
      <trkpt lat="44.78421" lon="3.82834">
        <ele>953.77</ele>
        <time>2025-12-14T10:35:24Z</time>
      </trkpt>
      <trkpt lat="44.78421" lon="3.82806">
        <ele>954.25</ele>
        <time>2025-12-14T10:35:40Z</time>
      </trkpt>
      <trkpt lat="44.78424" lon="3.82772">
        <ele>954.25</ele>
        <time>2025-12-14T10:35:56Z</time>
      </trkpt>
      <trkpt lat="44.78429" lon="3.82733">
        <ele>952.8</ele>
        <time>2025-12-14T10:36:17Z</time>
      </trkpt>
      <trkpt lat="44.78436" lon="3.82699">
        <ele>951.36</ele>
        <time>2025-12-14T10:36:37Z</time>
      </trkpt>
      <trkpt lat="44.78454" lon="3.82671">
        <ele>946.56</ele>
        <time>2025-12-14T10:36:56Z</time>
      </trkpt>
      <trkpt lat="44.78475" lon="3.82641">
        <ele>951.36</ele>
        <time>2025-12-14T10:37:16Z</time>
      </trkpt>
      <trkpt lat="44.78494" lon="3.82605">
        <ele>951.36</ele>
        <time>2025-12-14T10:37:38Z</time>
      </trkpt>
      <trkpt lat="44.78506" lon="3.82571">
        <ele>948.48</ele>
        <time>2025-12-14T10:37:58Z</time>
      </trkpt>
      <trkpt lat="44.78518" lon="3.82537">
        <ele>948.96</ele>
        <time>2025-12-14T10:38:17Z</time>
      </trkpt>
      <trkpt lat="44.78528" lon="3.82502">
        <ele>948</ele>
        <time>2025-12-14T10:38:37Z</time>
      </trkpt>
      <trkpt lat="44.7854" lon="3.82463">
        <ele>945.59</ele>
        <time>2025-12-14T10:38:59Z</time>
      </trkpt>
      <trkpt lat="44.78556" lon="3.82438">
        <ele>945.11</ele>
        <time>2025-12-14T10:39:19Z</time>
      </trkpt>
      <trkpt lat="44.78574" lon="3.82405">
        <ele>946.07</ele>
        <time>2025-12-14T10:39:40Z</time>
      </trkpt>
      <trkpt lat="44.78595" lon="3.82374">
        <ele>944.63</ele>
        <time>2025-12-14T10:40:02Z</time>
      </trkpt>
      <trkpt lat="44.78617" lon="3.82346">
        <ele>943.67</ele>
        <time>2025-12-14T10:40:23Z</time>
      </trkpt>
      <trkpt lat="44.78636" lon="3.82313">
        <ele>943.67</ele>
        <time>2025-12-14T10:40:44Z</time>
      </trkpt>
      <trkpt lat="44.78648" lon="3.82281">
        <ele>942.23</ele>
        <time>2025-12-14T10:41:04Z</time>
      </trkpt>
      <trkpt lat="44.78648" lon="3.82279">
        <ele>942.23</ele>
        <time>2025-12-14T10:41:05Z</time>
      </trkpt>
      <trkpt lat="44.78648" lon="3.82277">
        <ele>942.71</ele>
        <time>2025-12-14T10:41:06Z</time>
      </trkpt>
      <trkpt lat="44.78649" lon="3.82276">
        <ele>942.71</ele>
        <time>2025-12-14T10:41:07Z</time>
      </trkpt>
      <trkpt lat="44.7865" lon="3.82274">
        <ele>942.23</ele>
        <time>2025-12-14T10:41:08Z</time>
      </trkpt>
      <trkpt lat="44.7865" lon="3.82272">
        <ele>942.23</ele>
        <time>2025-12-14T10:41:09Z</time>
      </trkpt>
      <trkpt lat="44.78651" lon="3.82271">
        <ele>941.75</ele>
        <time>2025-12-14T10:41:10Z</time>
      </trkpt>
      <trkpt lat="44.7865" lon="3.82256">
        <ele>937.42</ele>
        <time>2025-12-14T10:41:27Z</time>
      </trkpt>
      <trkpt lat="44.78649" lon="3.82254">
        <ele>937.42</ele>
        <time>2025-12-14T10:41:28Z</time>
      </trkpt>
      <trkpt lat="44.78643" lon="3.82229">
        <ele>935.02</ele>
        <time>2025-12-14T10:41:45Z</time>
      </trkpt>
      <trkpt lat="44.78647" lon="3.82203">
        <ele>933.1</ele>
        <time>2025-12-14T10:42:04Z</time>
      </trkpt>
      <trkpt lat="44.78648" lon="3.82201">
        <ele>932.62</ele>
        <time>2025-12-14T10:42:05Z</time>
      </trkpt>
      <trkpt lat="44.78654" lon="3.82173">
        <ele>933.58</ele>
        <time>2025-12-14T10:42:23Z</time>
      </trkpt>
      <trkpt lat="44.78666" lon="3.82154">
        <ele>932.14</ele>
        <time>2025-12-14T10:42:40Z</time>
      </trkpt>
      <trkpt lat="44.78669" lon="3.82154">
        <ele>932.14</ele>
        <time>2025-12-14T10:42:43Z</time>
      </trkpt>
      <trkpt lat="44.78673" lon="3.82155">
        <ele>931.65</ele>
        <time>2025-12-14T10:42:46Z</time>
      </trkpt>
      <trkpt lat="44.78676" lon="3.82156">
        <ele>931.65</ele>
        <time>2025-12-14T10:42:52Z</time>
      </trkpt>
      <trkpt lat="44.78682" lon="3.82161">
        <ele>931.65</ele>
        <time>2025-12-14T10:43:00Z</time>
      </trkpt>
      <trkpt lat="44.78685" lon="3.82166">
        <ele>931.17</ele>
        <time>2025-12-14T10:43:15Z</time>
      </trkpt>
      <trkpt lat="44.78686" lon="3.82168">
        <ele>931.65</ele>
        <time>2025-12-14T10:43:35Z</time>
      </trkpt>
      <trkpt lat="44.78691" lon="3.82184">
        <ele>930.21</ele>
        <time>2025-12-14T10:43:50Z</time>
      </trkpt>
      <trkpt lat="44.787" lon="3.82177">
        <ele>928.29</ele>
        <time>2025-12-14T10:44:03Z</time>
      </trkpt>
      <trkpt lat="44.78693" lon="3.82154">
        <ele>925.89</ele>
        <time>2025-12-14T10:44:19Z</time>
      </trkpt>
      <trkpt lat="44.78694" lon="3.82135">
        <ele>923.48</ele>
        <time>2025-12-14T10:44:35Z</time>
      </trkpt>
      <trkpt lat="44.78713" lon="3.82144">
        <ele>914.35</ele>
        <time>2025-12-14T10:44:54Z</time>
      </trkpt>
      <trkpt lat="44.78727" lon="3.8215">
        <ele>910.51</ele>
        <time>2025-12-14T10:45:09Z</time>
      </trkpt>
      <trkpt lat="44.78742" lon="3.82152">
        <ele>905.7</ele>
        <time>2025-12-14T10:45:25Z</time>
      </trkpt>
      <trkpt lat="44.78747" lon="3.82149">
        <ele>902.82</ele>
        <time>2025-12-14T10:45:34Z</time>
      </trkpt>
      <trkpt lat="44.78747" lon="3.82145">
        <ele>902.33</ele>
        <time>2025-12-14T10:45:36Z</time>
      </trkpt>
      <trkpt lat="44.78743" lon="3.82129">
        <ele>899.93</ele>
        <time>2025-12-14T10:45:50Z</time>
      </trkpt>
      <trkpt lat="44.78741" lon="3.82125">
        <ele>898.01</ele>
        <time>2025-12-14T10:46:12Z</time>
      </trkpt>
      <trkpt lat="44.78739" lon="3.82119">
        <ele>898.01</ele>
        <time>2025-12-14T10:46:16Z</time>
      </trkpt>
      <trkpt lat="44.78735" lon="3.82094">
        <ele>898.01</ele>
        <time>2025-12-14T10:46:33Z</time>
      </trkpt>
      <trkpt lat="44.78727" lon="3.82064">
        <ele>898.97</ele>
        <time>2025-12-14T10:46:50Z</time>
      </trkpt>
      <trkpt lat="44.78723" lon="3.82062">
        <ele>898.97</ele>
        <time>2025-12-14T10:46:53Z</time>
      </trkpt>
      <trkpt lat="44.78703" lon="3.82052">
        <ele>899.93</ele>
        <time>2025-12-14T10:47:12Z</time>
      </trkpt>
      <trkpt lat="44.78705" lon="3.82048">
        <ele>901.37</ele>
        <time>2025-12-14T10:47:31Z</time>
      </trkpt>
      <trkpt lat="44.78707" lon="3.82043">
        <ele>900.89</ele>
        <time>2025-12-14T10:47:35Z</time>
      </trkpt>
      <trkpt lat="44.78723" lon="3.82015">
        <ele>901.37</ele>
        <time>2025-12-14T10:47:53Z</time>
      </trkpt>
      <trkpt lat="44.7874" lon="3.81977">
        <ele>899.45</ele>
        <time>2025-12-14T10:48:15Z</time>
      </trkpt>
      <trkpt lat="44.78752" lon="3.81944">
        <ele>903.3</ele>
        <time>2025-12-14T10:48:33Z</time>
      </trkpt>
      <trkpt lat="44.78754" lon="3.8192">
        <ele>904.74</ele>
        <time>2025-12-14T10:48:46Z</time>
      </trkpt>
      <trkpt lat="44.78748" lon="3.81895">
        <ele>902.33</ele>
        <time>2025-12-14T10:49:00Z</time>
      </trkpt>
      <trkpt lat="44.78727" lon="3.81879">
        <ele>900.89</ele>
        <time>2025-12-14T10:49:16Z</time>
      </trkpt>
      <trkpt lat="44.78703" lon="3.81871">
        <ele>901.37</ele>
        <time>2025-12-14T10:49:34Z</time>
      </trkpt>
      <trkpt lat="44.78677" lon="3.81859">
        <ele>900.89</ele>
        <time>2025-12-14T10:49:53Z</time>
      </trkpt>
      <trkpt lat="44.7865" lon="3.81849">
        <ele>906.18</ele>
        <time>2025-12-14T10:50:13Z</time>
      </trkpt>
      <trkpt lat="44.7862" lon="3.81839">
        <ele>908.1</ele>
        <time>2025-12-14T10:50:35Z</time>
      </trkpt>
      <trkpt lat="44.78594" lon="3.81835">
        <ele>910.99</ele>
        <time>2025-12-14T10:50:54Z</time>
      </trkpt>
      <trkpt lat="44.78567" lon="3.81833">
        <ele>911.95</ele>
        <time>2025-12-14T10:51:13Z</time>
      </trkpt>
      <trkpt lat="44.78536" lon="3.8183">
        <ele>913.39</ele>
        <time>2025-12-14T10:51:35Z</time>
      </trkpt>
      <trkpt lat="44.78506" lon="3.81823">
        <ele>914.35</ele>
        <time>2025-12-14T10:51:57Z</time>
      </trkpt>
      <trkpt lat="44.78483" lon="3.81811">
        <ele>914.83</ele>
        <time>2025-12-14T10:52:15Z</time>
      </trkpt>
      <trkpt lat="44.78454" lon="3.81798">
        <ele>916.75</ele>
        <time>2025-12-14T10:52:36Z</time>
      </trkpt>
      <trkpt lat="44.78427" lon="3.81795">
        <ele>917.72</ele>
        <time>2025-12-14T10:52:55Z</time>
      </trkpt>
      <trkpt lat="44.78401" lon="3.81782">
        <ele>916.75</ele>
        <time>2025-12-14T10:53:14Z</time>
      </trkpt>
      <trkpt lat="44.7838" lon="3.81757">
        <ele>917.72</ele>
        <time>2025-12-14T10:53:33Z</time>
      </trkpt>
      <trkpt lat="44.78378" lon="3.81727">
        <ele>921.08</ele>
        <time>2025-12-14T10:53:49Z</time>
      </trkpt>
      <trkpt lat="44.78378" lon="3.81691">
        <ele>923.48</ele>
        <time>2025-12-14T10:54:07Z</time>
      </trkpt>
      <trkpt lat="44.78376" lon="3.81658">
        <ele>926.37</ele>
        <time>2025-12-14T10:54:25Z</time>
      </trkpt>
      <trkpt lat="44.78383" lon="3.81628">
        <ele>927.33</ele>
        <time>2025-12-14T10:54:41Z</time>
      </trkpt>
      <trkpt lat="44.78402" lon="3.81608">
        <ele>928.77</ele>
        <time>2025-12-14T10:54:58Z</time>
      </trkpt>
      <trkpt lat="44.78429" lon="3.81583">
        <ele>928.77</ele>
        <time>2025-12-14T10:55:21Z</time>
      </trkpt>
      <trkpt lat="44.78449" lon="3.81552">
        <ele>930.69</ele>
        <time>2025-12-14T10:55:40Z</time>
      </trkpt>
      <trkpt lat="44.78454" lon="3.81518">
        <ele>933.58</ele>
        <time>2025-12-14T10:55:58Z</time>
      </trkpt>
      <trkpt lat="44.78456" lon="3.81475">
        <ele>935.5</ele>
        <time>2025-12-14T10:56:20Z</time>
      </trkpt>
      <trkpt lat="44.7846" lon="3.81433">
        <ele>936.94</ele>
        <time>2025-12-14T10:56:42Z</time>
      </trkpt>
      <trkpt lat="44.7847" lon="3.81397">
        <ele>935.5</ele>
        <time>2025-12-14T10:57:01Z</time>
      </trkpt>
      <trkpt lat="44.78481" lon="3.81357">
        <ele>935.02</ele>
        <time>2025-12-14T10:57:22Z</time>
      </trkpt>
      <trkpt lat="44.78496" lon="3.81315">
        <ele>934.06</ele>
        <time>2025-12-14T10:57:45Z</time>
      </trkpt>
      <trkpt lat="44.7851" lon="3.81271">
        <ele>935.5</ele>
        <time>2025-12-14T10:58:06Z</time>
      </trkpt>
      <trkpt lat="44.78525" lon="3.81228">
        <ele>939.35</ele>
        <time>2025-12-14T10:58:29Z</time>
      </trkpt>
      <trkpt lat="44.78537" lon="3.81192">
        <ele>938.38</ele>
        <time>2025-12-14T10:58:49Z</time>
      </trkpt>
      <trkpt lat="44.78552" lon="3.81163">
        <ele>937.42</ele>
        <time>2025-12-14T10:59:07Z</time>
      </trkpt>
      <trkpt lat="44.78555" lon="3.8116">
        <ele>937.42</ele>
        <time>2025-12-14T10:59:10Z</time>
      </trkpt>
      <trkpt lat="44.78577" lon="3.81143">
        <ele>936.94</ele>
        <time>2025-12-14T10:59:27Z</time>
      </trkpt>
      <trkpt lat="44.78605" lon="3.81116">
        <ele>936.46</ele>
        <time>2025-12-14T10:59:51Z</time>
      </trkpt>
      <trkpt lat="44.7863" lon="3.81094">
        <ele>935.5</ele>
        <time>2025-12-14T11:00:11Z</time>
      </trkpt>
      <trkpt lat="44.78652" lon="3.81057">
        <ele>935.5</ele>
        <time>2025-12-14T11:00:33Z</time>
      </trkpt>
      <trkpt lat="44.78659" lon="3.81013">
        <ele>934.54</ele>
        <time>2025-12-14T11:00:55Z</time>
      </trkpt>
      <trkpt lat="44.78661" lon="3.8098">
        <ele>935.5</ele>
        <time>2025-12-14T11:01:12Z</time>
      </trkpt>
      <trkpt lat="44.78664" lon="3.80941">
        <ele>937.42</ele>
        <time>2025-12-14T11:01:32Z</time>
      </trkpt>
      <trkpt lat="44.78669" lon="3.80908">
        <ele>938.38</ele>
        <time>2025-12-14T11:01:49Z</time>
      </trkpt>
      <trkpt lat="44.78684" lon="3.8088">
        <ele>938.86</ele>
        <time>2025-12-14T11:02:06Z</time>
      </trkpt>
      <trkpt lat="44.78707" lon="3.80858">
        <ele>938.86</ele>
        <time>2025-12-14T11:02:26Z</time>
      </trkpt>
      <trkpt lat="44.78725" lon="3.80837">
        <ele>939.35</ele>
        <time>2025-12-14T11:02:43Z</time>
      </trkpt>
      <trkpt lat="44.78744" lon="3.80818">
        <ele>939.35</ele>
        <time>2025-12-14T11:03:00Z</time>
      </trkpt>
      <trkpt lat="44.78768" lon="3.80796">
        <ele>940.31</ele>
        <time>2025-12-14T11:03:19Z</time>
      </trkpt>
      <trkpt lat="44.78788" lon="3.80774">
        <ele>940.31</ele>
        <time>2025-12-14T11:03:38Z</time>
      </trkpt>
      <trkpt lat="44.78798" lon="3.80749">
        <ele>940.79</ele>
        <time>2025-12-14T11:03:53Z</time>
      </trkpt>
      <trkpt lat="44.78805" lon="3.80735">
        <ele>941.27</ele>
        <time>2025-12-14T11:04:08Z</time>
      </trkpt>
      <trkpt lat="44.78809" lon="3.8073">
        <ele>940.79</ele>
        <time>2025-12-14T11:04:19Z</time>
      </trkpt>
      <trkpt lat="44.78818" lon="3.80711">
        <ele>940.31</ele>
        <time>2025-12-14T11:04:35Z</time>
      </trkpt>
      <trkpt lat="44.7882" lon="3.80708">
        <ele>940.79</ele>
        <time>2025-12-14T11:04:48Z</time>
      </trkpt>
      <trkpt lat="44.78823" lon="3.80704">
        <ele>941.27</ele>
        <time>2025-12-14T11:05:01Z</time>
      </trkpt>
      <trkpt lat="44.78825" lon="3.80698">
        <ele>942.71</ele>
        <time>2025-12-14T11:05:25Z</time>
      </trkpt>
      <trkpt lat="44.7883" lon="3.80691">
        <ele>943.19</ele>
        <time>2025-12-14T11:05:43Z</time>
      </trkpt>
      <trkpt lat="44.78838" lon="3.80674">
        <ele>944.15</ele>
        <time>2025-12-14T11:05:56Z</time>
      </trkpt>
      <trkpt lat="44.78846" lon="3.80658">
        <ele>945.11</ele>
        <time>2025-12-14T11:06:09Z</time>
      </trkpt>
      <trkpt lat="44.78858" lon="3.80633">
        <ele>945.11</ele>
        <time>2025-12-14T11:06:25Z</time>
      </trkpt>
      <trkpt lat="44.7887" lon="3.80618">
        <ele>945.11</ele>
        <time>2025-12-14T11:06:39Z</time>
      </trkpt>
      <trkpt lat="44.78884" lon="3.80591">
        <ele>945.11</ele>
        <time>2025-12-14T11:06:55Z</time>
      </trkpt>
      <trkpt lat="44.789" lon="3.80563">
        <ele>945.11</ele>
        <time>2025-12-14T11:07:15Z</time>
      </trkpt>
      <trkpt lat="44.78916" lon="3.80537">
        <ele>943.19</ele>
        <time>2025-12-14T11:07:32Z</time>
      </trkpt>
      <trkpt lat="44.78932" lon="3.80512">
        <ele>942.23</ele>
        <time>2025-12-14T11:07:49Z</time>
      </trkpt>
      <trkpt lat="44.7895" lon="3.80485">
        <ele>943.19</ele>
        <time>2025-12-14T11:08:07Z</time>
      </trkpt>
      <trkpt lat="44.78964" lon="3.80463">
        <ele>943.19</ele>
        <time>2025-12-14T11:08:23Z</time>
      </trkpt>
      <trkpt lat="44.78982" lon="3.80436">
        <ele>943.19</ele>
        <time>2025-12-14T11:08:41Z</time>
      </trkpt>
      <trkpt lat="44.78998" lon="3.80411">
        <ele>942.23</ele>
        <time>2025-12-14T11:08:58Z</time>
      </trkpt>
      <trkpt lat="44.79009" lon="3.80384">
        <ele>940.79</ele>
        <time>2025-12-14T11:09:15Z</time>
      </trkpt>
      <trkpt lat="44.79023" lon="3.80352">
        <ele>938.86</ele>
        <time>2025-12-14T11:09:34Z</time>
      </trkpt>
      <trkpt lat="44.7903" lon="3.80325">
        <ele>936.94</ele>
        <time>2025-12-14T11:09:50Z</time>
      </trkpt>
      <trkpt lat="44.79035" lon="3.80299">
        <ele>933.58</ele>
        <time>2025-12-14T11:10:08Z</time>
      </trkpt>
      <trkpt lat="44.79036" lon="3.80298">
        <ele>933.58</ele>
        <time>2025-12-14T11:10:09Z</time>
      </trkpt>
      <trkpt lat="44.79054" lon="3.80276">
        <ele>931.17</ele>
        <time>2025-12-14T11:10:28Z</time>
      </trkpt>
      <trkpt lat="44.79065" lon="3.8025">
        <ele>928.77</ele>
        <time>2025-12-14T11:10:46Z</time>
      </trkpt>
      <trkpt lat="44.79078" lon="3.8022">
        <ele>926.37</ele>
        <time>2025-12-14T11:11:06Z</time>
      </trkpt>
      <trkpt lat="44.79089" lon="3.80194">
        <ele>922.04</ele>
        <time>2025-12-14T11:11:25Z</time>
      </trkpt>
      <trkpt lat="44.79087" lon="3.80166">
        <ele>919.16</ele>
        <time>2025-12-14T11:11:42Z</time>
      </trkpt>
      <trkpt lat="44.79086" lon="3.80153">
        <ele>917.24</ele>
        <time>2025-12-14T11:11:51Z</time>
      </trkpt>
      <trkpt lat="44.79107" lon="3.80147">
        <ele>915.79</ele>
        <time>2025-12-14T11:12:09Z</time>
      </trkpt>
      <trkpt lat="44.7911" lon="3.80125">
        <ele>914.83</ele>
        <time>2025-12-14T11:12:24Z</time>
      </trkpt>
      <trkpt lat="44.79121" lon="3.80088">
        <ele>913.39</ele>
        <time>2025-12-14T11:12:43Z</time>
      </trkpt>
      <trkpt lat="44.79137" lon="3.80062">
        <ele>913.39</ele>
        <time>2025-12-14T11:13:03Z</time>
      </trkpt>
      <trkpt lat="44.79152" lon="3.80032">
        <ele>915.79</ele>
        <time>2025-12-14T11:13:25Z</time>
      </trkpt>
      <trkpt lat="44.79172" lon="3.79998">
        <ele>916.75</ele>
        <time>2025-12-14T11:13:42Z</time>
      </trkpt>
      <trkpt lat="44.79184" lon="3.79963">
        <ele>916.75</ele>
        <time>2025-12-14T11:14:01Z</time>
      </trkpt>
      <trkpt lat="44.79196" lon="3.79934">
        <ele>916.75</ele>
        <time>2025-12-14T11:14:20Z</time>
      </trkpt>
      <trkpt lat="44.79199" lon="3.79931">
        <ele>917.24</ele>
        <time>2025-12-14T11:14:22Z</time>
      </trkpt>
      <trkpt lat="44.79207" lon="3.79927">
        <ele>917.72</ele>
        <time>2025-12-14T11:14:29Z</time>
      </trkpt>
      <trkpt lat="44.79224" lon="3.79934">
        <ele>919.16</ele>
        <time>2025-12-14T11:14:45Z</time>
      </trkpt>
      <trkpt lat="44.79224" lon="3.79932">
        <ele>921.08</ele>
        <time>2025-12-14T11:15:02Z</time>
      </trkpt>
      <trkpt lat="44.79222" lon="3.79931">
        <ele>925.89</ele>
        <time>2025-12-14T11:15:22Z</time>
      </trkpt>
      <trkpt lat="44.79224" lon="3.79926">
        <ele>928.29</ele>
        <time>2025-12-14T11:15:35Z</time>
      </trkpt>
      <trkpt lat="44.79242" lon="3.79927">
        <ele>929.25</ele>
        <time>2025-12-14T11:15:51Z</time>
      </trkpt>
      <trkpt lat="44.79244" lon="3.79927">
        <ele>930.21</ele>
        <time>2025-12-14T11:16:12Z</time>
      </trkpt>
      <trkpt lat="44.79262" lon="3.79918">
        <ele>929.73</ele>
        <time>2025-12-14T11:16:28Z</time>
      </trkpt>
      <trkpt lat="44.7928" lon="3.79908">
        <ele>929.25</ele>
        <time>2025-12-14T11:16:47Z</time>
      </trkpt>
      <trkpt lat="44.79299" lon="3.79892">
        <ele>925.89</ele>
        <time>2025-12-14T11:17:04Z</time>
      </trkpt>
      <trkpt lat="44.79309" lon="3.79868">
        <ele>924.45</ele>
        <time>2025-12-14T11:17:17Z</time>
      </trkpt>
      <trkpt lat="44.79317" lon="3.79833">
        <ele>923.96</ele>
        <time>2025-12-14T11:17:36Z</time>
      </trkpt>
      <trkpt lat="44.79324" lon="3.79828">
        <ele>923.96</ele>
        <time>2025-12-14T11:17:45Z</time>
      </trkpt>
      <trkpt lat="44.79349" lon="3.79834">
        <ele>921.56</ele>
        <time>2025-12-14T11:18:03Z</time>
      </trkpt>
      <trkpt lat="44.79369" lon="3.79852">
        <ele>921.56</ele>
        <time>2025-12-14T11:18:21Z</time>
      </trkpt>
      <trkpt lat="44.79389" lon="3.79874">
        <ele>921.56</ele>
        <time>2025-12-14T11:18:39Z</time>
      </trkpt>
      <trkpt lat="44.79402" lon="3.79889">
        <ele>919.16</ele>
        <time>2025-12-14T11:18:55Z</time>
      </trkpt>
      <trkpt lat="44.79411" lon="3.79882">
        <ele>916.75</ele>
        <time>2025-12-14T11:19:12Z</time>
      </trkpt>
      <trkpt lat="44.79413" lon="3.79866">
        <ele>914.35</ele>
        <time>2025-12-14T11:19:24Z</time>
      </trkpt>
      <trkpt lat="44.79418" lon="3.79837">
        <ele>913.39</ele>
        <time>2025-12-14T11:19:43Z</time>
      </trkpt>
      <trkpt lat="44.79422" lon="3.79801">
        <ele>912.43</ele>
        <time>2025-12-14T11:20:03Z</time>
      </trkpt>
      <trkpt lat="44.7942" lon="3.79763">
        <ele>909.06</ele>
        <time>2025-12-14T11:20:22Z</time>
      </trkpt>
      <trkpt lat="44.79416" lon="3.79722">
        <ele>907.62</ele>
        <time>2025-12-14T11:20:41Z</time>
      </trkpt>
      <trkpt lat="44.79401" lon="3.79691">
        <ele>907.62</ele>
        <time>2025-12-14T11:20:59Z</time>
      </trkpt>
      <trkpt lat="44.79392" lon="3.79667">
        <ele>907.14</ele>
        <time>2025-12-14T11:21:14Z</time>
      </trkpt>
      <trkpt lat="44.79385" lon="3.79633">
        <ele>906.66</ele>
        <time>2025-12-14T11:21:35Z</time>
      </trkpt>
      <trkpt lat="44.79385" lon="3.79625">
        <ele>906.66</ele>
        <time>2025-12-14T11:21:55Z</time>
      </trkpt>
      <trkpt lat="44.79385" lon="3.79613">
        <ele>906.18</ele>
        <time>2025-12-14T11:22:11Z</time>
      </trkpt>
      <trkpt lat="44.79386" lon="3.79612">
        <ele>906.18</ele>
        <time>2025-12-14T11:22:34Z</time>
      </trkpt>
      <trkpt lat="44.79386" lon="3.7961">
        <ele>908.58</ele>
        <time>2025-12-14T11:22:55Z</time>
      </trkpt>
      <trkpt lat="44.79385" lon="3.79608">
        <ele>908.58</ele>
        <time>2025-12-14T11:23:03Z</time>
      </trkpt>
      <trkpt lat="44.79384" lon="3.79578">
        <ele>906.18</ele>
        <time>2025-12-14T11:23:17Z</time>
      </trkpt>
      <trkpt lat="44.79386" lon="3.79552">
        <ele>903.3</ele>
        <time>2025-12-14T11:23:30Z</time>
      </trkpt>
      <trkpt lat="44.79387" lon="3.79545">
        <ele>902.33</ele>
        <time>2025-12-14T11:23:36Z</time>
      </trkpt>
      <trkpt lat="44.79384" lon="3.79524">
        <ele>899.45</ele>
        <time>2025-12-14T11:23:46Z</time>
      </trkpt>
      <trkpt lat="44.79384" lon="3.79504">
        <ele>895.12</ele>
        <time>2025-12-14T11:23:58Z</time>
      </trkpt>
      <trkpt lat="44.79384" lon="3.79503">
        <ele>894.64</ele>
        <time>2025-12-14T11:23:59Z</time>
      </trkpt>
      <trkpt lat="44.79383" lon="3.79501">
        <ele>894.16</ele>
        <time>2025-12-14T11:24:00Z</time>
      </trkpt>
      <trkpt lat="44.79383" lon="3.795">
        <ele>894.16</ele>
        <time>2025-12-14T11:24:01Z</time>
      </trkpt>
      <trkpt lat="44.79382" lon="3.79483">
        <ele>888.4</ele>
        <time>2025-12-14T11:24:19Z</time>
      </trkpt>
      <trkpt lat="44.79393" lon="3.79502">
        <ele>885.03</ele>
        <time>2025-12-14T11:24:36Z</time>
      </trkpt>
      <trkpt lat="44.79397" lon="3.79507">
        <ele>883.59</ele>
        <time>2025-12-14T11:24:40Z</time>
      </trkpt>
      <trkpt lat="44.79419" lon="3.79516">
        <ele>878.78</ele>
        <time>2025-12-14T11:25:00Z</time>
      </trkpt>
      <trkpt lat="44.7943" lon="3.79514">
        <ele>873.98</ele>
        <time>2025-12-14T11:25:18Z</time>
      </trkpt>
      <trkpt lat="44.79432" lon="3.79509">
        <ele>871.57</ele>
        <time>2025-12-14T11:25:39Z</time>
      </trkpt>
      <trkpt lat="44.79424" lon="3.79496">
        <ele>869.17</ele>
        <time>2025-12-14T11:25:55Z</time>
      </trkpt>
      <trkpt lat="44.79422" lon="3.7948">
        <ele>869.65</ele>
        <time>2025-12-14T11:26:10Z</time>
      </trkpt>
      <trkpt lat="44.79428" lon="3.79448">
        <ele>878.3</ele>
        <time>2025-12-14T11:26:30Z</time>
      </trkpt>
      <trkpt lat="44.79425" lon="3.79423">
        <ele>881.19</ele>
        <time>2025-12-14T11:26:46Z</time>
      </trkpt>
      <trkpt lat="44.79423" lon="3.79416">
        <ele>881.19</ele>
        <time>2025-12-14T11:26:50Z</time>
      </trkpt>
      <trkpt lat="44.79426" lon="3.79377">
        <ele>880.71</ele>
        <time>2025-12-14T11:27:08Z</time>
      </trkpt>
      <trkpt lat="44.79434" lon="3.79342">
        <ele>881.19</ele>
        <time>2025-12-14T11:27:29Z</time>
      </trkpt>
      <trkpt lat="44.7944" lon="3.79313">
        <ele>882.15</ele>
        <time>2025-12-14T11:27:49Z</time>
      </trkpt>
      <trkpt lat="44.7944" lon="3.79276">
        <ele>883.11</ele>
        <time>2025-12-14T11:28:08Z</time>
      </trkpt>
      <trkpt lat="44.79437" lon="3.7925">
        <ele>884.55</ele>
        <time>2025-12-14T11:28:24Z</time>
      </trkpt>
      <trkpt lat="44.79429" lon="3.7922">
        <ele>885.99</ele>
        <time>2025-12-14T11:28:41Z</time>
      </trkpt>
      <trkpt lat="44.7942" lon="3.79197">
        <ele>887.91</ele>
        <time>2025-12-14T11:28:56Z</time>
      </trkpt>
      <trkpt lat="44.79403" lon="3.79163">
        <ele>888.88</ele>
        <time>2025-12-14T11:29:17Z</time>
      </trkpt>
      <trkpt lat="44.79396" lon="3.79129">
        <ele>891.76</ele>
        <time>2025-12-14T11:29:37Z</time>
      </trkpt>
      <trkpt lat="44.79398" lon="3.79106">
        <ele>892.72</ele>
        <time>2025-12-14T11:29:51Z</time>
      </trkpt>
      <trkpt lat="44.79398" lon="3.79101">
        <ele>891.28</ele>
        <time>2025-12-14T11:30:07Z</time>
      </trkpt>
      <trkpt lat="44.79398" lon="3.79105">
        <ele>890.8</ele>
        <time>2025-12-14T11:30:30Z</time>
      </trkpt>
      <trkpt lat="44.79399" lon="3.79095">
        <ele>890.8</ele>
        <time>2025-12-14T11:30:46Z</time>
      </trkpt>
      <trkpt lat="44.794" lon="3.79086">
        <ele>890.32</ele>
        <time>2025-12-14T11:31:04Z</time>
      </trkpt>
      <trkpt lat="44.79401" lon="3.79074">
        <ele>888.88</ele>
        <time>2025-12-14T11:31:21Z</time>
      </trkpt>
      <trkpt lat="44.794" lon="3.79067">
        <ele>888.88</ele>
        <time>2025-12-14T11:31:39Z</time>
      </trkpt>
      <trkpt lat="44.79401" lon="3.79062">
        <ele>889.36</ele>
        <time>2025-12-14T11:32:03Z</time>
      </trkpt>
      <trkpt lat="44.79404" lon="3.79062">
        <ele>889.84</ele>
        <time>2025-12-14T11:32:33Z</time>
      </trkpt>
      <trkpt lat="44.79404" lon="3.79061">
        <ele>888.4</ele>
        <time>2025-12-14T11:32:57Z</time>
      </trkpt>
      <trkpt lat="44.79405" lon="3.79062">
        <ele>888.88</ele>
        <time>2025-12-14T11:33:21Z</time>
      </trkpt>
      <trkpt lat="44.79404" lon="3.79063">
        <ele>889.84</ele>
        <time>2025-12-14T11:33:47Z</time>
      </trkpt>
      <trkpt lat="44.79399" lon="3.79055">
        <ele>890.32</ele>
        <time>2025-12-14T11:34:05Z</time>
      </trkpt>
      <trkpt lat="44.794" lon="3.79039">
        <ele>884.55</ele>
        <time>2025-12-14T11:34:23Z</time>
      </trkpt>
      <trkpt lat="44.79396" lon="3.7902">
        <ele>881.19</ele>
        <time>2025-12-14T11:34:42Z</time>
      </trkpt>
      <trkpt lat="44.79393" lon="3.79">
        <ele>879.26</ele>
        <time>2025-12-14T11:34:59Z</time>
      </trkpt>
      <trkpt lat="44.79384" lon="3.78967">
        <ele>873.01</ele>
        <time>2025-12-14T11:35:21Z</time>
      </trkpt>
      <trkpt lat="44.79376" lon="3.78958">
        <ele>869.17</ele>
        <time>2025-12-14T11:35:40Z</time>
      </trkpt>
      <trkpt lat="44.79371" lon="3.78985">
        <ele>864.36</ele>
        <time>2025-12-14T11:36:00Z</time>
      </trkpt>
      <trkpt lat="44.7936" lon="3.79005">
        <ele>862.44</ele>
        <time>2025-12-14T11:36:19Z</time>
      </trkpt>
      <trkpt lat="44.79353" lon="3.79003">
        <ele>862.92</ele>
        <time>2025-12-14T11:36:34Z</time>
      </trkpt>
      <trkpt lat="44.79352" lon="3.78982">
        <ele>861</ele>
        <time>2025-12-14T11:36:55Z</time>
      </trkpt>
      <trkpt lat="44.79347" lon="3.78955">
        <ele>859.56</ele>
        <time>2025-12-14T11:37:13Z</time>
      </trkpt>
      <trkpt lat="44.79345" lon="3.78933">
        <ele>856.67</ele>
        <time>2025-12-14T11:37:32Z</time>
      </trkpt>
      <trkpt lat="44.79351" lon="3.78908">
        <ele>853.79</ele>
        <time>2025-12-14T11:37:50Z</time>
      </trkpt>
      <trkpt lat="44.79346" lon="3.78895">
        <ele>852.83</ele>
        <time>2025-12-14T11:38:06Z</time>
      </trkpt>
      <trkpt lat="44.79335" lon="3.78909">
        <ele>850.9</ele>
        <time>2025-12-14T11:38:23Z</time>
      </trkpt>
      <trkpt lat="44.79325" lon="3.78925">
        <ele>848.98</ele>
        <time>2025-12-14T11:38:40Z</time>
      </trkpt>
      <trkpt lat="44.79315" lon="3.78932">
        <ele>848.5</ele>
        <time>2025-12-14T11:38:58Z</time>
      </trkpt>
      <trkpt lat="44.79306" lon="3.78932">
        <ele>851.38</ele>
        <time>2025-12-14T11:39:15Z</time>
      </trkpt>
      <trkpt lat="44.79297" lon="3.78938">
        <ele>852.83</ele>
        <time>2025-12-14T11:39:31Z</time>
      </trkpt>
      <trkpt lat="44.79297" lon="3.78941">
        <ele>852.83</ele>
        <time>2025-12-14T11:39:53Z</time>
      </trkpt>
      <trkpt lat="44.79308" lon="3.78934">
        <ele>853.31</ele>
        <time>2025-12-14T11:40:08Z</time>
      </trkpt>
      <trkpt lat="44.79307" lon="3.78932">
        <ele>854.75</ele>
        <time>2025-12-14T11:40:28Z</time>
      </trkpt>
      <trkpt lat="44.79308" lon="3.78931">
        <ele>854.75</ele>
        <time>2025-12-14T11:41:00Z</time>
      </trkpt>
      <trkpt lat="44.79308" lon="3.78928">
        <ele>854.75</ele>
        <time>2025-12-14T11:41:28Z</time>
      </trkpt>
      <trkpt lat="44.79308" lon="3.78931">
        <ele>853.79</ele>
        <time>2025-12-14T11:41:50Z</time>
      </trkpt>
      <trkpt lat="44.79308" lon="3.78927">
        <ele>853.31</ele>
        <time>2025-12-14T11:42:23Z</time>
      </trkpt>
      <trkpt lat="44.79311" lon="3.78923">
        <ele>851.38</ele>
        <time>2025-12-14T11:42:48Z</time>
      </trkpt>
      <trkpt lat="44.79311" lon="3.78926">
        <ele>848.98</ele>
        <time>2025-12-14T11:43:20Z</time>
      </trkpt>
      <trkpt lat="44.79309" lon="3.78926">
        <ele>847.54</ele>
        <time>2025-12-14T11:43:50Z</time>
      </trkpt>
      <trkpt lat="44.7931" lon="3.78924">
        <ele>844.66</ele>
        <time>2025-12-14T11:44:19Z</time>
      </trkpt>
      <trkpt lat="44.7931" lon="3.78923">
        <ele>844.18</ele>
        <time>2025-12-14T11:44:46Z</time>
      </trkpt>
      <trkpt lat="44.79308" lon="3.78925">
        <ele>849.46</ele>
        <time>2025-12-14T11:45:14Z</time>
      </trkpt>
      <trkpt lat="44.79308" lon="3.7893">
        <ele>852.35</ele>
        <time>2025-12-14T11:45:38Z</time>
      </trkpt>
      <trkpt lat="44.79309" lon="3.78928">
        <ele>855.23</ele>
        <time>2025-12-14T11:46:05Z</time>
      </trkpt>
      <trkpt lat="44.7931" lon="3.78928">
        <ele>850.9</ele>
        <time>2025-12-14T11:46:29Z</time>
      </trkpt>
      <trkpt lat="44.7931" lon="3.78928">
        <ele>850.42</ele>
        <time>2025-12-14T11:46:53Z</time>
      </trkpt>
      <trkpt lat="44.79311" lon="3.78933">
        <ele>851.38</ele>
        <time>2025-12-14T11:47:09Z</time>
      </trkpt>
      <trkpt lat="44.79309" lon="3.78932">
        <ele>851.87</ele>
        <time>2025-12-14T11:47:35Z</time>
      </trkpt>
      <trkpt lat="44.7931" lon="3.78933">
        <ele>854.27</ele>
        <time>2025-12-14T11:48:04Z</time>
      </trkpt>
      <trkpt lat="44.7931" lon="3.78932">
        <ele>857.63</ele>
        <time>2025-12-14T11:48:36Z</time>
      </trkpt>
      <trkpt lat="44.7931" lon="3.78931">
        <ele>856.19</ele>
        <time>2025-12-14T11:49:04Z</time>
      </trkpt>
      <trkpt lat="44.79311" lon="3.78932">
        <ele>857.63</ele>
        <time>2025-12-14T11:49:41Z</time>
      </trkpt>
      <trkpt lat="44.79311" lon="3.78934">
        <ele>856.19</ele>
        <time>2025-12-14T11:50:10Z</time>
      </trkpt>
      <trkpt lat="44.7931" lon="3.78933">
        <ele>857.63</ele>
        <time>2025-12-14T11:50:38Z</time>
      </trkpt>
      <trkpt lat="44.79309" lon="3.7893">
        <ele>860.04</ele>
        <time>2025-12-14T11:51:15Z</time>
      </trkpt>
      <trkpt lat="44.7931" lon="3.78933">
        <ele>860.04</ele>
        <time>2025-12-14T11:51:45Z</time>
      </trkpt>
      <trkpt lat="44.79312" lon="3.78932">
        <ele>860.04</ele>
        <time>2025-12-14T11:52:19Z</time>
      </trkpt>
      <trkpt lat="44.79312" lon="3.78931">
        <ele>860.04</ele>
        <time>2025-12-14T11:52:59Z</time>
      </trkpt>
      <trkpt lat="44.7931" lon="3.78933">
        <ele>855.71</ele>
        <time>2025-12-14T11:53:41Z</time>
      </trkpt>
      <trkpt lat="44.79311" lon="3.78932">
        <ele>855.23</ele>
        <time>2025-12-14T11:54:13Z</time>
      </trkpt>
      <trkpt lat="44.79309" lon="3.78932">
        <ele>856.67</ele>
        <time>2025-12-14T11:54:49Z</time>
      </trkpt>
      <trkpt lat="44.7931" lon="3.78931">
        <ele>856.67</ele>
        <time>2025-12-14T11:55:29Z</time>
      </trkpt>
      <trkpt lat="44.7931" lon="3.78932">
        <ele>855.71</ele>
        <time>2025-12-14T11:56:10Z</time>
      </trkpt>
      <trkpt lat="44.79309" lon="3.78931">
        <ele>859.56</ele>
        <time>2025-12-14T11:56:47Z</time>
      </trkpt>
      <trkpt lat="44.7931" lon="3.78931">
        <ele>859.08</ele>
        <time>2025-12-14T11:57:30Z</time>
      </trkpt>
      <trkpt lat="44.79309" lon="3.7893">
        <ele>858.59</ele>
        <time>2025-12-14T11:58:01Z</time>
      </trkpt>
      <trkpt lat="44.79311" lon="3.78933">
        <ele>857.63</ele>
        <time>2025-12-14T11:58:39Z</time>
      </trkpt>
      <trkpt lat="44.79313" lon="3.78932">
        <ele>856.67</ele>
        <time>2025-12-14T11:59:07Z</time>
      </trkpt>
      <trkpt lat="44.79315" lon="3.78929">
        <ele>856.19</ele>
        <time>2025-12-14T11:59:38Z</time>
      </trkpt>
      <trkpt lat="44.79314" lon="3.7893">
        <ele>855.71</ele>
        <time>2025-12-14T12:00:09Z</time>
      </trkpt>
      <trkpt lat="44.79315" lon="3.7893">
        <ele>855.71</ele>
        <time>2025-12-14T12:00:35Z</time>
      </trkpt>
      <trkpt lat="44.79315" lon="3.78929">
        <ele>855.71</ele>
        <time>2025-12-14T12:01:03Z</time>
      </trkpt>
      <trkpt lat="44.79314" lon="3.7893">
        <ele>858.11</ele>
        <time>2025-12-14T12:01:30Z</time>
      </trkpt>
      <trkpt lat="44.79312" lon="3.78931">
        <ele>859.56</ele>
        <time>2025-12-14T12:01:54Z</time>
      </trkpt>
      <trkpt lat="44.79316" lon="3.78931">
        <ele>859.56</ele>
        <time>2025-12-14T12:02:19Z</time>
      </trkpt>
      <trkpt lat="44.79314" lon="3.78929">
        <ele>858.59</ele>
        <time>2025-12-14T12:02:49Z</time>
      </trkpt>
      <trkpt lat="44.79314" lon="3.78929">
        <ele>859.56</ele>
        <time>2025-12-14T12:03:19Z</time>
      </trkpt>
      <trkpt lat="44.79317" lon="3.78927">
        <ele>860.04</ele>
        <time>2025-12-14T12:03:51Z</time>
      </trkpt>
      <trkpt lat="44.79314" lon="3.78931">
        <ele>859.08</ele>
        <time>2025-12-14T12:04:19Z</time>
      </trkpt>
      <trkpt lat="44.79315" lon="3.78931">
        <ele>858.11</ele>
        <time>2025-12-14T12:04:49Z</time>
      </trkpt>
      <trkpt lat="44.79314" lon="3.78929">
        <ele>858.11</ele>
        <time>2025-12-14T12:05:19Z</time>
      </trkpt>
      <trkpt lat="44.79313" lon="3.78929">
        <ele>856.67</ele>
        <time>2025-12-14T12:05:51Z</time>
      </trkpt>
      <trkpt lat="44.7931" lon="3.78929">
        <ele>856.19</ele>
        <time>2025-12-14T12:06:21Z</time>
      </trkpt>
      <trkpt lat="44.79312" lon="3.7893">
        <ele>857.63</ele>
        <time>2025-12-14T12:06:54Z</time>
      </trkpt>
      <trkpt lat="44.7931" lon="3.78929">
        <ele>859.08</ele>
        <time>2025-12-14T12:07:30Z</time>
      </trkpt>
      <trkpt lat="44.7931" lon="3.78932">
        <ele>861</ele>
        <time>2025-12-14T12:08:12Z</time>
      </trkpt>
      <trkpt lat="44.79308" lon="3.78934">
        <ele>860.52</ele>
        <time>2025-12-14T12:08:51Z</time>
      </trkpt>
      <trkpt lat="44.79311" lon="3.78931">
        <ele>858.11</ele>
        <time>2025-12-14T12:09:27Z</time>
      </trkpt>
      <trkpt lat="44.79313" lon="3.78928">
        <ele>859.56</ele>
        <time>2025-12-14T12:10:00Z</time>
      </trkpt>
      <trkpt lat="44.79313" lon="3.7893">
        <ele>861</ele>
        <time>2025-12-14T12:10:30Z</time>
      </trkpt>
      <trkpt lat="44.7931" lon="3.78932">
        <ele>859.56</ele>
        <time>2025-12-14T12:10:58Z</time>
      </trkpt>
      <trkpt lat="44.79307" lon="3.78935">
        <ele>859.08</ele>
        <time>2025-12-14T12:11:29Z</time>
      </trkpt>
      <trkpt lat="44.79307" lon="3.78934">
        <ele>859.56</ele>
        <time>2025-12-14T12:12:05Z</time>
      </trkpt>
      <trkpt lat="44.79306" lon="3.78933">
        <ele>859.56</ele>
        <time>2025-12-14T12:12:43Z</time>
      </trkpt>
      <trkpt lat="44.79306" lon="3.78935">
        <ele>861.96</ele>
        <time>2025-12-14T12:13:14Z</time>
      </trkpt>
      <trkpt lat="44.79305" lon="3.78934">
        <ele>862.44</ele>
        <time>2025-12-14T12:13:44Z</time>
      </trkpt>
      <trkpt lat="44.79309" lon="3.78934">
        <ele>863.88</ele>
        <time>2025-12-14T12:14:20Z</time>
      </trkpt>
      <trkpt lat="44.79309" lon="3.78935">
        <ele>862.92</ele>
        <time>2025-12-14T12:14:50Z</time>
      </trkpt>
      <trkpt lat="44.79308" lon="3.78935">
        <ele>862.92</ele>
        <time>2025-12-14T12:15:22Z</time>
      </trkpt>
      <trkpt lat="44.79308" lon="3.78934">
        <ele>862.92</ele>
        <time>2025-12-14T12:15:51Z</time>
      </trkpt>
      <trkpt lat="44.79306" lon="3.78933">
        <ele>861</ele>
        <time>2025-12-14T12:16:13Z</time>
      </trkpt>
      <trkpt lat="44.79306" lon="3.78931">
        <ele>859.08</ele>
        <time>2025-12-14T12:16:29Z</time>
      </trkpt>
      <trkpt lat="44.79306" lon="3.78934">
        <ele>857.15</ele>
        <time>2025-12-14T12:16:46Z</time>
      </trkpt>
      <trkpt lat="44.79306" lon="3.78934">
        <ele>858.11</ele>
        <time>2025-12-14T12:17:01Z</time>
      </trkpt>
      <trkpt lat="44.79309" lon="3.78932">
        <ele>858.59</ele>
        <time>2025-12-14T12:17:20Z</time>
      </trkpt>
      <trkpt lat="44.79312" lon="3.78931">
        <ele>857.63</ele>
        <time>2025-12-14T12:17:38Z</time>
      </trkpt>
      <trkpt lat="44.7931" lon="3.78929">
        <ele>858.11</ele>
        <time>2025-12-14T12:18:01Z</time>
      </trkpt>
      <trkpt lat="44.79308" lon="3.7893">
        <ele>859.08</ele>
        <time>2025-12-14T12:18:16Z</time>
      </trkpt>
      <trkpt lat="44.79309" lon="3.78932">
        <ele>858.59</ele>
        <time>2025-12-14T12:18:50Z</time>
      </trkpt>
      <trkpt lat="44.79309" lon="3.78932">
        <ele>859.56</ele>
        <time>2025-12-14T12:19:15Z</time>
      </trkpt>
      <trkpt lat="44.7931" lon="3.78935">
        <ele>859.08</ele>
        <time>2025-12-14T12:19:43Z</time>
      </trkpt>
      <trkpt lat="44.79309" lon="3.78931">
        <ele>859.08</ele>
        <time>2025-12-14T12:20:12Z</time>
      </trkpt>
      <trkpt lat="44.7931" lon="3.78931">
        <ele>859.56</ele>
        <time>2025-12-14T12:20:37Z</time>
      </trkpt>
      <trkpt lat="44.79311" lon="3.78931">
        <ele>859.08</ele>
        <time>2025-12-14T12:21:02Z</time>
      </trkpt>
      <trkpt lat="44.7931" lon="3.78934">
        <ele>861</ele>
        <time>2025-12-14T12:21:24Z</time>
      </trkpt>
      <trkpt lat="44.79309" lon="3.78931">
        <ele>859.56</ele>
        <time>2025-12-14T12:21:48Z</time>
      </trkpt>
      <trkpt lat="44.79311" lon="3.78929">
        <ele>859.08</ele>
        <time>2025-12-14T12:22:10Z</time>
      </trkpt>
      <trkpt lat="44.7931" lon="3.7893">
        <ele>859.56</ele>
        <time>2025-12-14T12:22:31Z</time>
      </trkpt>
      <trkpt lat="44.79311" lon="3.78929">
        <ele>859.08</ele>
        <time>2025-12-14T12:22:56Z</time>
      </trkpt>
      <trkpt lat="44.79315" lon="3.78933">
        <ele>857.63</ele>
        <time>2025-12-14T12:23:23Z</time>
      </trkpt>
      <trkpt lat="44.79314" lon="3.78933">
        <ele>856.19</ele>
        <time>2025-12-14T12:23:50Z</time>
      </trkpt>
      <trkpt lat="44.79314" lon="3.78932">
        <ele>855.23</ele>
        <time>2025-12-14T12:24:14Z</time>
      </trkpt>
      <trkpt lat="44.79314" lon="3.78935">
        <ele>856.67</ele>
        <time>2025-12-14T12:24:42Z</time>
      </trkpt>
      <trkpt lat="44.79315" lon="3.78931">
        <ele>858.59</ele>
        <time>2025-12-14T12:25:04Z</time>
      </trkpt>
      <trkpt lat="44.79315" lon="3.78932">
        <ele>858.59</ele>
        <time>2025-12-14T12:25:30Z</time>
      </trkpt>
      <trkpt lat="44.79313" lon="3.7893">
        <ele>859.08</ele>
        <time>2025-12-14T12:25:51Z</time>
      </trkpt>
      <trkpt lat="44.79317" lon="3.78929">
        <ele>859.08</ele>
        <time>2025-12-14T12:26:14Z</time>
      </trkpt>
      <trkpt lat="44.79327" lon="3.78923">
        <ele>858.59</ele>
        <time>2025-12-14T12:26:31Z</time>
      </trkpt>
      <trkpt lat="44.79329" lon="3.78921">
        <ele>858.11</ele>
        <time>2025-12-14T12:26:33Z</time>
      </trkpt>
      <trkpt lat="44.79337" lon="3.78906">
        <ele>854.75</ele>
        <time>2025-12-14T12:26:54Z</time>
      </trkpt>
      <trkpt lat="44.79335" lon="3.78905">
        <ele>853.79</ele>
        <time>2025-12-14T12:26:57Z</time>
      </trkpt>
      <trkpt lat="44.79315" lon="3.78911">
        <ele>847.54</ele>
        <time>2025-12-14T12:27:15Z</time>
      </trkpt>
      <trkpt lat="44.79297" lon="3.78922">
        <ele>835.04</ele>
        <time>2025-12-14T12:27:39Z</time>
      </trkpt>
      <trkpt lat="44.7928" lon="3.78903">
        <ele>828.79</ele>
        <time>2025-12-14T12:27:59Z</time>
      </trkpt>
      <trkpt lat="44.79283" lon="3.78893">
        <ele>830.24</ele>
        <time>2025-12-14T12:28:16Z</time>
      </trkpt>
      <trkpt lat="44.79289" lon="3.7889">
        <ele>830.24</ele>
        <time>2025-12-14T12:28:37Z</time>
      </trkpt>
      <trkpt lat="44.79296" lon="3.7888">
        <ele>830.24</ele>
        <time>2025-12-14T12:28:55Z</time>
      </trkpt>
      <trkpt lat="44.79312" lon="3.78874">
        <ele>826.39</ele>
        <time>2025-12-14T12:29:14Z</time>
      </trkpt>
      <trkpt lat="44.79324" lon="3.78857">
        <ele>821.1</ele>
        <time>2025-12-14T12:29:31Z</time>
      </trkpt>
      <trkpt lat="44.79334" lon="3.78856">
        <ele>817.74</ele>
        <time>2025-12-14T12:29:45Z</time>
      </trkpt>
      <trkpt lat="44.79346" lon="3.78848">
        <ele>818.7</ele>
        <time>2025-12-14T12:29:58Z</time>
      </trkpt>
      <trkpt lat="44.7936" lon="3.78837">
        <ele>820.14</ele>
        <time>2025-12-14T12:30:15Z</time>
      </trkpt>
      <trkpt lat="44.79375" lon="3.78826">
        <ele>818.7</ele>
        <time>2025-12-14T12:30:32Z</time>
      </trkpt>
      <trkpt lat="44.79394" lon="3.78808">
        <ele>822.06</ele>
        <time>2025-12-14T12:30:52Z</time>
      </trkpt>
      <trkpt lat="44.79407" lon="3.78787">
        <ele>829.27</ele>
        <time>2025-12-14T12:31:08Z</time>
      </trkpt>
      <trkpt lat="44.7942" lon="3.78769">
        <ele>831.2</ele>
        <time>2025-12-14T12:31:26Z</time>
      </trkpt>
      <trkpt lat="44.79428" lon="3.78742">
        <ele>834.56</ele>
        <time>2025-12-14T12:31:43Z</time>
      </trkpt>
      <trkpt lat="44.79435" lon="3.78711">
        <ele>839.37</ele>
        <time>2025-12-14T12:32:01Z</time>
      </trkpt>
      <trkpt lat="44.79445" lon="3.78688">
        <ele>839.37</ele>
        <time>2025-12-14T12:32:19Z</time>
      </trkpt>
      <trkpt lat="44.79446" lon="3.78686">
        <ele>840.33</ele>
        <time>2025-12-14T12:32:32Z</time>
      </trkpt>
      <trkpt lat="44.79452" lon="3.78684">
        <ele>839.37</ele>
        <time>2025-12-14T12:32:50Z</time>
      </trkpt>
      <trkpt lat="44.79458" lon="3.78675">
        <ele>837.93</ele>
        <time>2025-12-14T12:33:06Z</time>
      </trkpt>
      <trkpt lat="44.79466" lon="3.78658">
        <ele>838.89</ele>
        <time>2025-12-14T12:33:21Z</time>
      </trkpt>
      <trkpt lat="44.79473" lon="3.7863">
        <ele>840.81</ele>
        <time>2025-12-14T12:33:36Z</time>
      </trkpt>
      <trkpt lat="44.79474" lon="3.78624">
        <ele>840.81</ele>
        <time>2025-12-14T12:33:39Z</time>
      </trkpt>
      <trkpt lat="44.7949" lon="3.78593">
        <ele>838.89</ele>
        <time>2025-12-14T12:34:00Z</time>
      </trkpt>
      <trkpt lat="44.79496" lon="3.78584">
        <ele>839.37</ele>
        <time>2025-12-14T12:34:13Z</time>
      </trkpt>
      <trkpt lat="44.7951" lon="3.78557">
        <ele>838.89</ele>
        <time>2025-12-14T12:34:32Z</time>
      </trkpt>
      <trkpt lat="44.79514" lon="3.78551">
        <ele>842.25</ele>
        <time>2025-12-14T12:34:53Z</time>
      </trkpt>
      <trkpt lat="44.79522" lon="3.78538">
        <ele>841.77</ele>
        <time>2025-12-14T12:35:06Z</time>
      </trkpt>
      <trkpt lat="44.79528" lon="3.78529">
        <ele>840.33</ele>
        <time>2025-12-14T12:35:14Z</time>
      </trkpt>
      <trkpt lat="44.79541" lon="3.78509">
        <ele>837.93</ele>
        <time>2025-12-14T12:35:31Z</time>
      </trkpt>
      <trkpt lat="44.79551" lon="3.78496">
        <ele>837.45</ele>
        <time>2025-12-14T12:35:47Z</time>
      </trkpt>
      <trkpt lat="44.79561" lon="3.78481">
        <ele>836.48</ele>
        <time>2025-12-14T12:35:57Z</time>
      </trkpt>
      <trkpt lat="44.79572" lon="3.78467">
        <ele>836.48</ele>
        <time>2025-12-14T12:36:08Z</time>
      </trkpt>
      <trkpt lat="44.79581" lon="3.78454">
        <ele>836.48</ele>
        <time>2025-12-14T12:36:19Z</time>
      </trkpt>
      <trkpt lat="44.79586" lon="3.78444">
        <ele>839.85</ele>
        <time>2025-12-14T12:36:28Z</time>
      </trkpt>
      <trkpt lat="44.79593" lon="3.78438">
        <ele>840.81</ele>
        <time>2025-12-14T12:36:40Z</time>
      </trkpt>
      <trkpt lat="44.79605" lon="3.78426">
        <ele>841.29</ele>
        <time>2025-12-14T12:36:56Z</time>
      </trkpt>
      <trkpt lat="44.7961" lon="3.7841">
        <ele>843.21</ele>
        <time>2025-12-14T12:37:12Z</time>
      </trkpt>
      <trkpt lat="44.79621" lon="3.78391">
        <ele>848.02</ele>
        <time>2025-12-14T12:37:29Z</time>
      </trkpt>
      <trkpt lat="44.79629" lon="3.78374">
        <ele>850.42</ele>
        <time>2025-12-14T12:37:45Z</time>
      </trkpt>
      <trkpt lat="44.79635" lon="3.78361">
        <ele>851.87</ele>
        <time>2025-12-14T12:37:59Z</time>
      </trkpt>
      <trkpt lat="44.79644" lon="3.78342">
        <ele>855.23</ele>
        <time>2025-12-14T12:38:15Z</time>
      </trkpt>
      <trkpt lat="44.79649" lon="3.78336">
        <ele>857.15</ele>
        <time>2025-12-14T12:38:21Z</time>
      </trkpt>
      <trkpt lat="44.79659" lon="3.78327">
        <ele>861</ele>
        <time>2025-12-14T12:38:36Z</time>
      </trkpt>
      <trkpt lat="44.79666" lon="3.78322">
        <ele>865.32</ele>
        <time>2025-12-14T12:38:50Z</time>
      </trkpt>
      <trkpt lat="44.79675" lon="3.78324">
        <ele>867.73</ele>
        <time>2025-12-14T12:39:05Z</time>
      </trkpt>
      <trkpt lat="44.79685" lon="3.78327">
        <ele>870.61</ele>
        <time>2025-12-14T12:39:26Z</time>
      </trkpt>
      <trkpt lat="44.79689" lon="3.78322">
        <ele>871.57</ele>
        <time>2025-12-14T12:39:35Z</time>
      </trkpt>
      <trkpt lat="44.79684" lon="3.78299">
        <ele>873.5</ele>
        <time>2025-12-14T12:39:50Z</time>
      </trkpt>
      <trkpt lat="44.79679" lon="3.7827">
        <ele>873.5</ele>
        <time>2025-12-14T12:40:08Z</time>
      </trkpt>
      <trkpt lat="44.79669" lon="3.78243">
        <ele>873.5</ele>
        <time>2025-12-14T12:40:25Z</time>
      </trkpt>
      <trkpt lat="44.7966" lon="3.78225">
        <ele>875.9</ele>
        <time>2025-12-14T12:40:42Z</time>
      </trkpt>
      <trkpt lat="44.79657" lon="3.78219">
        <ele>875.42</ele>
        <time>2025-12-14T12:40:59Z</time>
      </trkpt>
      <trkpt lat="44.79653" lon="3.78201">
        <ele>875.42</ele>
        <time>2025-12-14T12:41:17Z</time>
      </trkpt>
      <trkpt lat="44.79648" lon="3.78182">
        <ele>875.42</ele>
        <time>2025-12-14T12:41:29Z</time>
      </trkpt>
      <trkpt lat="44.79644" lon="3.78155">
        <ele>873.98</ele>
        <time>2025-12-14T12:41:45Z</time>
      </trkpt>
      <trkpt lat="44.79642" lon="3.78147">
        <ele>871.09</ele>
        <time>2025-12-14T12:42:11Z</time>
      </trkpt>
      <trkpt lat="44.79642" lon="3.78145">
        <ele>871.09</ele>
        <time>2025-12-14T12:42:20Z</time>
      </trkpt>
      <trkpt lat="44.79658" lon="3.78124">
        <ele>870.13</ele>
        <time>2025-12-14T12:42:32Z</time>
      </trkpt>
      <trkpt lat="44.7966" lon="3.78104">
        <ele>868.69</ele>
        <time>2025-12-14T12:42:37Z</time>
      </trkpt>
      <trkpt lat="44.79664" lon="3.78096">
        <ele>868.69</ele>
        <time>2025-12-14T12:42:47Z</time>
      </trkpt>
      <trkpt lat="44.79666" lon="3.78096">
        <ele>868.69</ele>
        <time>2025-12-14T12:43:01Z</time>
      </trkpt>
      <trkpt lat="44.79675" lon="3.78093">
        <ele>868.21</ele>
        <time>2025-12-14T12:43:19Z</time>
      </trkpt>
      <trkpt lat="44.79681" lon="3.78091">
        <ele>870.13</ele>
        <time>2025-12-14T12:43:36Z</time>
      </trkpt>
      <trkpt lat="44.7969" lon="3.78089">
        <ele>867.73</ele>
        <time>2025-12-14T12:43:57Z</time>
      </trkpt>
      <trkpt lat="44.79706" lon="3.78087">
        <ele>866.77</ele>
        <time>2025-12-14T12:44:12Z</time>
      </trkpt>
      <trkpt lat="44.79726" lon="3.7808">
        <ele>864.84</ele>
        <time>2025-12-14T12:44:26Z</time>
      </trkpt>
      <trkpt lat="44.79749" lon="3.78065">
        <ele>861</ele>
        <time>2025-12-14T12:44:38Z</time>
      </trkpt>
      <trkpt lat="44.79764" lon="3.78039">
        <ele>857.15</ele>
        <time>2025-12-14T12:44:52Z</time>
      </trkpt>
      <trkpt lat="44.79771" lon="3.78035">
        <ele>854.75</ele>
        <time>2025-12-14T12:44:58Z</time>
      </trkpt>
      <trkpt lat="44.79786" lon="3.78027">
        <ele>851.87</ele>
        <time>2025-12-14T12:45:14Z</time>
      </trkpt>
      <trkpt lat="44.7981" lon="3.78012">
        <ele>852.35</ele>
        <time>2025-12-14T12:45:33Z</time>
      </trkpt>
      <trkpt lat="44.79823" lon="3.78">
        <ele>851.87</ele>
        <time>2025-12-14T12:45:46Z</time>
      </trkpt>
      <trkpt lat="44.79824" lon="3.77998">
        <ele>855.23</ele>
        <time>2025-12-14T12:46:11Z</time>
      </trkpt>
      <trkpt lat="44.79834" lon="3.77995">
        <ele>853.31</ele>
        <time>2025-12-14T12:46:24Z</time>
      </trkpt>
      <trkpt lat="44.79838" lon="3.77994">
        <ele>850.9</ele>
        <time>2025-12-14T12:46:27Z</time>
      </trkpt>
      <trkpt lat="44.79853" lon="3.77977">
        <ele>845.14</ele>
        <time>2025-12-14T12:46:38Z</time>
      </trkpt>
      <trkpt lat="44.79864" lon="3.77956">
        <ele>839.85</ele>
        <time>2025-12-14T12:46:51Z</time>
      </trkpt>
      <trkpt lat="44.79867" lon="3.77955">
        <ele>838.89</ele>
        <time>2025-12-14T12:46:56Z</time>
      </trkpt>
      <trkpt lat="44.79872" lon="3.7795">
        <ele>836.96</ele>
        <time>2025-12-14T12:47:03Z</time>
      </trkpt>
      <trkpt lat="44.79886" lon="3.77949">
        <ele>835.04</ele>
        <time>2025-12-14T12:47:16Z</time>
      </trkpt>
      <trkpt lat="44.79889" lon="3.77951">
        <ele>834.08</ele>
        <time>2025-12-14T12:47:33Z</time>
      </trkpt>
      <trkpt lat="44.79898" lon="3.77966">
        <ele>828.79</ele>
        <time>2025-12-14T12:47:48Z</time>
      </trkpt>
      <trkpt lat="44.79922" lon="3.77991">
        <ele>825.43</ele>
        <time>2025-12-14T12:48:07Z</time>
      </trkpt>
      <trkpt lat="44.79925" lon="3.7799">
        <ele>826.87</ele>
        <time>2025-12-14T12:48:19Z</time>
      </trkpt>
      <trkpt lat="44.79929" lon="3.77986">
        <ele>826.87</ele>
        <time>2025-12-14T12:48:32Z</time>
      </trkpt>
      <trkpt lat="44.79927" lon="3.77972">
        <ele>829.27</ele>
        <time>2025-12-14T12:48:53Z</time>
      </trkpt>
      <trkpt lat="44.79929" lon="3.77972">
        <ele>830.24</ele>
        <time>2025-12-14T12:49:11Z</time>
      </trkpt>
      <trkpt lat="44.79935" lon="3.77969">
        <ele>834.08</ele>
        <time>2025-12-14T12:49:41Z</time>
      </trkpt>
      <trkpt lat="44.79941" lon="3.77956">
        <ele>836.48</ele>
        <time>2025-12-14T12:50:01Z</time>
      </trkpt>
      <trkpt lat="44.79941" lon="3.7795">
        <ele>838.41</ele>
        <time>2025-12-14T12:50:24Z</time>
      </trkpt>
      <trkpt lat="44.79936" lon="3.77954">
        <ele>839.85</ele>
        <time>2025-12-14T12:50:52Z</time>
      </trkpt>
      <trkpt lat="44.79941" lon="3.77976">
        <ele>841.77</ele>
        <time>2025-12-14T12:51:12Z</time>
      </trkpt>
      <trkpt lat="44.79943" lon="3.77974">
        <ele>842.25</ele>
        <time>2025-12-14T12:51:14Z</time>
      </trkpt>
      <trkpt lat="44.79958" lon="3.77953">
        <ele>846.1</ele>
        <time>2025-12-14T12:51:32Z</time>
      </trkpt>
      <trkpt lat="44.79961" lon="3.77924">
        <ele>849.46</ele>
        <time>2025-12-14T12:51:50Z</time>
      </trkpt>
      <trkpt lat="44.79966" lon="3.77894">
        <ele>851.38</ele>
        <time>2025-12-14T12:52:08Z</time>
      </trkpt>
      <trkpt lat="44.79972" lon="3.77886">
        <ele>856.19</ele>
        <time>2025-12-14T12:52:22Z</time>
      </trkpt>
      <trkpt lat="44.79973" lon="3.77891">
        <ele>857.15</ele>
        <time>2025-12-14T12:52:26Z</time>
      </trkpt>
      <trkpt lat="44.79977" lon="3.7791">
        <ele>860.52</ele>
        <time>2025-12-14T12:52:39Z</time>
      </trkpt>
      <trkpt lat="44.79983" lon="3.77927">
        <ele>863.4</ele>
        <time>2025-12-14T12:52:53Z</time>
      </trkpt>
      <trkpt lat="44.79988" lon="3.77944">
        <ele>865.8</ele>
        <time>2025-12-14T12:53:05Z</time>
      </trkpt>
      <trkpt lat="44.79992" lon="3.77963">
        <ele>868.69</ele>
        <time>2025-12-14T12:53:18Z</time>
      </trkpt>
      <trkpt lat="44.79992" lon="3.77977">
        <ele>872.53</ele>
        <time>2025-12-14T12:53:27Z</time>
      </trkpt>
      <trkpt lat="44.79992" lon="3.77995">
        <ele>873.98</ele>
        <time>2025-12-14T12:53:39Z</time>
      </trkpt>
      <trkpt lat="44.79995" lon="3.78014">
        <ele>875.9</ele>
        <time>2025-12-14T12:53:51Z</time>
      </trkpt>
      <trkpt lat="44.8" lon="3.78029">
        <ele>878.3</ele>
        <time>2025-12-14T12:54:03Z</time>
      </trkpt>
      <trkpt lat="44.80004" lon="3.78046">
        <ele>879.74</ele>
        <time>2025-12-14T12:54:15Z</time>
      </trkpt>
      <trkpt lat="44.80004" lon="3.78048">
        <ele>880.22</ele>
        <time>2025-12-14T12:54:17Z</time>
      </trkpt>
      <trkpt lat="44.8001" lon="3.78068">
        <ele>882.63</ele>
        <time>2025-12-14T12:54:29Z</time>
      </trkpt>
      <trkpt lat="44.80014" lon="3.78076">
        <ele>885.51</ele>
        <time>2025-12-14T12:54:40Z</time>
      </trkpt>
      <trkpt lat="44.80014" lon="3.78075">
        <ele>888.4</ele>
        <time>2025-12-14T12:55:02Z</time>
      </trkpt>
      <trkpt lat="44.80014" lon="3.78082">
        <ele>888.88</ele>
        <time>2025-12-14T12:55:22Z</time>
      </trkpt>
      <trkpt lat="44.80014" lon="3.78086">
        <ele>888.88</ele>
        <time>2025-12-14T12:55:29Z</time>
      </trkpt>
      <trkpt lat="44.80021" lon="3.78113">
        <ele>888.88</ele>
        <time>2025-12-14T12:55:47Z</time>
      </trkpt>
      <trkpt lat="44.80029" lon="3.78142">
        <ele>890.8</ele>
        <time>2025-12-14T12:56:07Z</time>
      </trkpt>
      <trkpt lat="44.80035" lon="3.78157">
        <ele>892.24</ele>
        <time>2025-12-14T12:56:24Z</time>
      </trkpt>
      <trkpt lat="44.80038" lon="3.78159">
        <ele>892.24</ele>
        <time>2025-12-14T12:56:39Z</time>
      </trkpt>
      <trkpt lat="44.80048" lon="3.78176">
        <ele>893.2</ele>
        <time>2025-12-14T12:56:55Z</time>
      </trkpt>
      <trkpt lat="44.80066" lon="3.78188">
        <ele>896.09</ele>
        <time>2025-12-14T12:57:14Z</time>
      </trkpt>
      <trkpt lat="44.80083" lon="3.78199">
        <ele>901.37</ele>
        <time>2025-12-14T12:57:34Z</time>
      </trkpt>
      <trkpt lat="44.80103" lon="3.78202">
        <ele>905.22</ele>
        <time>2025-12-14T12:57:53Z</time>
      </trkpt>
      <trkpt lat="44.80122" lon="3.78199">
        <ele>910.99</ele>
        <time>2025-12-14T12:58:13Z</time>
      </trkpt>
      <trkpt lat="44.80139" lon="3.78211">
        <ele>914.83</ele>
        <time>2025-12-14T12:58:32Z</time>
      </trkpt>
      <trkpt lat="44.80143" lon="3.7821">
        <ele>915.31</ele>
        <time>2025-12-14T12:58:36Z</time>
      </trkpt>
      <trkpt lat="44.80155" lon="3.78209">
        <ele>918.68</ele>
        <time>2025-12-14T12:58:45Z</time>
      </trkpt>
      <trkpt lat="44.80165" lon="3.78212">
        <ele>921.08</ele>
        <time>2025-12-14T12:58:55Z</time>
      </trkpt>
      <trkpt lat="44.80169" lon="3.7822">
        <ele>921.08</ele>
        <time>2025-12-14T12:59:01Z</time>
      </trkpt>
      <trkpt lat="44.80174" lon="3.78225">
        <ele>921.56</ele>
        <time>2025-12-14T12:59:04Z</time>
      </trkpt>
      <trkpt lat="44.80175" lon="3.78227">
        <ele>921.56</ele>
        <time>2025-12-14T12:59:05Z</time>
      </trkpt>
      <trkpt lat="44.80186" lon="3.78243">
        <ele>921.08</ele>
        <time>2025-12-14T12:59:19Z</time>
      </trkpt>
      <trkpt lat="44.80197" lon="3.78264">
        <ele>921.08</ele>
        <time>2025-12-14T12:59:36Z</time>
      </trkpt>
      <trkpt lat="44.80208" lon="3.78279">
        <ele>922.04</ele>
        <time>2025-12-14T12:59:51Z</time>
      </trkpt>
      <trkpt lat="44.80216" lon="3.78283">
        <ele>923</ele>
        <time>2025-12-14T13:00:06Z</time>
      </trkpt>
      <trkpt lat="44.80218" lon="3.7828">
        <ele>924.93</ele>
        <time>2025-12-14T13:00:24Z</time>
      </trkpt>
      <trkpt lat="44.80218" lon="3.78279">
        <ele>925.41</ele>
        <time>2025-12-14T13:00:48Z</time>
      </trkpt>
      <trkpt lat="44.80218" lon="3.78279">
        <ele>927.33</ele>
        <time>2025-12-14T13:01:17Z</time>
      </trkpt>
      <trkpt lat="44.80216" lon="3.78275">
        <ele>934.54</ele>
        <time>2025-12-14T13:01:48Z</time>
      </trkpt>
      <trkpt lat="44.80214" lon="3.78277">
        <ele>935.5</ele>
        <time>2025-12-14T13:02:07Z</time>
      </trkpt>
      <trkpt lat="44.80217" lon="3.78278">
        <ele>934.54</ele>
        <time>2025-12-14T13:02:31Z</time>
      </trkpt>
      <trkpt lat="44.80216" lon="3.78278">
        <ele>933.58</ele>
        <time>2025-12-14T13:03:02Z</time>
      </trkpt>
      <trkpt lat="44.80215" lon="3.78276">
        <ele>933.1</ele>
        <time>2025-12-14T13:03:34Z</time>
      </trkpt>
      <trkpt lat="44.80214" lon="3.78274">
        <ele>930.69</ele>
        <time>2025-12-14T13:04:01Z</time>
      </trkpt>
      <trkpt lat="44.80215" lon="3.78274">
        <ele>928.77</ele>
        <time>2025-12-14T13:04:33Z</time>
      </trkpt>
      <trkpt lat="44.80216" lon="3.78275">
        <ele>927.33</ele>
        <time>2025-12-14T13:04:57Z</time>
      </trkpt>
      <trkpt lat="44.80217" lon="3.78278">
        <ele>925.41</ele>
        <time>2025-12-14T13:05:22Z</time>
      </trkpt>
      <trkpt lat="44.80218" lon="3.78278">
        <ele>925.89</ele>
        <time>2025-12-14T13:05:45Z</time>
      </trkpt>
      <trkpt lat="44.80221" lon="3.78278">
        <ele>928.77</ele>
        <time>2025-12-14T13:06:00Z</time>
      </trkpt>
      <trkpt lat="44.80224" lon="3.78279">
        <ele>928.29</ele>
        <time>2025-12-14T13:06:08Z</time>
      </trkpt>
      <trkpt lat="44.80229" lon="3.78282">
        <ele>927.81</ele>
        <time>2025-12-14T13:06:13Z</time>
      </trkpt>
      <trkpt lat="44.8024" lon="3.78289">
        <ele>926.37</ele>
        <time>2025-12-14T13:06:29Z</time>
        <extensions>
          <visugpx:TrkExtension xmlns:visugpx="https://www.visugpx.com/editgpx/">
            <visugpx:node>1</visugpx:node>
            </visugpx:TrkExtension>
        </extensions>
      </trkpt>
      <trkpt lat="44.80248" lon="3.78292">
        <ele>928.9</ele>
      </trkpt>
      <trkpt lat="44.8027" lon="3.78305">
        <ele>929</ele>
      </trkpt>
      <trkpt lat="44.80294" lon="3.7834">
        <ele>930</ele>
      </trkpt>
      <trkpt lat="44.80309" lon="3.7835">
        <ele>930.1</ele>
      </trkpt>
      <trkpt lat="44.80328" lon="3.7836">
        <ele>930.8</ele>
      </trkpt>
      <trkpt lat="44.80338" lon="3.78364">
        <ele>931.3</ele>
      </trkpt>
      <trkpt lat="44.80346" lon="3.78366">
        <ele>931.6</ele>
        <extensions>
          <visugpx:TrkExtension xmlns:visugpx="https://www.visugpx.com/editgpx/">
            <visugpx:node>2</visugpx:node>
            </visugpx:TrkExtension>
        </extensions>
      </trkpt>
      <trkpt lat="44.80338" lon="3.78364">
        <ele>931.3</ele>
      </trkpt>
      <trkpt lat="44.80347" lon="3.78361">
        <ele>931.5</ele>
      </trkpt>
      <trkpt lat="44.80353" lon="3.78355">
        <ele>931.7</ele>
      </trkpt>
      <trkpt lat="44.80358" lon="3.78347">
        <ele>931.9</ele>
      </trkpt>
      <trkpt lat="44.80363" lon="3.78332">
        <ele>932</ele>
      </trkpt>
      <trkpt lat="44.80374" lon="3.78326">
        <ele>931.7</ele>
      </trkpt>
      <trkpt lat="44.80374" lon="3.78319">
        <ele>931.5</ele>
      </trkpt>
      <trkpt lat="44.80396" lon="3.78279">
        <ele>931</ele>
      </trkpt>
      <trkpt lat="44.80402" lon="3.78274">
        <ele>930.9</ele>
      </trkpt>
      <trkpt lat="44.80452" lon="3.7819">
        <ele>928</ele>
      </trkpt>
      <trkpt lat="44.80466" lon="3.78162">
        <ele>927.1</ele>
      </trkpt>
      <trkpt lat="44.80483" lon="3.7812">
        <ele>925.3</ele>
      </trkpt>
      <trkpt lat="44.80506" lon="3.78082">
        <ele>923.9</ele>
      </trkpt>
      <trkpt lat="44.80528" lon="3.78053">
        <ele>921.9</ele>
      </trkpt>
      <trkpt lat="44.80547" lon="3.78024">
        <ele>920.8</ele>
      </trkpt>
      <trkpt lat="44.8056" lon="3.78">
        <ele>919</ele>
      </trkpt>
      <trkpt lat="44.80572" lon="3.77964">
        <ele>916.4</ele>
      </trkpt>
      <trkpt lat="44.8058" lon="3.77949">
        <ele>914.7</ele>
      </trkpt>
      <trkpt lat="44.80597" lon="3.77928">
        <ele>912.5</ele>
      </trkpt>
      <trkpt lat="44.80599" lon="3.77924">
        <ele>912</ele>
        <extensions>
          <visugpx:TrkExtension xmlns:visugpx="https://www.visugpx.com/editgpx/">
            <visugpx:node>3</visugpx:node>
            </visugpx:TrkExtension>
        </extensions>
      </trkpt>
      <trkpt lat="44.80608" lon="3.77921">
        <ele>908.58</ele>
        <time>2025-12-14T13:18:29Z</time>
        <extensions>
          <visugpx:TrkExtension xmlns:visugpx="https://www.visugpx.com/editgpx/">
            <visugpx:node>4</visugpx:node>
            </visugpx:TrkExtension>
        </extensions>
      </trkpt>
      <trkpt lat="44.80617" lon="3.77899">
        <ele>905.7</ele>
        <time>2025-12-14T13:18:44Z</time>
      </trkpt>
      <trkpt lat="44.80625" lon="3.77892">
        <ele>905.22</ele>
        <time>2025-12-14T13:18:52Z</time>
      </trkpt>
      <trkpt lat="44.80649" lon="3.77889">
        <ele>902.82</ele>
        <time>2025-12-14T13:19:11Z</time>
      </trkpt>
      <trkpt lat="44.80653" lon="3.77889">
        <ele>902.82</ele>
        <time>2025-12-14T13:19:15Z</time>
      </trkpt>
      <trkpt lat="44.80674" lon="3.77892">
        <ele>900.89</ele>
        <time>2025-12-14T13:19:31Z</time>
      </trkpt>
      <trkpt lat="44.8069" lon="3.77895">
        <ele>898.97</ele>
        <time>2025-12-14T13:19:46Z</time>
      </trkpt>
      <trkpt lat="44.8071" lon="3.77894">
        <ele>898.49</ele>
        <time>2025-12-14T13:20:01Z</time>
      </trkpt>
      <trkpt lat="44.8073" lon="3.77896">
        <ele>896.57</ele>
        <time>2025-12-14T13:20:16Z</time>
      </trkpt>
      <trkpt lat="44.80749" lon="3.77909">
        <ele>893.68</ele>
        <time>2025-12-14T13:20:33Z</time>
      </trkpt>
      <trkpt lat="44.80768" lon="3.77924">
        <ele>889.84</ele>
        <time>2025-12-14T13:20:52Z</time>
      </trkpt>
      <trkpt lat="44.80789" lon="3.77936">
        <ele>887.91</ele>
        <time>2025-12-14T13:21:10Z</time>
      </trkpt>
      <trkpt lat="44.80805" lon="3.77941">
        <ele>885.99</ele>
        <time>2025-12-14T13:21:25Z</time>
      </trkpt>
      <trkpt lat="44.80819" lon="3.77937">
        <ele>884.55</ele>
        <time>2025-12-14T13:21:43Z</time>
      </trkpt>
      <trkpt lat="44.80823" lon="3.77937">
        <ele>881.67</ele>
        <time>2025-12-14T13:22:06Z</time>
      </trkpt>
      <trkpt lat="44.80834" lon="3.77928">
        <ele>882.15</ele>
        <time>2025-12-14T13:22:26Z</time>
      </trkpt>
      <trkpt lat="44.80844" lon="3.77912">
        <ele>884.55</ele>
        <time>2025-12-14T13:22:46Z</time>
      </trkpt>
      <trkpt lat="44.80847" lon="3.77894">
        <ele>883.59</ele>
        <time>2025-12-14T13:23:08Z</time>
      </trkpt>
      <trkpt lat="44.8085" lon="3.77875">
        <ele>882.63</ele>
        <time>2025-12-14T13:23:27Z</time>
      </trkpt>
      <trkpt lat="44.80851" lon="3.77852">
        <ele>885.03</ele>
        <time>2025-12-14T13:23:45Z</time>
      </trkpt>
      <trkpt lat="44.80845" lon="3.77828">
        <ele>891.28</ele>
        <time>2025-12-14T13:24:03Z</time>
      </trkpt>
      <trkpt lat="44.80843" lon="3.77809">
        <ele>894.16</ele>
        <time>2025-12-14T13:24:22Z</time>
      </trkpt>
      <trkpt lat="44.80841" lon="3.77785">
        <ele>903.78</ele>
        <time>2025-12-14T13:24:39Z</time>
      </trkpt>
      <trkpt lat="44.80842" lon="3.77762">
        <ele>909.06</ele>
        <time>2025-12-14T13:25:00Z</time>
      </trkpt>
      <trkpt lat="44.8084" lon="3.77746">
        <ele>912.91</ele>
        <time>2025-12-14T13:25:22Z</time>
      </trkpt>
      <trkpt lat="44.80849" lon="3.77725">
        <ele>913.87</ele>
        <time>2025-12-14T13:25:40Z</time>
      </trkpt>
      <trkpt lat="44.80866" lon="3.77701">
        <ele>911.95</ele>
        <time>2025-12-14T13:26:00Z</time>
      </trkpt>
      <trkpt lat="44.80873" lon="3.77692">
        <ele>911.47</ele>
        <time>2025-12-14T13:26:18Z</time>
      </trkpt>
      <trkpt lat="44.80874" lon="3.77689">
        <ele>912.91</ele>
        <time>2025-12-14T13:26:40Z</time>
      </trkpt>
      <trkpt lat="44.80873" lon="3.77688">
        <ele>914.35</ele>
        <time>2025-12-14T13:27:05Z</time>
      </trkpt>
      <trkpt lat="44.80873" lon="3.77687">
        <ele>915.31</ele>
        <time>2025-12-14T13:27:27Z</time>
      </trkpt>
      <trkpt lat="44.80874" lon="3.77686">
        <ele>917.24</ele>
        <time>2025-12-14T13:27:56Z</time>
      </trkpt>
      <trkpt lat="44.80873" lon="3.77685">
        <ele>917.72</ele>
        <time>2025-12-14T13:28:25Z</time>
      </trkpt>
      <trkpt lat="44.80873" lon="3.77685">
        <ele>918.2</ele>
        <time>2025-12-14T13:28:53Z</time>
      </trkpt>
      <trkpt lat="44.80874" lon="3.77686">
        <ele>917.24</ele>
        <time>2025-12-14T13:29:29Z</time>
      </trkpt>
      <trkpt lat="44.8089" lon="3.7768">
        <ele>917.24</ele>
        <time>2025-12-14T13:29:48Z</time>
      </trkpt>
      <trkpt lat="44.80905" lon="3.77677">
        <ele>916.75</ele>
        <time>2025-12-14T13:30:01Z</time>
      </trkpt>
      <trkpt lat="44.80922" lon="3.77685">
        <ele>918.2</ele>
        <time>2025-12-14T13:30:16Z</time>
      </trkpt>
      <trkpt lat="44.80943" lon="3.77699">
        <ele>919.16</ele>
        <time>2025-12-14T13:30:35Z</time>
      </trkpt>
      <trkpt lat="44.8096" lon="3.77717">
        <ele>920.6</ele>
        <time>2025-12-14T13:30:51Z</time>
      </trkpt>
      <trkpt lat="44.80974" lon="3.77734">
        <ele>920.12</ele>
        <time>2025-12-14T13:31:07Z</time>
      </trkpt>
      <trkpt lat="44.80991" lon="3.77751">
        <ele>921.08</ele>
        <time>2025-12-14T13:31:24Z</time>
      </trkpt>
      <trkpt lat="44.81004" lon="3.77771">
        <ele>924.45</ele>
        <time>2025-12-14T13:31:39Z</time>
      </trkpt>
      <trkpt lat="44.81015" lon="3.77798">
        <ele>927.33</ele>
        <time>2025-12-14T13:31:58Z</time>
      </trkpt>
      <trkpt lat="44.81016" lon="3.77805">
        <ele>927.81</ele>
        <time>2025-12-14T13:32:02Z</time>
      </trkpt>
      <trkpt lat="44.81024" lon="3.77839">
        <ele>927.33</ele>
        <time>2025-12-14T13:32:20Z</time>
      </trkpt>
      <trkpt lat="44.81036" lon="3.77869">
        <ele>928.29</ele>
        <time>2025-12-14T13:32:38Z</time>
      </trkpt>
      <trkpt lat="44.81046" lon="3.77893">
        <ele>927.81</ele>
        <time>2025-12-14T13:32:54Z</time>
      </trkpt>
      <trkpt lat="44.81057" lon="3.77923">
        <ele>927.33</ele>
        <time>2025-12-14T13:33:12Z</time>
      </trkpt>
      <trkpt lat="44.81066" lon="3.77953">
        <ele>927.33</ele>
        <time>2025-12-14T13:33:31Z</time>
      </trkpt>
      <trkpt lat="44.81078" lon="3.7799">
        <ele>928.77</ele>
        <time>2025-12-14T13:33:50Z</time>
      </trkpt>
      <trkpt lat="44.81092" lon="3.7801">
        <ele>931.17</ele>
        <time>2025-12-14T13:34:06Z</time>
      </trkpt>
      <trkpt lat="44.81112" lon="3.78016">
        <ele>932.62</ele>
        <time>2025-12-14T13:34:24Z</time>
      </trkpt>
      <trkpt lat="44.8113" lon="3.78038">
        <ele>934.54</ele>
        <time>2025-12-14T13:34:40Z</time>
      </trkpt>
      <trkpt lat="44.81147" lon="3.7806">
        <ele>937.9</ele>
        <time>2025-12-14T13:34:57Z</time>
      </trkpt>
      <trkpt lat="44.81162" lon="3.78081">
        <ele>938.86</ele>
        <time>2025-12-14T13:35:13Z</time>
      </trkpt>
      <trkpt lat="44.81177" lon="3.78102">
        <ele>939.35</ele>
        <time>2025-12-14T13:35:29Z</time>
      </trkpt>
      <trkpt lat="44.81193" lon="3.78131">
        <ele>939.83</ele>
        <time>2025-12-14T13:35:47Z</time>
      </trkpt>
      <trkpt lat="44.8121" lon="3.78158">
        <ele>939.83</ele>
        <time>2025-12-14T13:36:06Z</time>
      </trkpt>
      <trkpt lat="44.81222" lon="3.78189">
        <ele>939.83</ele>
        <time>2025-12-14T13:36:25Z</time>
      </trkpt>
      <trkpt lat="44.81236" lon="3.78226">
        <ele>941.75</ele>
        <time>2025-12-14T13:36:46Z</time>
      </trkpt>
      <trkpt lat="44.81247" lon="3.78256">
        <ele>943.19</ele>
        <time>2025-12-14T13:37:04Z</time>
      </trkpt>
      <trkpt lat="44.81258" lon="3.78283">
        <ele>943.19</ele>
        <time>2025-12-14T13:37:19Z</time>
      </trkpt>
      <trkpt lat="44.81273" lon="3.78308">
        <ele>944.15</ele>
        <time>2025-12-14T13:37:36Z</time>
      </trkpt>
      <trkpt lat="44.81285" lon="3.78321">
        <ele>943.19</ele>
        <time>2025-12-14T13:37:47Z</time>
      </trkpt>
      <trkpt lat="44.81302" lon="3.7834">
        <ele>943.67</ele>
        <time>2025-12-14T13:38:05Z</time>
      </trkpt>
      <trkpt lat="44.81318" lon="3.78366">
        <ele>945.11</ele>
        <time>2025-12-14T13:38:20Z</time>
      </trkpt>
      <trkpt lat="44.81333" lon="3.78387">
        <ele>946.56</ele>
        <time>2025-12-14T13:38:35Z</time>
      </trkpt>
      <trkpt lat="44.81346" lon="3.78412">
        <ele>949.44</ele>
        <time>2025-12-14T13:38:53Z</time>
      </trkpt>
      <trkpt lat="44.8136" lon="3.78443">
        <ele>948</ele>
        <time>2025-12-14T13:39:11Z</time>
      </trkpt>
      <trkpt lat="44.81373" lon="3.7847">
        <ele>945.59</ele>
        <time>2025-12-14T13:39:28Z</time>
      </trkpt>
      <trkpt lat="44.81388" lon="3.78503">
        <ele>945.59</ele>
        <time>2025-12-14T13:39:48Z</time>
      </trkpt>
      <trkpt lat="44.81402" lon="3.78529">
        <ele>946.56</ele>
        <time>2025-12-14T13:40:05Z</time>
      </trkpt>
      <trkpt lat="44.81415" lon="3.78552">
        <ele>946.07</ele>
        <time>2025-12-14T13:40:20Z</time>
      </trkpt>
      <trkpt lat="44.81433" lon="3.78577">
        <ele>945.11</ele>
        <time>2025-12-14T13:40:39Z</time>
      </trkpt>
      <trkpt lat="44.81444" lon="3.78602">
        <ele>946.07</ele>
        <time>2025-12-14T13:40:55Z</time>
      </trkpt>
      <trkpt lat="44.81456" lon="3.78633">
        <ele>947.52</ele>
        <time>2025-12-14T13:41:12Z</time>
      </trkpt>
      <trkpt lat="44.81457" lon="3.78671">
        <ele>947.52</ele>
        <time>2025-12-14T13:41:31Z</time>
      </trkpt>
      <trkpt lat="44.81462" lon="3.78703">
        <ele>948.48</ele>
        <time>2025-12-14T13:41:50Z</time>
      </trkpt>
      <trkpt lat="44.81463" lon="3.78707">
        <ele>948.48</ele>
        <time>2025-12-14T13:41:52Z</time>
      </trkpt>
      <trkpt lat="44.81464" lon="3.78745">
        <ele>949.44</ele>
        <time>2025-12-14T13:42:10Z</time>
      </trkpt>
      <trkpt lat="44.81462" lon="3.78781">
        <ele>951.36</ele>
        <time>2025-12-14T13:42:29Z</time>
      </trkpt>
      <trkpt lat="44.81479" lon="3.78809">
        <ele>952.8</ele>
        <time>2025-12-14T13:42:47Z</time>
      </trkpt>
      <trkpt lat="44.81495" lon="3.78828">
        <ele>953.77</ele>
        <time>2025-12-14T13:43:03Z</time>
      </trkpt>
      <trkpt lat="44.81512" lon="3.78855">
        <ele>955.21</ele>
        <time>2025-12-14T13:43:22Z</time>
      </trkpt>
      <trkpt lat="44.8153" lon="3.78877">
        <ele>956.65</ele>
        <time>2025-12-14T13:43:40Z</time>
      </trkpt>
      <trkpt lat="44.81533" lon="3.78879">
        <ele>956.65</ele>
        <time>2025-12-14T13:43:42Z</time>
      </trkpt>
      <trkpt lat="44.81538" lon="3.78881">
        <ele>956.65</ele>
        <time>2025-12-14T13:43:46Z</time>
      </trkpt>
      <trkpt lat="44.81543" lon="3.78887">
        <ele>957.13</ele>
        <time>2025-12-14T13:43:50Z</time>
      </trkpt>
      <trkpt lat="44.81562" lon="3.78902">
        <ele>957.13</ele>
        <time>2025-12-14T13:44:06Z</time>
      </trkpt>
      <trkpt lat="44.8158" lon="3.78916">
        <ele>956.17</ele>
        <time>2025-12-14T13:44:21Z</time>
      </trkpt>
      <trkpt lat="44.81598" lon="3.78938">
        <ele>957.13</ele>
        <time>2025-12-14T13:44:36Z</time>
      </trkpt>
      <trkpt lat="44.81616" lon="3.78956">
        <ele>958.09</ele>
        <time>2025-12-14T13:44:52Z</time>
      </trkpt>
      <trkpt lat="44.81633" lon="3.78979">
        <ele>959.53</ele>
        <time>2025-12-14T13:45:08Z</time>
      </trkpt>
      <trkpt lat="44.81653" lon="3.79011">
        <ele>962.42</ele>
        <time>2025-12-14T13:45:31Z</time>
      </trkpt>
      <trkpt lat="44.81668" lon="3.79039">
        <ele>964.34</ele>
        <time>2025-12-14T13:45:49Z</time>
      </trkpt>
      <trkpt lat="44.81681" lon="3.79059">
        <ele>965.3</ele>
        <time>2025-12-14T13:46:04Z</time>
      </trkpt>
      <trkpt lat="44.81682" lon="3.79062">
        <ele>965.3</ele>
        <time>2025-12-14T13:46:06Z</time>
      </trkpt>
      <trkpt lat="44.81683" lon="3.79063">
        <ele>965.78</ele>
        <time>2025-12-14T13:46:07Z</time>
      </trkpt>
      <trkpt lat="44.81686" lon="3.79069">
        <ele>966.26</ele>
        <time>2025-12-14T13:46:11Z</time>
      </trkpt>
      <trkpt lat="44.81687" lon="3.79071">
        <ele>966.26</ele>
        <time>2025-12-14T13:46:12Z</time>
      </trkpt>
      <trkpt lat="44.81687" lon="3.79072">
        <ele>966.74</ele>
        <time>2025-12-14T13:46:13Z</time>
      </trkpt>
      <trkpt lat="44.81697" lon="3.7909">
        <ele>969.63</ele>
        <time>2025-12-14T13:46:26Z</time>
      </trkpt>
      <trkpt lat="44.8171" lon="3.79106">
        <ele>970.59</ele>
        <time>2025-12-14T13:46:39Z</time>
      </trkpt>
      <trkpt lat="44.8172" lon="3.79118">
        <ele>971.55</ele>
        <time>2025-12-14T13:46:49Z</time>
      </trkpt>
      <trkpt lat="44.81729" lon="3.79127">
        <ele>972.03</ele>
        <time>2025-12-14T13:46:58Z</time>
      </trkpt>
      <trkpt lat="44.81743" lon="3.79138">
        <ele>973.47</ele>
        <time>2025-12-14T13:47:10Z</time>
      </trkpt>
      <trkpt lat="44.81755" lon="3.79146">
        <ele>974.43</ele>
        <time>2025-12-14T13:47:20Z</time>
      </trkpt>
      <trkpt lat="44.81759" lon="3.79149">
        <ele>975.39</ele>
        <time>2025-12-14T13:47:24Z</time>
      </trkpt>
      <trkpt lat="44.81782" lon="3.79171">
        <ele>977.8</ele>
        <time>2025-12-14T13:47:43Z</time>
      </trkpt>
      <trkpt lat="44.81794" lon="3.79186">
        <ele>979.72</ele>
        <time>2025-12-14T13:47:58Z</time>
      </trkpt>
      <trkpt lat="44.81794" lon="3.79194">
        <ele>979.72</ele>
        <time>2025-12-14T13:48:14Z</time>
      </trkpt>
      <trkpt lat="44.81792" lon="3.79205">
        <ele>979.24</ele>
        <time>2025-12-14T13:48:27Z</time>
      </trkpt>
      <trkpt lat="44.81787" lon="3.79232">
        <ele>976.84</ele>
        <time>2025-12-14T13:48:45Z</time>
      </trkpt>
      <trkpt lat="44.81789" lon="3.7926">
        <ele>973.95</ele>
        <time>2025-12-14T13:49:02Z</time>
      </trkpt>
      <trkpt lat="44.818" lon="3.7929">
        <ele>968.18</ele>
        <time>2025-12-14T13:49:24Z</time>
      </trkpt>
      <trkpt lat="44.818" lon="3.79296">
        <ele>968.18</ele>
        <time>2025-12-14T13:49:26Z</time>
      </trkpt>
      <trkpt lat="44.81801" lon="3.79299">
        <ele>968.18</ele>
        <time>2025-12-14T13:49:27Z</time>
      </trkpt>
      <trkpt lat="44.8181" lon="3.79341">
        <ele>964.34</ele>
        <time>2025-12-14T13:49:46Z</time>
      </trkpt>
      <trkpt lat="44.81821" lon="3.7938">
        <ele>961.94</ele>
        <time>2025-12-14T13:50:05Z</time>
      </trkpt>
      <trkpt lat="44.81829" lon="3.79414">
        <ele>959.05</ele>
        <time>2025-12-14T13:50:23Z</time>
      </trkpt>
      <trkpt lat="44.81825" lon="3.79423">
        <ele>958.57</ele>
        <time>2025-12-14T13:50:30Z</time>
      </trkpt>
      <trkpt lat="44.81825" lon="3.79425">
        <ele>958.57</ele>
        <time>2025-12-14T13:50:31Z</time>
      </trkpt>
      <trkpt lat="44.81824" lon="3.79427">
        <ele>958.57</ele>
        <time>2025-12-14T13:50:32Z</time>
      </trkpt>
      <trkpt lat="44.81804" lon="3.79453">
        <ele>957.61</ele>
        <time>2025-12-14T13:50:52Z</time>
      </trkpt>
      <trkpt lat="44.81784" lon="3.79472">
        <ele>956.65</ele>
        <time>2025-12-14T13:51:11Z</time>
      </trkpt>
      <trkpt lat="44.81766" lon="3.79452">
        <ele>952.8</ele>
        <time>2025-12-14T13:51:29Z</time>
      </trkpt>
      <trkpt lat="44.8175" lon="3.79435">
        <ele>951.36</ele>
        <time>2025-12-14T13:51:45Z</time>
      </trkpt>
      <trkpt lat="44.81722" lon="3.79422">
        <ele>951.36</ele>
        <time>2025-12-14T13:52:05Z</time>
      </trkpt>
      <trkpt lat="44.81694" lon="3.79415">
        <ele>953.77</ele>
        <time>2025-12-14T13:52:24Z</time>
      </trkpt>
      <trkpt lat="44.81664" lon="3.79412">
        <ele>959.05</ele>
        <time>2025-12-14T13:52:43Z</time>
      </trkpt>
      <trkpt lat="44.81633" lon="3.79408">
        <ele>961.46</ele>
        <time>2025-12-14T13:53:04Z</time>
      </trkpt>
      <trkpt lat="44.81607" lon="3.79406">
        <ele>962.42</ele>
        <time>2025-12-14T13:53:21Z</time>
      </trkpt>
      <trkpt lat="44.8158" lon="3.79409">
        <ele>964.82</ele>
        <time>2025-12-14T13:53:42Z</time>
      </trkpt>
      <trkpt lat="44.81554" lon="3.79417">
        <ele>964.34</ele>
        <time>2025-12-14T13:54:00Z</time>
      </trkpt>
      <trkpt lat="44.81533" lon="3.79436">
        <ele>966.26</ele>
        <time>2025-12-14T13:54:18Z</time>
      </trkpt>
      <trkpt lat="44.8153" lon="3.7945">
        <ele>966.26</ele>
        <time>2025-12-14T13:54:32Z</time>
      </trkpt>
      <trkpt lat="44.8153" lon="3.79456">
        <ele>966.74</ele>
        <time>2025-12-14T13:54:45Z</time>
      </trkpt>
      <trkpt lat="44.81528" lon="3.79481">
        <ele>967.7</ele>
        <time>2025-12-14T13:54:59Z</time>
      </trkpt>
      <trkpt lat="44.81524" lon="3.79509">
        <ele>967.7</ele>
        <time>2025-12-14T13:55:15Z</time>
      </trkpt>
      <trkpt lat="44.81516" lon="3.79537">
        <ele>969.15</ele>
        <time>2025-12-14T13:55:32Z</time>
      </trkpt>
      <trkpt lat="44.81507" lon="3.79568">
        <ele>970.11</ele>
        <time>2025-12-14T13:55:50Z</time>
      </trkpt>
      <trkpt lat="44.81499" lon="3.796">
        <ele>971.55</ele>
        <time>2025-12-14T13:56:07Z</time>
      </trkpt>
      <trkpt lat="44.81513" lon="3.79612">
        <ele>974.43</ele>
        <time>2025-12-14T13:56:21Z</time>
      </trkpt>
      <trkpt lat="44.81532" lon="3.79619">
        <ele>976.84</ele>
        <time>2025-12-14T13:56:35Z</time>
      </trkpt>
      <trkpt lat="44.8155" lon="3.79631">
        <ele>978.28</ele>
        <time>2025-12-14T13:56:50Z</time>
      </trkpt>
      <trkpt lat="44.81566" lon="3.79643">
        <ele>979.72</ele>
        <time>2025-12-14T13:57:03Z</time>
      </trkpt>
      <trkpt lat="44.81586" lon="3.79652">
        <ele>981.64</ele>
        <time>2025-12-14T13:57:17Z</time>
      </trkpt>
      <trkpt lat="44.816" lon="3.79662">
        <ele>982.12</ele>
        <time>2025-12-14T13:57:30Z</time>
      </trkpt>
      <trkpt lat="44.81621" lon="3.79686">
        <ele>985.49</ele>
        <time>2025-12-14T13:57:49Z</time>
      </trkpt>
      <trkpt lat="44.81641" lon="3.797">
        <ele>987.89</ele>
        <time>2025-12-14T13:58:07Z</time>
      </trkpt>
      <trkpt lat="44.8166" lon="3.79717">
        <ele>988.85</ele>
        <time>2025-12-14T13:58:23Z</time>
      </trkpt>
      <trkpt lat="44.81681" lon="3.79731">
        <ele>988.85</ele>
        <time>2025-12-14T13:58:39Z</time>
      </trkpt>
      <trkpt lat="44.81701" lon="3.7975">
        <ele>989.81</ele>
        <time>2025-12-14T13:58:56Z</time>
      </trkpt>
      <trkpt lat="44.81721" lon="3.79764">
        <ele>990.78</ele>
        <time>2025-12-14T13:59:13Z</time>
      </trkpt>
      <trkpt lat="44.81745" lon="3.79784">
        <ele>989.33</ele>
        <time>2025-12-14T13:59:32Z</time>
      </trkpt>
      <trkpt lat="44.81768" lon="3.79803">
        <ele>992.22</ele>
        <time>2025-12-14T13:59:51Z</time>
      </trkpt>
      <trkpt lat="44.81786" lon="3.79818">
        <ele>992.7</ele>
        <time>2025-12-14T14:00:04Z</time>
      </trkpt>
      <trkpt lat="44.818" lon="3.79831">
        <ele>992.7</ele>
        <time>2025-12-14T14:00:17Z</time>
      </trkpt>
      <trkpt lat="44.81816" lon="3.79842">
        <ele>992.7</ele>
        <time>2025-12-14T14:00:29Z</time>
      </trkpt>
      <trkpt lat="44.81831" lon="3.79852">
        <ele>993.18</ele>
        <time>2025-12-14T14:00:40Z</time>
      </trkpt>
      <trkpt lat="44.81845" lon="3.79864">
        <ele>992.22</ele>
        <time>2025-12-14T14:00:53Z</time>
      </trkpt>
      <trkpt lat="44.81857" lon="3.79876">
        <ele>991.74</ele>
        <time>2025-12-14T14:01:04Z</time>
      </trkpt>
      <trkpt lat="44.81868" lon="3.79881">
        <ele>991.74</ele>
        <time>2025-12-14T14:01:15Z</time>
      </trkpt>
      <trkpt lat="44.81886" lon="3.79885">
        <ele>992.22</ele>
        <time>2025-12-14T14:01:27Z</time>
      </trkpt>
      <trkpt lat="44.81899" lon="3.79887">
        <ele>992.7</ele>
        <time>2025-12-14T14:01:36Z</time>
      </trkpt>
      <trkpt lat="44.81914" lon="3.79884">
        <ele>993.18</ele>
        <time>2025-12-14T14:01:48Z</time>
      </trkpt>
      <trkpt lat="44.81929" lon="3.79881">
        <ele>994.14</ele>
        <time>2025-12-14T14:02:00Z</time>
      </trkpt>
      <trkpt lat="44.81943" lon="3.79881">
        <ele>992.22</ele>
        <time>2025-12-14T14:02:12Z</time>
      </trkpt>
      <trkpt lat="44.81948" lon="3.79883">
        <ele>991.26</ele>
        <time>2025-12-14T14:02:25Z</time>
      </trkpt>
      <trkpt lat="44.81947" lon="3.79883">
        <ele>990.78</ele>
        <time>2025-12-14T14:02:50Z</time>
      </trkpt>
      <trkpt lat="44.81946" lon="3.79883">
        <ele>989.81</ele>
        <time>2025-12-14T14:03:12Z</time>
      </trkpt>
      <trkpt lat="44.81949" lon="3.79882">
        <ele>987.41</ele>
        <time>2025-12-14T14:03:32Z</time>
      </trkpt>
      <trkpt lat="44.81948" lon="3.79885">
        <ele>985.97</ele>
        <time>2025-12-14T14:03:45Z</time>
      </trkpt>
      <trkpt lat="44.81948" lon="3.79891">
        <ele>986.93</ele>
        <time>2025-12-14T14:03:54Z</time>
      </trkpt>
      <trkpt lat="44.8195" lon="3.7991">
        <ele>988.85</ele>
        <time>2025-12-14T14:04:04Z</time>
      </trkpt>
      <trkpt lat="44.81951" lon="3.79934">
        <ele>989.81</ele>
        <time>2025-12-14T14:04:17Z</time>
      </trkpt>
      <trkpt lat="44.81951" lon="3.79947">
        <ele>990.78</ele>
        <time>2025-12-14T14:04:25Z</time>
      </trkpt>
      <trkpt lat="44.81953" lon="3.79972">
        <ele>992.7</ele>
        <time>2025-12-14T14:04:38Z</time>
      </trkpt>
      <trkpt lat="44.81953" lon="3.79988">
        <ele>992.7</ele>
        <time>2025-12-14T14:04:48Z</time>
      </trkpt>
      <trkpt lat="44.81954" lon="3.80004">
        <ele>993.66</ele>
        <time>2025-12-14T14:04:58Z</time>
      </trkpt>
      <trkpt lat="44.81954" lon="3.80023">
        <ele>993.66</ele>
        <time>2025-12-14T14:05:08Z</time>
      </trkpt>
      <trkpt lat="44.81955" lon="3.80045">
        <ele>995.58</ele>
        <time>2025-12-14T14:05:19Z</time>
      </trkpt>
      <trkpt lat="44.81957" lon="3.80064">
        <ele>996.06</ele>
        <time>2025-12-14T14:05:29Z</time>
      </trkpt>
      <trkpt lat="44.81957" lon="3.80076">
        <ele>997.51</ele>
        <time>2025-12-14T14:05:36Z</time>
      </trkpt>
      <trkpt lat="44.81957" lon="3.80079">
        <ele>997.51</ele>
        <time>2025-12-14T14:05:37Z</time>
      </trkpt>
      <trkpt lat="44.81957" lon="3.80081">
        <ele>997.51</ele>
        <time>2025-12-14T14:05:38Z</time>
      </trkpt>
      <trkpt lat="44.81957" lon="3.801">
        <ele>999.43</ele>
        <time>2025-12-14T14:05:47Z</time>
      </trkpt>
      <trkpt lat="44.81957" lon="3.80102">
        <ele>999.91</ele>
        <time>2025-12-14T14:05:48Z</time>
      </trkpt>
      <trkpt lat="44.81959" lon="3.80115">
        <ele>999.91</ele>
        <time>2025-12-14T14:05:54Z</time>
      </trkpt>
      <trkpt lat="44.81958" lon="3.80122">
        <ele>999.43</ele>
        <time>2025-12-14T14:06:00Z</time>
      </trkpt>
      <trkpt lat="44.81958" lon="3.80124">
        <ele>998.95</ele>
        <time>2025-12-14T14:06:01Z</time>
      </trkpt>
      <trkpt lat="44.81958" lon="3.80127">
        <ele>998.95</ele>
        <time>2025-12-14T14:06:02Z</time>
      </trkpt>
      <trkpt lat="44.81961" lon="3.80158">
        <ele>1001.83</ele>
        <time>2025-12-14T14:06:18Z</time>
      </trkpt>
      <trkpt lat="44.81962" lon="3.80191">
        <ele>1002.79</ele>
        <time>2025-12-14T14:06:35Z</time>
      </trkpt>
      <trkpt lat="44.81963" lon="3.80214">
        <ele>1001.83</ele>
        <time>2025-12-14T14:06:47Z</time>
      </trkpt>
      <trkpt lat="44.81964" lon="3.80241">
        <ele>1001.35</ele>
        <time>2025-12-14T14:07:00Z</time>
      </trkpt>
      <trkpt lat="44.81964" lon="3.80264">
        <ele>1001.35</ele>
        <time>2025-12-14T14:07:12Z</time>
      </trkpt>
      <trkpt lat="44.81965" lon="3.80282">
        <ele>1001.83</ele>
        <time>2025-12-14T14:07:22Z</time>
      </trkpt>
      <trkpt lat="44.81967" lon="3.80302">
        <ele>1003.27</ele>
        <time>2025-12-14T14:07:32Z</time>
      </trkpt>
      <trkpt lat="44.81968" lon="3.80323">
        <ele>1005.2</ele>
        <time>2025-12-14T14:07:42Z</time>
      </trkpt>
      <trkpt lat="44.81968" lon="3.80326">
        <ele>1005.68</ele>
        <time>2025-12-14T14:07:44Z</time>
      </trkpt>
      <trkpt lat="44.8197" lon="3.80345">
        <ele>1007.12</ele>
        <time>2025-12-14T14:07:53Z</time>
      </trkpt>
      <trkpt lat="44.81969" lon="3.80347">
        <ele>1007.12</ele>
        <time>2025-12-14T14:07:54Z</time>
      </trkpt>
      <trkpt lat="44.81969" lon="3.80349">
        <ele>1007.12</ele>
        <time>2025-12-14T14:07:55Z</time>
      </trkpt>
      <trkpt lat="44.8197" lon="3.80352">
        <ele>1007.6</ele>
        <time>2025-12-14T14:07:56Z</time>
      </trkpt>
      <trkpt lat="44.8197" lon="3.80355">
        <ele>1007.6</ele>
        <time>2025-12-14T14:07:57Z</time>
      </trkpt>
      <trkpt lat="44.8197" lon="3.80358">
        <ele>1008.08</ele>
        <time>2025-12-14T14:07:58Z</time>
      </trkpt>
      <trkpt lat="44.81972" lon="3.80375">
        <ele>1009.52</ele>
        <time>2025-12-14T14:08:09Z</time>
      </trkpt>
      <trkpt lat="44.81972" lon="3.80387">
        <ele>1009.52</ele>
        <time>2025-12-14T14:08:16Z</time>
      </trkpt>
      <trkpt lat="44.81973" lon="3.8041">
        <ele>1010</ele>
        <time>2025-12-14T14:08:28Z</time>
      </trkpt>
      <trkpt lat="44.81977" lon="3.80438">
        <ele>1012.89</ele>
        <time>2025-12-14T14:08:41Z</time>
      </trkpt>
      <trkpt lat="44.8198" lon="3.80462">
        <ele>1013.85</ele>
        <time>2025-12-14T14:08:53Z</time>
      </trkpt>
      <trkpt lat="44.81981" lon="3.80483">
        <ele>1013.37</ele>
        <time>2025-12-14T14:09:06Z</time>
      </trkpt>
      <trkpt lat="44.81984" lon="3.80506">
        <ele>1012.89</ele>
        <time>2025-12-14T14:09:20Z</time>
      </trkpt>
      <trkpt lat="44.81988" lon="3.80541">
        <ele>1012.41</ele>
        <time>2025-12-14T14:09:38Z</time>
      </trkpt>
      <trkpt lat="44.8199" lon="3.80573">
        <ele>1010.48</ele>
        <time>2025-12-14T14:09:55Z</time>
      </trkpt>
      <trkpt lat="44.8199" lon="3.80575">
        <ele>1010</ele>
        <time>2025-12-14T14:09:56Z</time>
      </trkpt>
      <trkpt lat="44.81991" lon="3.80577">
        <ele>1010</ele>
        <time>2025-12-14T14:09:57Z</time>
      </trkpt>
      <trkpt lat="44.81991" lon="3.80579">
        <ele>1009.52</ele>
        <time>2025-12-14T14:09:58Z</time>
      </trkpt>
      <trkpt lat="44.81995" lon="3.80604">
        <ele>1007.6</ele>
        <time>2025-12-14T14:10:13Z</time>
      </trkpt>
      <trkpt lat="44.82001" lon="3.80635">
        <ele>1007.12</ele>
        <time>2025-12-14T14:10:29Z</time>
      </trkpt>
      <trkpt lat="44.82007" lon="3.80668">
        <ele>1007.6</ele>
        <time>2025-12-14T14:10:46Z</time>
      </trkpt>
      <trkpt lat="44.8201" lon="3.80702">
        <ele>1005.68</ele>
        <time>2025-12-14T14:11:04Z</time>
      </trkpt>
      <trkpt lat="44.82015" lon="3.80728">
        <ele>1008.08</ele>
        <time>2025-12-14T14:11:19Z</time>
      </trkpt>
      <trkpt lat="44.82017" lon="3.80747">
        <ele>1009.52</ele>
        <time>2025-12-14T14:11:30Z</time>
      </trkpt>
      <trkpt lat="44.82016" lon="3.80761">
        <ele>1011.44</ele>
        <time>2025-12-14T14:11:37Z</time>
      </trkpt>
      <trkpt lat="44.82019" lon="3.8078">
        <ele>1014.33</ele>
        <time>2025-12-14T14:11:50Z</time>
      </trkpt>
      <trkpt lat="44.82021" lon="3.80797">
        <ele>1017.69</ele>
        <time>2025-12-14T14:11:59Z</time>
      </trkpt>
      <trkpt lat="44.82029" lon="3.80826">
        <ele>1021.06</ele>
        <time>2025-12-14T14:12:16Z</time>
      </trkpt>
      <trkpt lat="44.82037" lon="3.80848">
        <ele>1022.98</ele>
        <time>2025-12-14T14:12:31Z</time>
      </trkpt>
      <trkpt lat="44.82043" lon="3.80853">
        <ele>1024.9</ele>
        <time>2025-12-14T14:12:38Z</time>
      </trkpt>
      <trkpt lat="44.82059" lon="3.80857">
        <ele>1027.79</ele>
        <time>2025-12-14T14:12:55Z</time>
      </trkpt>
      <trkpt lat="44.82062" lon="3.80853">
        <ele>1028.27</ele>
        <time>2025-12-14T14:13:15Z</time>
      </trkpt>
      <trkpt lat="44.82068" lon="3.80848">
        <ele>1027.79</ele>
        <time>2025-12-14T14:13:30Z</time>
      </trkpt>
      <trkpt lat="44.82079" lon="3.80834">
        <ele>1024.9</ele>
        <time>2025-12-14T14:13:45Z</time>
      </trkpt>
      <trkpt lat="44.82088" lon="3.80813">
        <ele>1022.98</ele>
        <time>2025-12-14T14:14:03Z</time>
      </trkpt>
      <trkpt lat="44.82091" lon="3.80809">
        <ele>1022.5</ele>
        <time>2025-12-14T14:14:06Z</time>
      </trkpt>
      <trkpt lat="44.82116" lon="3.80782">
        <ele>1018.65</ele>
        <time>2025-12-14T14:14:28Z</time>
      </trkpt>
      <trkpt lat="44.82129" lon="3.80768">
        <ele>1018.17</ele>
        <time>2025-12-14T14:14:41Z</time>
      </trkpt>
      <trkpt lat="44.82151" lon="3.80755">
        <ele>1016.25</ele>
        <time>2025-12-14T14:15:01Z</time>
      </trkpt>
      <trkpt lat="44.82168" lon="3.80748">
        <ele>1016.25</ele>
        <time>2025-12-14T14:15:15Z</time>
      </trkpt>
      <trkpt lat="44.82196" lon="3.80743">
        <ele>1017.21</ele>
        <time>2025-12-14T14:15:34Z</time>
      </trkpt>
      <trkpt lat="44.82218" lon="3.80743">
        <ele>1017.21</ele>
        <time>2025-12-14T14:15:51Z</time>
      </trkpt>
      <trkpt lat="44.82237" lon="3.80744">
        <ele>1017.21</ele>
        <time>2025-12-14T14:16:06Z</time>
      </trkpt>
      <trkpt lat="44.82242" lon="3.80751">
        <ele>1018.65</ele>
        <time>2025-12-14T14:16:19Z</time>
      </trkpt>
      <trkpt lat="44.82245" lon="3.8075">
        <ele>1019.62</ele>
        <time>2025-12-14T14:16:35Z</time>
      </trkpt>
      <trkpt lat="44.82257" lon="3.80756">
        <ele>1019.13</ele>
        <time>2025-12-14T14:16:50Z</time>
      </trkpt>
      <trkpt lat="44.82279" lon="3.80766">
        <ele>1018.17</ele>
        <time>2025-12-14T14:17:08Z</time>
      </trkpt>
      <trkpt lat="44.82302" lon="3.80777">
        <ele>1017.69</ele>
        <time>2025-12-14T14:17:27Z</time>
      </trkpt>
      <trkpt lat="44.82325" lon="3.80783">
        <ele>1017.69</ele>
        <time>2025-12-14T14:17:44Z</time>
      </trkpt>
      <trkpt lat="44.82345" lon="3.8078">
        <ele>1018.65</ele>
        <time>2025-12-14T14:18:00Z</time>
      </trkpt>
      <trkpt lat="44.82365" lon="3.80777">
        <ele>1021.06</ele>
        <time>2025-12-14T14:18:17Z</time>
      </trkpt>
      <trkpt lat="44.82368" lon="3.80777">
        <ele>1021.54</ele>
        <time>2025-12-14T14:18:20Z</time>
      </trkpt>
      <trkpt lat="44.82377" lon="3.80761">
        <ele>1025.38</ele>
        <time>2025-12-14T14:18:36Z</time>
      </trkpt>
      <trkpt lat="44.82384" lon="3.80751">
        <ele>1027.79</ele>
        <time>2025-12-14T14:18:51Z</time>
      </trkpt>
      <trkpt lat="44.82399" lon="3.80724">
        <ele>1028.75</ele>
        <time>2025-12-14T14:19:11Z</time>
      </trkpt>
      <trkpt lat="44.82412" lon="3.80707">
        <ele>1031.15</ele>
        <time>2025-12-14T14:19:27Z</time>
      </trkpt>
      <trkpt lat="44.82428" lon="3.80681">
        <ele>1032.59</ele>
        <time>2025-12-14T14:19:45Z</time>
      </trkpt>
      <trkpt lat="44.82442" lon="3.80656">
        <ele>1032.59</ele>
        <time>2025-12-14T14:20:01Z</time>
      </trkpt>
      <trkpt lat="44.82454" lon="3.80628">
        <ele>1031.15</ele>
        <time>2025-12-14T14:20:17Z</time>
      </trkpt>
      <trkpt lat="44.82465" lon="3.80598">
        <ele>1030.19</ele>
        <time>2025-12-14T14:20:35Z</time>
      </trkpt>
      <trkpt lat="44.82469" lon="3.80574">
        <ele>1029.23</ele>
        <time>2025-12-14T14:20:49Z</time>
      </trkpt>
      <trkpt lat="44.82474" lon="3.80539">
        <ele>1024.42</ele>
        <time>2025-12-14T14:21:07Z</time>
      </trkpt>
      <trkpt lat="44.8248" lon="3.80514">
        <ele>1022.98</ele>
        <time>2025-12-14T14:21:21Z</time>
      </trkpt>
      <trkpt lat="44.82482" lon="3.80489">
        <ele>1022.5</ele>
        <time>2025-12-14T14:21:37Z</time>
      </trkpt>
      <trkpt lat="44.82486" lon="3.80457">
        <ele>1023.94</ele>
        <time>2025-12-14T14:21:51Z</time>
      </trkpt>
      <trkpt lat="44.82488" lon="3.80435">
        <ele>1023.94</ele>
        <time>2025-12-14T14:22:00Z</time>
      </trkpt>
      <trkpt lat="44.8249" lon="3.80409">
        <ele>1022.02</ele>
        <time>2025-12-14T14:22:15Z</time>
      </trkpt>
      <trkpt lat="44.8249" lon="3.80381">
        <ele>1018.65</ele>
        <time>2025-12-14T14:22:31Z</time>
      </trkpt>
      <trkpt lat="44.82493" lon="3.80358">
        <ele>1016.73</ele>
        <time>2025-12-14T14:22:42Z</time>
      </trkpt>
      <trkpt lat="44.82493" lon="3.80356">
        <ele>1016.73</ele>
        <time>2025-12-14T14:22:43Z</time>
      </trkpt>
      <trkpt lat="44.82493" lon="3.80354">
        <ele>1016.25</ele>
        <time>2025-12-14T14:22:44Z</time>
      </trkpt>
      <trkpt lat="44.82497" lon="3.80319">
        <ele>1013.37</ele>
        <time>2025-12-14T14:23:03Z</time>
      </trkpt>
      <trkpt lat="44.82508" lon="3.80288">
        <ele>1013.37</ele>
        <time>2025-12-14T14:23:21Z</time>
      </trkpt>
      <trkpt lat="44.82519" lon="3.80262">
        <ele>1010.48</ele>
        <time>2025-12-14T14:23:38Z</time>
      </trkpt>
      <trkpt lat="44.82523" lon="3.80261">
        <ele>1010.48</ele>
        <time>2025-12-14T14:23:41Z</time>
      </trkpt>
      <trkpt lat="44.82525" lon="3.80261">
        <ele>1010.48</ele>
        <time>2025-12-14T14:23:42Z</time>
      </trkpt>
      <trkpt lat="44.82526" lon="3.80261">
        <ele>1010.48</ele>
        <time>2025-12-14T14:23:43Z</time>
      </trkpt>
      <trkpt lat="44.82532" lon="3.80263">
        <ele>1010.96</ele>
        <time>2025-12-14T14:23:48Z</time>
      </trkpt>
      <trkpt lat="44.82534" lon="3.80265">
        <ele>1010.96</ele>
        <time>2025-12-14T14:23:49Z</time>
      </trkpt>
      <trkpt lat="44.82535" lon="3.80266">
        <ele>1010.96</ele>
        <time>2025-12-14T14:23:50Z</time>
      </trkpt>
      <trkpt lat="44.82549" lon="3.80279">
        <ele>1012.89</ele>
        <time>2025-12-14T14:24:03Z</time>
      </trkpt>
      <trkpt lat="44.82564" lon="3.80294">
        <ele>1015.29</ele>
        <time>2025-12-14T14:24:18Z</time>
      </trkpt>
      <trkpt lat="44.82579" lon="3.80308">
        <ele>1018.65</ele>
        <time>2025-12-14T14:24:31Z</time>
      </trkpt>
      <trkpt lat="44.82594" lon="3.8032">
        <ele>1022.5</ele>
        <time>2025-12-14T14:24:45Z</time>
      </trkpt>
      <trkpt lat="44.82611" lon="3.8033">
        <ele>1025.38</ele>
        <time>2025-12-14T14:24:59Z</time>
      </trkpt>
      <trkpt lat="44.82628" lon="3.8034">
        <ele>1027.79</ele>
        <time>2025-12-14T14:25:14Z</time>
      </trkpt>
      <trkpt lat="44.82646" lon="3.80347">
        <ele>1027.79</ele>
        <time>2025-12-14T14:25:29Z</time>
      </trkpt>
      <trkpt lat="44.82666" lon="3.80354">
        <ele>1028.27</ele>
        <time>2025-12-14T14:25:45Z</time>
      </trkpt>
      <trkpt lat="44.8267" lon="3.80356">
        <ele>1028.75</ele>
        <time>2025-12-14T14:25:49Z</time>
      </trkpt>
      <trkpt lat="44.82672" lon="3.80357">
        <ele>1028.75</ele>
        <time>2025-12-14T14:25:50Z</time>
      </trkpt>
      <trkpt lat="44.8269" lon="3.80367">
        <ele>1029.23</ele>
        <time>2025-12-14T14:26:05Z</time>
      </trkpt>
      <trkpt lat="44.82711" lon="3.80379">
        <ele>1028.27</ele>
        <time>2025-12-14T14:26:21Z</time>
      </trkpt>
      <trkpt lat="44.82731" lon="3.80393">
        <ele>1028.75</ele>
        <time>2025-12-14T14:26:39Z</time>
      </trkpt>
      <trkpt lat="44.82748" lon="3.80405">
        <ele>1030.67</ele>
        <time>2025-12-14T14:26:54Z</time>
      </trkpt>
      <trkpt lat="44.82769" lon="3.80421">
        <ele>1033.55</ele>
        <time>2025-12-14T14:27:13Z</time>
      </trkpt>
      <trkpt lat="44.82786" lon="3.80434">
        <ele>1035.48</ele>
        <time>2025-12-14T14:27:28Z</time>
      </trkpt>
      <trkpt lat="44.82803" lon="3.80443">
        <ele>1037.4</ele>
        <time>2025-12-14T14:27:43Z</time>
      </trkpt>
      <trkpt lat="44.82806" lon="3.80449">
        <ele>1037.4</ele>
        <time>2025-12-14T14:27:57Z</time>
      </trkpt>
      <trkpt lat="44.82807" lon="3.8045">
        <ele>1038.36</ele>
        <time>2025-12-14T14:28:21Z</time>
      </trkpt>
      <trkpt lat="44.8281" lon="3.80446">
        <ele>1040.28</ele>
        <time>2025-12-14T14:28:43Z</time>
      </trkpt>
      <trkpt lat="44.8281" lon="3.80444">
        <ele>1040.28</ele>
        <time>2025-12-14T14:29:03Z</time>
      </trkpt>
      <trkpt lat="44.8281" lon="3.80442">
        <ele>1039.32</ele>
        <time>2025-12-14T14:29:31Z</time>
      </trkpt>
      <trkpt lat="44.82809" lon="3.80443">
        <ele>1040.28</ele>
        <time>2025-12-14T14:29:59Z</time>
      </trkpt>
      <trkpt lat="44.8281" lon="3.80444">
        <ele>1040.28</ele>
        <time>2025-12-14T14:30:23Z</time>
      </trkpt>
      <trkpt lat="44.82812" lon="3.80446">
        <ele>1041.73</ele>
        <time>2025-12-14T14:30:47Z</time>
      </trkpt>
      <trkpt lat="44.82812" lon="3.80446">
        <ele>1043.17</ele>
        <time>2025-12-14T14:31:17Z</time>
      </trkpt>
      <trkpt lat="44.82812" lon="3.80445">
        <ele>1042.21</ele>
        <time>2025-12-14T14:31:39Z</time>
      </trkpt>
      <trkpt lat="44.82821" lon="3.80444">
        <ele>1042.21</ele>
        <time>2025-12-14T14:32:10Z</time>
      </trkpt>
      <trkpt lat="44.82825" lon="3.80446">
        <ele>1043.65</ele>
        <time>2025-12-14T14:32:15Z</time>
      </trkpt>
      <trkpt lat="44.82826" lon="3.80447">
        <ele>1044.13</ele>
        <time>2025-12-14T14:32:16Z</time>
      </trkpt>
      <trkpt lat="44.82828" lon="3.80447">
        <ele>1044.13</ele>
        <time>2025-12-14T14:32:17Z</time>
      </trkpt>
      <trkpt lat="44.82843" lon="3.80456">
        <ele>1046.05</ele>
        <time>2025-12-14T14:32:29Z</time>
      </trkpt>
      <trkpt lat="44.82845" lon="3.80459">
        <ele>1045.57</ele>
        <time>2025-12-14T14:32:32Z</time>
      </trkpt>
      <trkpt lat="44.82847" lon="3.8046">
        <ele>1045.57</ele>
        <time>2025-12-14T14:32:33Z</time>
      </trkpt>
      <trkpt lat="44.82859" lon="3.80472">
        <ele>1044.13</ele>
        <time>2025-12-14T14:32:46Z</time>
      </trkpt>
      <trkpt lat="44.82867" lon="3.80481">
        <ele>1044.13</ele>
        <time>2025-12-14T14:32:54Z</time>
      </trkpt>
      <trkpt lat="44.82868" lon="3.80482">
        <ele>1044.13</ele>
        <time>2025-12-14T14:32:55Z</time>
      </trkpt>
      <trkpt lat="44.82885" lon="3.80496">
        <ele>1046.05</ele>
        <time>2025-12-14T14:33:08Z</time>
      </trkpt>
      <trkpt lat="44.82892" lon="3.80503">
        <ele>1047.97</ele>
        <time>2025-12-14T14:33:19Z</time>
      </trkpt>
      <trkpt lat="44.82903" lon="3.80513">
        <ele>1050.86</ele>
        <time>2025-12-14T14:33:29Z</time>
      </trkpt>
      <trkpt lat="44.82913" lon="3.80526">
        <ele>1052.3</ele>
        <time>2025-12-14T14:33:40Z</time>
      </trkpt>
      <trkpt lat="44.82926" lon="3.80539">
        <ele>1054.22</ele>
        <time>2025-12-14T14:33:52Z</time>
      </trkpt>
      <trkpt lat="44.82937" lon="3.80551">
        <ele>1054.22</ele>
        <time>2025-12-14T14:34:04Z</time>
      </trkpt>
      <trkpt lat="44.82949" lon="3.80566">
        <ele>1054.22</ele>
        <time>2025-12-14T14:34:17Z</time>
      </trkpt>
      <trkpt lat="44.82957" lon="3.80575">
        <ele>1055.67</ele>
        <time>2025-12-14T14:34:26Z</time>
      </trkpt>
      <trkpt lat="44.82968" lon="3.80589">
        <ele>1057.11</ele>
        <time>2025-12-14T14:34:39Z</time>
      </trkpt>
      <trkpt lat="44.82969" lon="3.8059">
        <ele>1057.11</ele>
        <time>2025-12-14T14:34:40Z</time>
      </trkpt>
      <trkpt lat="44.82981" lon="3.80598">
        <ele>1058.07</ele>
        <time>2025-12-14T14:34:51Z</time>
      </trkpt>
      <trkpt lat="44.82997" lon="3.80608">
        <ele>1059.51</ele>
        <time>2025-12-14T14:35:03Z</time>
      </trkpt>
      <trkpt lat="44.8301" lon="3.80614">
        <ele>1061.43</ele>
        <time>2025-12-14T14:35:15Z</time>
      </trkpt>
      <trkpt lat="44.83024" lon="3.80624">
        <ele>1061.43</ele>
        <time>2025-12-14T14:35:26Z</time>
      </trkpt>
      <trkpt lat="44.83034" lon="3.80631">
        <ele>1061.43</ele>
        <time>2025-12-14T14:35:36Z</time>
      </trkpt>
      <trkpt lat="44.83046" lon="3.80647">
        <ele>1062.87</ele>
        <time>2025-12-14T14:35:49Z</time>
      </trkpt>
      <trkpt lat="44.83054" lon="3.8067">
        <ele>1062.39</ele>
        <time>2025-12-14T14:36:03Z</time>
      </trkpt>
      <trkpt lat="44.83062" lon="3.80691">
        <ele>1062.39</ele>
        <time>2025-12-14T14:36:16Z</time>
      </trkpt>
      <trkpt lat="44.8307" lon="3.80711">
        <ele>1063.36</ele>
        <time>2025-12-14T14:36:28Z</time>
      </trkpt>
      <trkpt lat="44.83077" lon="3.80728">
        <ele>1063.84</ele>
        <time>2025-12-14T14:36:40Z</time>
      </trkpt>
      <trkpt lat="44.83084" lon="3.80746">
        <ele>1064.32</ele>
        <time>2025-12-14T14:36:51Z</time>
      </trkpt>
      <trkpt lat="44.83094" lon="3.80769">
        <ele>1065.28</ele>
        <time>2025-12-14T14:37:05Z</time>
      </trkpt>
      <trkpt lat="44.83098" lon="3.8078">
        <ele>1067.2</ele>
        <time>2025-12-14T14:37:16Z</time>
      </trkpt>
      <trkpt lat="44.83106" lon="3.80801">
        <ele>1069.6</ele>
        <time>2025-12-14T14:37:28Z</time>
      </trkpt>
      <trkpt lat="44.83112" lon="3.80818">
        <ele>1070.57</ele>
        <time>2025-12-14T14:37:39Z</time>
      </trkpt>
      <trkpt lat="44.8312" lon="3.80832">
        <ele>1072.49</ele>
        <time>2025-12-14T14:37:50Z</time>
      </trkpt>
      <trkpt lat="44.83128" lon="3.80846">
        <ele>1074.89</ele>
        <time>2025-12-14T14:38:03Z</time>
      </trkpt>
      <trkpt lat="44.83146" lon="3.80859">
        <ele>1078.26</ele>
        <time>2025-12-14T14:38:19Z</time>
      </trkpt>
      <trkpt lat="44.8316" lon="3.80867">
        <ele>1079.7</ele>
        <time>2025-12-14T14:38:32Z</time>
      </trkpt>
      <trkpt lat="44.83177" lon="3.80878">
        <ele>1081.14</ele>
        <time>2025-12-14T14:38:46Z</time>
      </trkpt>
      <trkpt lat="44.83194" lon="3.80887">
        <ele>1082.58</ele>
        <time>2025-12-14T14:39:00Z</time>
      </trkpt>
      <trkpt lat="44.83213" lon="3.80895">
        <ele>1084.5</ele>
        <time>2025-12-14T14:39:15Z</time>
      </trkpt>
      <trkpt lat="44.83232" lon="3.80903">
        <ele>1084.99</ele>
        <time>2025-12-14T14:39:31Z</time>
      </trkpt>
      <trkpt lat="44.83249" lon="3.80911">
        <ele>1085.47</ele>
        <time>2025-12-14T14:39:45Z</time>
      </trkpt>
      <trkpt lat="44.83266" lon="3.80916">
        <ele>1085.95</ele>
        <time>2025-12-14T14:39:58Z</time>
      </trkpt>
      <trkpt lat="44.83278" lon="3.80916">
        <ele>1086.91</ele>
        <time>2025-12-14T14:40:10Z</time>
      </trkpt>
      <trkpt lat="44.83297" lon="3.80924">
        <ele>1085.95</ele>
        <time>2025-12-14T14:40:26Z</time>
      </trkpt>
      <trkpt lat="44.83316" lon="3.80935">
        <ele>1085.95</ele>
        <time>2025-12-14T14:40:41Z</time>
      </trkpt>
      <trkpt lat="44.83332" lon="3.80945">
        <ele>1085.47</ele>
        <time>2025-12-14T14:40:56Z</time>
      </trkpt>
      <trkpt lat="44.83332" lon="3.80946">
        <ele>1085.47</ele>
        <time>2025-12-14T14:41:03Z</time>
      </trkpt>
      <trkpt lat="44.83328" lon="3.8095">
        <ele>1085.47</ele>
        <time>2025-12-14T14:41:09Z</time>
      </trkpt>
      <trkpt lat="44.83336" lon="3.80956">
        <ele>1085.95</ele>
        <time>2025-12-14T14:41:24Z</time>
      </trkpt>
      <trkpt lat="44.83332" lon="3.80951">
        <ele>1086.91</ele>
        <time>2025-12-14T14:41:59Z</time>
      </trkpt>
      <trkpt lat="44.83333" lon="3.80947">
        <ele>1085.95</ele>
        <time>2025-12-14T14:42:03Z</time>
      </trkpt>
      <trkpt lat="44.83335" lon="3.80946">
        <ele>1085.47</ele>
        <time>2025-12-14T14:42:04Z</time>
      </trkpt>
      <trkpt lat="44.83337" lon="3.80946">
        <ele>1084.99</ele>
        <time>2025-12-14T14:42:05Z</time>
      </trkpt>
      <trkpt lat="44.83339" lon="3.80946">
        <ele>1084.99</ele>
        <time>2025-12-14T14:42:06Z</time>
      </trkpt>
      <trkpt lat="44.83341" lon="3.80947">
        <ele>1084.5</ele>
        <time>2025-12-14T14:42:07Z</time>
      </trkpt>
      <trkpt lat="44.83342" lon="3.80948">
        <ele>1084.02</ele>
        <time>2025-12-14T14:42:08Z</time>
      </trkpt>
      <trkpt lat="44.83343" lon="3.80948">
        <ele>1084.02</ele>
        <time>2025-12-14T14:42:09Z</time>
      </trkpt>
      <trkpt lat="44.83368" lon="3.80965">
        <ele>1082.58</ele>
        <time>2025-12-14T14:42:24Z</time>
      </trkpt>
      <trkpt lat="44.83394" lon="3.80975">
        <ele>1083.06</ele>
        <time>2025-12-14T14:42:37Z</time>
      </trkpt>
      <trkpt lat="44.83422" lon="3.80983">
        <ele>1081.62</ele>
        <time>2025-12-14T14:42:52Z</time>
      </trkpt>
      <trkpt lat="44.83448" lon="3.80995">
        <ele>1081.14</ele>
        <time>2025-12-14T14:43:09Z</time>
      </trkpt>
      <trkpt lat="44.83473" lon="3.81014">
        <ele>1081.62</ele>
        <time>2025-12-14T14:43:28Z</time>
      </trkpt>
      <trkpt lat="44.83479" lon="3.81027">
        <ele>1082.1</ele>
        <time>2025-12-14T14:43:38Z</time>
      </trkpt>
      <trkpt lat="44.83487" lon="3.81067">
        <ele>1080.18</ele>
        <time>2025-12-14T14:43:56Z</time>
      </trkpt>
      <trkpt lat="44.83495" lon="3.81096">
        <ele>1080.66</ele>
        <time>2025-12-14T14:44:14Z</time>
      </trkpt>
      <trkpt lat="44.83503" lon="3.81133">
        <ele>1079.22</ele>
        <time>2025-12-14T14:44:31Z</time>
      </trkpt>
      <trkpt lat="44.83509" lon="3.81163">
        <ele>1078.74</ele>
        <time>2025-12-14T14:44:47Z</time>
      </trkpt>
      <trkpt lat="44.83519" lon="3.81198">
        <ele>1078.74</ele>
        <time>2025-12-14T14:45:04Z</time>
      </trkpt>
      <trkpt lat="44.83527" lon="3.81221">
        <ele>1078.74</ele>
        <time>2025-12-14T14:45:21Z</time>
      </trkpt>
      <trkpt lat="44.83531" lon="3.8123">
        <ele>1078.74</ele>
        <time>2025-12-14T14:45:37Z</time>
      </trkpt>
      <trkpt lat="44.83544" lon="3.81254">
        <ele>1074.41</ele>
        <time>2025-12-14T14:45:51Z</time>
      </trkpt>
      <trkpt lat="44.83562" lon="3.81272">
        <ele>1071.53</ele>
        <time>2025-12-14T14:46:07Z</time>
      </trkpt>
      <trkpt lat="44.83567" lon="3.81286">
        <ele>1070.08</ele>
        <time>2025-12-14T14:46:18Z</time>
      </trkpt>
      <trkpt lat="44.83572" lon="3.81319">
        <ele>1069.12</ele>
        <time>2025-12-14T14:46:36Z</time>
      </trkpt>
      <trkpt lat="44.8357" lon="3.81347">
        <ele>1069.12</ele>
        <time>2025-12-14T14:46:53Z</time>
      </trkpt>
      <trkpt lat="44.83571" lon="3.81358">
        <ele>1069.12</ele>
        <time>2025-12-14T14:47:05Z</time>
      </trkpt>
      <trkpt lat="44.83571" lon="3.81364">
        <ele>1069.6</ele>
        <time>2025-12-14T14:47:40Z</time>
      </trkpt>
      <trkpt lat="44.83573" lon="3.81377">
        <ele>1069.6</ele>
        <time>2025-12-14T14:47:56Z</time>
      </trkpt>
      <trkpt lat="44.83573" lon="3.81379">
        <ele>1069.6</ele>
        <time>2025-12-14T14:47:57Z</time>
      </trkpt>
      <trkpt lat="44.83588" lon="3.81412">
        <ele>1072.01</ele>
        <time>2025-12-14T14:48:16Z</time>
      </trkpt>
      <trkpt lat="44.83612" lon="3.81405">
        <ele>1072.01</ele>
        <time>2025-12-14T14:48:35Z</time>
      </trkpt>
      <trkpt lat="44.83637" lon="3.8139">
        <ele>1071.53</ele>
        <time>2025-12-14T14:48:52Z</time>
      </trkpt>
      <trkpt lat="44.83654" lon="3.81366">
        <ele>1071.05</ele>
        <time>2025-12-14T14:49:09Z</time>
      </trkpt>
      <trkpt lat="44.8366" lon="3.81333">
        <ele>1075.37</ele>
        <time>2025-12-14T14:49:26Z</time>
      </trkpt>
      <trkpt lat="44.83665" lon="3.81308">
        <ele>1078.74</ele>
        <time>2025-12-14T14:49:41Z</time>
      </trkpt>
      <trkpt lat="44.83671" lon="3.81297">
        <ele>1081.14</ele>
        <time>2025-12-14T14:49:55Z</time>
      </trkpt>
      <trkpt lat="44.83679" lon="3.81284">
        <ele>1082.1</ele>
        <time>2025-12-14T14:50:09Z</time>
      </trkpt>
      <trkpt lat="44.83684" lon="3.81287">
        <ele>1083.06</ele>
        <time>2025-12-14T14:50:15Z</time>
      </trkpt>
      <trkpt lat="44.83685" lon="3.81289">
        <ele>1083.06</ele>
        <time>2025-12-14T14:50:16Z</time>
      </trkpt>
      <trkpt lat="44.83697" lon="3.81305">
        <ele>1081.14</ele>
        <time>2025-12-14T14:50:29Z</time>
      </trkpt>
      <trkpt lat="44.83698" lon="3.81307">
        <ele>1080.66</ele>
        <time>2025-12-14T14:50:30Z</time>
      </trkpt>
      <trkpt lat="44.83698" lon="3.81309">
        <ele>1080.66</ele>
        <time>2025-12-14T14:50:31Z</time>
      </trkpt>
      <trkpt lat="44.83707" lon="3.81335">
        <ele>1082.1</ele>
        <time>2025-12-14T14:50:48Z</time>
      </trkpt>
      <trkpt lat="44.83719" lon="3.81359">
        <ele>1082.1</ele>
        <time>2025-12-14T14:51:04Z</time>
      </trkpt>
      <trkpt lat="44.83735" lon="3.81388">
        <ele>1080.18</ele>
        <time>2025-12-14T14:51:23Z</time>
      </trkpt>
      <trkpt lat="44.83748" lon="3.81412">
        <ele>1077.78</ele>
        <time>2025-12-14T14:51:39Z</time>
      </trkpt>
      <trkpt lat="44.83753" lon="3.81418">
        <ele>1077.29</ele>
        <time>2025-12-14T14:51:44Z</time>
      </trkpt>
      <trkpt lat="44.83755" lon="3.81419">
        <ele>1077.29</ele>
        <time>2025-12-14T14:51:45Z</time>
      </trkpt>
      <trkpt lat="44.83756" lon="3.81421">
        <ele>1076.81</ele>
        <time>2025-12-14T14:51:46Z</time>
      </trkpt>
      <trkpt lat="44.83765" lon="3.81437">
        <ele>1074.89</ele>
        <time>2025-12-14T14:51:57Z</time>
      </trkpt>
      <trkpt lat="44.83767" lon="3.8144">
        <ele>1074.41</ele>
        <time>2025-12-14T14:51:59Z</time>
      </trkpt>
      <trkpt lat="44.83768" lon="3.81441">
        <ele>1073.93</ele>
        <time>2025-12-14T14:52:00Z</time>
      </trkpt>
      <trkpt lat="44.83769" lon="3.81442">
        <ele>1073.45</ele>
        <time>2025-12-14T14:52:01Z</time>
      </trkpt>
      <trkpt lat="44.83771" lon="3.81444">
        <ele>1073.45</ele>
        <time>2025-12-14T14:52:02Z</time>
      </trkpt>
      <trkpt lat="44.83771" lon="3.81446">
        <ele>1072.97</ele>
        <time>2025-12-14T14:52:03Z</time>
      </trkpt>
      <trkpt lat="44.83788" lon="3.81472">
        <ele>1069.12</ele>
        <time>2025-12-14T14:52:20Z</time>
      </trkpt>
      <trkpt lat="44.83798" lon="3.81487">
        <ele>1066.72</ele>
        <time>2025-12-14T14:52:32Z</time>
      </trkpt>
      <trkpt lat="44.83799" lon="3.81488">
        <ele>1066.72</ele>
        <time>2025-12-14T14:52:33Z</time>
      </trkpt>
      <trkpt lat="44.838" lon="3.8149">
        <ele>1066.72</ele>
        <time>2025-12-14T14:52:34Z</time>
      </trkpt>
      <trkpt lat="44.83813" lon="3.81515">
        <ele>1065.76</ele>
        <time>2025-12-14T14:52:51Z</time>
      </trkpt>
      <trkpt lat="44.83827" lon="3.8154">
        <ele>1065.76</ele>
        <time>2025-12-14T14:53:05Z</time>
      </trkpt>
      <trkpt lat="44.8384" lon="3.81567">
        <ele>1065.76</ele>
        <time>2025-12-14T14:53:23Z</time>
      </trkpt>
      <trkpt lat="44.8385" lon="3.81596">
        <ele>1064.8</ele>
        <time>2025-12-14T14:53:40Z</time>
      </trkpt>
      <trkpt lat="44.83858" lon="3.81624">
        <ele>1065.76</ele>
        <time>2025-12-14T14:53:54Z</time>
      </trkpt>
      <trkpt lat="44.83868" lon="3.81651">
        <ele>1064.32</ele>
        <time>2025-12-14T14:54:11Z</time>
      </trkpt>
      <trkpt lat="44.83876" lon="3.81678">
        <ele>1064.32</ele>
        <time>2025-12-14T14:54:26Z</time>
      </trkpt>
      <trkpt lat="44.83886" lon="3.8171">
        <ele>1066.72</ele>
        <time>2025-12-14T14:54:45Z</time>
      </trkpt>
      <trkpt lat="44.83897" lon="3.81745">
        <ele>1068.16</ele>
        <time>2025-12-14T14:55:04Z</time>
      </trkpt>
      <trkpt lat="44.83906" lon="3.81774">
        <ele>1072.01</ele>
        <time>2025-12-14T14:55:20Z</time>
      </trkpt>
      <trkpt lat="44.83907" lon="3.81775">
        <ele>1072.49</ele>
        <time>2025-12-14T14:55:21Z</time>
      </trkpt>
      <trkpt lat="44.83908" lon="3.81776">
        <ele>1072.49</ele>
        <time>2025-12-14T14:55:22Z</time>
      </trkpt>
      <trkpt lat="44.83921" lon="3.81796">
        <ele>1070.57</ele>
        <time>2025-12-14T14:55:37Z</time>
      </trkpt>
      <trkpt lat="44.83931" lon="3.81817">
        <ele>1069.12</ele>
        <time>2025-12-14T14:55:52Z</time>
      </trkpt>
      <trkpt lat="44.83935" lon="3.81833">
        <ele>1069.12</ele>
        <time>2025-12-14T14:56:01Z</time>
      </trkpt>
      <trkpt lat="44.8394" lon="3.81853">
        <ele>1070.08</ele>
        <time>2025-12-14T14:56:11Z</time>
      </trkpt>
      <trkpt lat="44.83944" lon="3.81861">
        <ele>1070.57</ele>
        <time>2025-12-14T14:56:18Z</time>
      </trkpt>
      <trkpt lat="44.83944" lon="3.81864">
        <ele>1070.57</ele>
        <time>2025-12-14T14:56:20Z</time>
      </trkpt>
      <trkpt lat="44.83953" lon="3.81886">
        <ele>1071.05</ele>
        <time>2025-12-14T14:56:33Z</time>
      </trkpt>
      <trkpt lat="44.83964" lon="3.81907">
        <ele>1070.57</ele>
        <time>2025-12-14T14:56:47Z</time>
      </trkpt>
      <trkpt lat="44.83976" lon="3.81927">
        <ele>1071.53</ele>
        <time>2025-12-14T14:57:02Z</time>
      </trkpt>
      <trkpt lat="44.8398" lon="3.81953">
        <ele>1072.01</ele>
        <time>2025-12-14T14:57:15Z</time>
      </trkpt>
      <trkpt lat="44.83981" lon="3.81976">
        <ele>1071.05</ele>
        <time>2025-12-14T14:57:27Z</time>
      </trkpt>
      <trkpt lat="44.83981" lon="3.81983">
        <ele>1070.57</ele>
        <time>2025-12-14T14:57:43Z</time>
      </trkpt>
      <trkpt lat="44.83983" lon="3.81989">
        <ele>1070.08</ele>
        <time>2025-12-14T14:58:03Z</time>
      </trkpt>
      <trkpt lat="44.83984" lon="3.82006">
        <ele>1070.57</ele>
        <time>2025-12-14T14:58:18Z</time>
      </trkpt>
      <trkpt lat="44.83986" lon="3.82024">
        <ele>1066.24</ele>
        <time>2025-12-14T14:58:32Z</time>
      </trkpt>
      <trkpt lat="44.83974" lon="3.8204">
        <ele>1065.28</ele>
        <time>2025-12-14T14:58:46Z</time>
      </trkpt>
      <trkpt lat="44.83971" lon="3.8205">
        <ele>1065.28</ele>
        <time>2025-12-14T14:58:52Z</time>
      </trkpt>
      <trkpt lat="44.83982" lon="3.82074">
        <ele>1066.24</ele>
        <time>2025-12-14T14:59:09Z</time>
      </trkpt>
      <trkpt lat="44.83993" lon="3.82095">
        <ele>1065.76</ele>
        <time>2025-12-14T14:59:24Z</time>
      </trkpt>
      <trkpt lat="44.84004" lon="3.82117">
        <ele>1065.76</ele>
        <time>2025-12-14T14:59:39Z</time>
      </trkpt>
      <trkpt lat="44.84015" lon="3.82134">
        <ele>1065.28</ele>
        <time>2025-12-14T14:59:52Z</time>
      </trkpt>
      <trkpt lat="44.84027" lon="3.82157">
        <ele>1065.76</ele>
        <time>2025-12-14T15:00:07Z</time>
      </trkpt>
      <trkpt lat="44.84031" lon="3.82162">
        <ele>1065.76</ele>
        <time>2025-12-14T15:00:12Z</time>
      </trkpt>
      <trkpt lat="44.84047" lon="3.82176">
        <ele>1065.76</ele>
        <time>2025-12-14T15:00:29Z</time>
      </trkpt>
      <trkpt lat="44.84055" lon="3.82196">
        <ele>1066.24</ele>
        <time>2025-12-14T15:00:44Z</time>
      </trkpt>
      <trkpt lat="44.84056" lon="3.822">
        <ele>1064.8</ele>
        <time>2025-12-14T15:00:58Z</time>
      </trkpt>
      <trkpt lat="44.84061" lon="3.82218">
        <ele>1062.39</ele>
        <time>2025-12-14T15:01:13Z</time>
      </trkpt>
      <trkpt lat="44.84063" lon="3.8223">
        <ele>1061.43</ele>
        <time>2025-12-14T15:01:20Z</time>
      </trkpt>
      <trkpt lat="44.84071" lon="3.82253">
        <ele>1064.32</ele>
        <time>2025-12-14T15:01:34Z</time>
      </trkpt>
      <trkpt lat="44.84086" lon="3.82276">
        <ele>1065.76</ele>
        <time>2025-12-14T15:01:50Z</time>
      </trkpt>
      <trkpt lat="44.84103" lon="3.82296">
        <ele>1065.28</ele>
        <time>2025-12-14T15:02:06Z</time>
      </trkpt>
      <trkpt lat="44.84113" lon="3.82318">
        <ele>1064.8</ele>
        <time>2025-12-14T15:02:21Z</time>
      </trkpt>
      <trkpt lat="44.84126" lon="3.82346">
        <ele>1065.76</ele>
        <time>2025-12-14T15:02:38Z</time>
      </trkpt>
      <trkpt lat="44.84139" lon="3.82374">
        <ele>1067.68</ele>
        <time>2025-12-14T15:02:56Z</time>
      </trkpt>
      <trkpt lat="44.84151" lon="3.82406">
        <ele>1067.68</ele>
        <time>2025-12-14T15:03:14Z</time>
      </trkpt>
      <trkpt lat="44.84162" lon="3.82437">
        <ele>1068.64</ele>
        <time>2025-12-14T15:03:31Z</time>
      </trkpt>
      <trkpt lat="44.84168" lon="3.82468">
        <ele>1069.12</ele>
        <time>2025-12-14T15:03:47Z</time>
      </trkpt>
      <trkpt lat="44.84173" lon="3.825">
        <ele>1070.08</ele>
        <time>2025-12-14T15:04:04Z</time>
      </trkpt>
      <trkpt lat="44.84179" lon="3.82533">
        <ele>1071.05</ele>
        <time>2025-12-14T15:04:23Z</time>
      </trkpt>
      <trkpt lat="44.84181" lon="3.82567">
        <ele>1071.53</ele>
        <time>2025-12-14T15:04:39Z</time>
      </trkpt>
      <trkpt lat="44.84181" lon="3.82595">
        <ele>1071.53</ele>
        <time>2025-12-14T15:04:53Z</time>
      </trkpt>
      <trkpt lat="44.84183" lon="3.82617">
        <ele>1073.45</ele>
        <time>2025-12-14T15:05:06Z</time>
      </trkpt>
      <trkpt lat="44.8419" lon="3.82642">
        <ele>1075.37</ele>
        <time>2025-12-14T15:05:19Z</time>
      </trkpt>
      <trkpt lat="44.84195" lon="3.82663">
        <ele>1075.85</ele>
        <time>2025-12-14T15:05:31Z</time>
      </trkpt>
      <trkpt lat="44.842" lon="3.82684">
        <ele>1076.81</ele>
        <time>2025-12-14T15:05:43Z</time>
      </trkpt>
      <trkpt lat="44.84204" lon="3.82703">
        <ele>1076.33</ele>
        <time>2025-12-14T15:05:53Z</time>
      </trkpt>
      <trkpt lat="44.84207" lon="3.82724">
        <ele>1077.29</ele>
        <time>2025-12-14T15:06:06Z</time>
      </trkpt>
      <trkpt lat="44.84206" lon="3.82749">
        <ele>1078.74</ele>
        <time>2025-12-14T15:06:18Z</time>
      </trkpt>
      <trkpt lat="44.84205" lon="3.82751">
        <ele>1078.26</ele>
        <time>2025-12-14T15:06:19Z</time>
      </trkpt>
      <trkpt lat="44.84205" lon="3.82753">
        <ele>1078.74</ele>
        <time>2025-12-14T15:06:20Z</time>
      </trkpt>
      <trkpt lat="44.84205" lon="3.82755">
        <ele>1078.74</ele>
        <time>2025-12-14T15:06:21Z</time>
      </trkpt>
      <trkpt lat="44.84205" lon="3.82757">
        <ele>1078.74</ele>
        <time>2025-12-14T15:06:22Z</time>
      </trkpt>
      <trkpt lat="44.84205" lon="3.8276">
        <ele>1078.74</ele>
        <time>2025-12-14T15:06:23Z</time>
      </trkpt>
      <trkpt lat="44.84205" lon="3.82779">
        <ele>1078.74</ele>
        <time>2025-12-14T15:06:35Z</time>
      </trkpt>
      <trkpt lat="44.84205" lon="3.82798">
        <ele>1078.74</ele>
        <time>2025-12-14T15:06:46Z</time>
      </trkpt>
      <trkpt lat="44.84202" lon="3.82817">
        <ele>1079.7</ele>
        <time>2025-12-14T15:06:57Z</time>
      </trkpt>
      <trkpt lat="44.84199" lon="3.82839">
        <ele>1081.62</ele>
        <time>2025-12-14T15:07:09Z</time>
      </trkpt>
      <trkpt lat="44.842" lon="3.8286">
        <ele>1081.62</ele>
        <time>2025-12-14T15:07:20Z</time>
      </trkpt>
      <trkpt lat="44.84204" lon="3.82873">
        <ele>1080.18</ele>
        <time>2025-12-14T15:07:29Z</time>
      </trkpt>
      <trkpt lat="44.84205" lon="3.82875">
        <ele>1079.7</ele>
        <time>2025-12-14T15:07:30Z</time>
      </trkpt>
      <trkpt lat="44.84209" lon="3.82877">
        <ele>1079.22</ele>
        <time>2025-12-14T15:07:33Z</time>
      </trkpt>
      <trkpt lat="44.8421" lon="3.82877">
        <ele>1079.22</ele>
        <time>2025-12-14T15:07:34Z</time>
      </trkpt>
      <trkpt lat="44.84232" lon="3.82885">
        <ele>1077.29</ele>
        <time>2025-12-14T15:07:53Z</time>
      </trkpt>
      <trkpt lat="44.84251" lon="3.82885">
        <ele>1078.26</ele>
        <time>2025-12-14T15:08:12Z</time>
      </trkpt>
      <trkpt lat="44.84261" lon="3.82898">
        <ele>1077.78</ele>
        <time>2025-12-14T15:08:25Z</time>
      </trkpt>
      <trkpt lat="44.84273" lon="3.82919">
        <ele>1078.26</ele>
        <time>2025-12-14T15:08:40Z</time>
      </trkpt>
      <trkpt lat="44.84285" lon="3.82945">
        <ele>1081.62</ele>
        <time>2025-12-14T15:08:58Z</time>
      </trkpt>
      <trkpt lat="44.84294" lon="3.82971">
        <ele>1084.5</ele>
        <time>2025-12-14T15:09:13Z</time>
      </trkpt>
      <trkpt lat="44.843" lon="3.82987">
        <ele>1085.95</ele>
        <time>2025-12-14T15:09:24Z</time>
      </trkpt>
      <trkpt lat="44.84307" lon="3.83">
        <ele>1087.87</ele>
        <time>2025-12-14T15:09:34Z</time>
      </trkpt>
      <trkpt lat="44.84318" lon="3.83016">
        <ele>1090.75</ele>
        <time>2025-12-14T15:09:49Z</time>
        <extensions>
          <visugpx:TrkExtension xmlns:visugpx="https://www.visugpx.com/editgpx/">
            <visugpx:node>5</visugpx:node>
            </visugpx:TrkExtension>
        </extensions>
      </trkpt>
    </trkseg>
  </trk>
</gpx>